<?xml version="1.0" encoding="UTF-8" standalone="no" ?>
<gpx xmlns="http://www.topografix.com/GPX/1/1" creator="MapSource 6.16.3" version="1.1" xmlns:xsi="http://www.w3.org/2001/XMLSchema-instance" xsi:schemaLocation="http://www.topografix.com/GPX/1/1 http://www.topografix.com/GPX/1/1/gpx.xsd">

  <metadata>
    <link href="http://www.garmin.com">
      <text>Garmin International</text>
    </link>
    <time>2016-05-04T14:31:40Z</time>
    <bounds maxlat="51.770123792812228" maxlon="8.743185997009277" minlat="51.423928812146187" minlon="8.44874382019043"/>
  </metadata>

  <wpt lat="51.641925182193518" lon="8.665359020233154">
    <ele>183</ele>
    <name>Streckenteilung S1,2//S3,4</name>
    <cmt>S1,2 weiter Richtung Flughafen;S3,4 weiter Richtung N´Tudorf</cmt>
    <desc>S1,2 weiter Richtung Flughafen;S3,4 weiter Richtung N´Tudorf</desc>
    <sym>Waypoint</sym>
    <extensions>
      <gpxx:WaypointExtension xmlns:gpxx="http://www.garmin.com/xmlschemas/GpxExtensions/v3">
        <gpxx:DisplayMode>SymbolAndName</gpxx:DisplayMode>
      </gpxx:WaypointExtension>
    </extensions>
  </wpt>

  <wpt lat="51.435015890747309" lon="8.709497451782227">
    <ele>469</ele>
    <name>Streckenteilung S3 // S4</name>
    <cmt>S3 rechts Richtung Radlinghausen;S4 links Richtung Madfeld</cmt>
    <desc>S3 rechts Richtung Radlinghausen;S4 links Richtung Madfeld</desc>
    <sym>Waypoint</sym>
    <extensions>
      <gpxx:WaypointExtension xmlns:gpxx="http://www.garmin.com/xmlschemas/GpxExtensions/v3">
        <gpxx:DisplayMode>SymbolAndName</gpxx:DisplayMode>
      </gpxx:WaypointExtension>
    </extensions>
  </wpt>

  <wpt lat="51.586669832468033" lon="8.467884063720703">
    <ele>208</ele>
    <name>Streckenzusammenführung S2 + S3,4</name>
    <cmt>zusammen weiter Richtung Störmede</cmt>
    <desc>zusammen weiter Richtung Störmede</desc>
    <sym>Waypoint</sym>
    <extensions>
      <gpxx:WaypointExtension xmlns:gpxx="http://www.garmin.com/xmlschemas/GpxExtensions/v3">
        <gpxx:DisplayMode>SymbolAndName</gpxx:DisplayMode>
      </gpxx:WaypointExtension>
    </extensions>
  </wpt>

  <wpt lat="51.424768092110753" lon="8.64199161529541">
    <ele>429</ele>
    <name>Streckenzusammenführung S3 + S4</name>
    <cmt>zusammen weiter Richtung Nehden</cmt>
    <desc>zusammen weiter Richtung Nehden</desc>
    <sym>Waypoint</sym>
    <extensions>
      <gpxx:WaypointExtension xmlns:gpxx="http://www.garmin.com/xmlschemas/GpxExtensions/v3">
        <gpxx:DisplayMode>SymbolAndName</gpxx:DisplayMode>
      </gpxx:WaypointExtension>
    </extensions>
  </wpt>

  <trk>
    <name>118_RSG_RTF</name>
    <link href="http://www.gpsies.com/map.do?fileId=ydqdvxksjygripnw"/>
    <link href="http://www.gpsies.com/charts/yd/map/ydqdvxksjygripnw_map.png"/>
    <link href="http://www.gpsies.com/charts/yd/mapThumb/ydqdvxksjygripnw_mapThumb.png"/>
    <link href="http://www.gpsies.com/charts/yd/tab/ydqdvxksjygripnw_tab.png"/>
    <extensions>
      <gpxx:TrackExtension xmlns:gpxx="http://www.garmin.com/xmlschemas/GpxExtensions/v3">
        <gpxx:DisplayColor>Red</gpxx:DisplayColor>
      </gpxx:TrackExtension>
    </extensions>
    <trkseg>
      <trkpt lat="51.769081419333816" lon="8.556010723114014">
        <ele>112</ele>
        <time>2010-01-01T00:00:00Z</time>
      </trkpt>
      <trkpt lat="51.769373528659344" lon="8.556085824966431">
        <ele>112</ele>
        <time>2010-01-01T00:00:11Z</time>
      </trkpt>
      <trkpt lat="51.769433291628957" lon="8.557180166244507">
        <ele>114</ele>
        <time>2010-01-01T00:00:39Z</time>
      </trkpt>
      <trkpt lat="51.770123792812228" lon="8.56633186340332">
        <ele>117</ele>
        <time>2010-01-01T00:04:27Z</time>
      </trkpt>
      <trkpt lat="51.769937882199883" lon="8.567061424255371">
        <ele>114</ele>
        <time>2010-01-01T00:04:46Z</time>
      </trkpt>
      <trkpt lat="51.769499676302075" lon="8.568048477172852">
        <ele>111</ele>
        <time>2010-01-01T00:05:17Z</time>
      </trkpt>
      <trkpt lat="51.769127938896418" lon="8.568713665008545">
        <ele>109</ele>
        <time>2010-01-01T00:05:39Z</time>
      </trkpt>
      <trkpt lat="51.768716219812632" lon="8.569378852844238">
        <ele>107</ele>
        <time>2010-01-01T00:06:02Z</time>
      </trkpt>
      <trkpt lat="51.767959333956242" lon="8.569850921630859">
        <ele>104</ele>
        <time>2010-01-01T00:06:35Z</time>
      </trkpt>
      <trkpt lat="51.767746936529875" lon="8.570108413696289">
        <ele>103</ele>
        <time>2010-01-01T00:06:45Z</time>
      </trkpt>
      <trkpt lat="51.766950068995357" lon="8.571031093597412">
        <ele>103</ele>
        <time>2010-01-01T00:07:24Z</time>
      </trkpt>
      <trkpt lat="51.765768304467201" lon="8.569035530090332">
        <ele>100</ele>
        <time>2010-01-01T00:08:33Z</time>
      </trkpt>
      <trkpt lat="51.764851910993457" lon="8.567984104156494">
        <ele>99</ele>
        <time>2010-01-01T00:09:18Z</time>
      </trkpt>
      <trkpt lat="51.764360563829541" lon="8.567769527435303">
        <ele>98</ele>
        <time>2010-01-01T00:09:38Z</time>
      </trkpt>
      <trkpt lat="51.763882460072637" lon="8.567683696746826">
        <ele>96</ele>
        <time>2010-01-01T00:09:57Z</time>
      </trkpt>
      <trkpt lat="51.763696633279324" lon="8.566825389862061">
        <ele>96</ele>
        <time>2010-01-01T00:10:20Z</time>
      </trkpt>
      <trkpt lat="51.763284914195538" lon="8.566439151763916">
        <ele>95</ele>
        <time>2010-01-01T00:10:39Z</time>
      </trkpt>
      <trkpt lat="51.763125490397215" lon="8.566696643829346">
        <ele>95</ele>
        <time>2010-01-01T00:10:48Z</time>
      </trkpt>
      <trkpt lat="51.762248994782567" lon="8.567211627960205">
        <ele>93</ele>
        <time>2010-01-01T00:11:25Z</time>
      </trkpt>
      <trkpt lat="51.761498562991619" lon="8.567748069763184">
        <ele>93</ele>
        <time>2010-01-01T00:11:58Z</time>
      </trkpt>
      <trkpt lat="51.761287003755569" lon="8.568080998957157">
        <ele>92</ele>
        <time>2010-01-01T00:12:10Z</time>
      </trkpt>
      <trkpt lat="51.761019034311175" lon="8.568400014191866">
        <ele>92</ele>
        <time>2010-01-01T00:12:23Z</time>
      </trkpt>
      <trkpt lat="51.760316798463464" lon="8.568863030523062">
        <ele>94</ele>
        <time>2010-01-01T00:12:54Z</time>
      </trkpt>
      <trkpt lat="51.759866019710898" lon="8.569181961938739">
        <ele>96</ele>
        <time>2010-01-01T00:13:13Z</time>
      </trkpt>
      <trkpt lat="51.759131010621786" lon="8.569733994081616">
        <ele>95</ele>
        <time>2010-01-01T00:13:46Z</time>
      </trkpt>
      <trkpt lat="51.758977035060525" lon="8.569803982973099">
        <ele>94</ele>
        <time>2010-01-01T00:13:52Z</time>
      </trkpt>
      <trkpt lat="51.75837580114603" lon="8.569927029311657">
        <ele>93</ele>
        <time>2010-01-01T00:14:17Z</time>
      </trkpt>
      <trkpt lat="51.758270021528006" lon="8.570066001266241">
        <ele>93</ele>
        <time>2010-01-01T00:14:22Z</time>
      </trkpt>
      <trkpt lat="51.758231800049543" lon="8.570159962400794">
        <ele>93</ele>
        <time>2010-01-01T00:14:25Z</time>
      </trkpt>
      <trkpt lat="51.758217802271247" lon="8.570408988744021">
        <ele>93</ele>
        <time>2010-01-01T00:14:31Z</time>
      </trkpt>
      <trkpt lat="51.758230794221163" lon="8.570667989552021">
        <ele>94</ele>
        <time>2010-01-01T00:14:37Z</time>
      </trkpt>
      <trkpt lat="51.758342022076249" lon="8.57161296531558">
        <ele>92</ele>
        <time>2010-01-01T00:15:01Z</time>
      </trkpt>
      <trkpt lat="51.758361803367734" lon="8.572823982685804">
        <ele>92</ele>
        <time>2010-01-01T00:15:31Z</time>
      </trkpt>
      <trkpt lat="51.758337914943695" lon="8.572906963527203">
        <ele>92</ele>
        <time>2010-01-01T00:15:34Z</time>
      </trkpt>
      <trkpt lat="51.758278906345367" lon="8.572951974347234">
        <ele>92</ele>
        <time>2010-01-01T00:15:36Z</time>
      </trkpt>
      <trkpt lat="51.758243031799793" lon="8.572957003489137">
        <ele>92</ele>
        <time>2010-01-01T00:15:38Z</time>
      </trkpt>
      <trkpt lat="51.757892584428191" lon="8.572876453399658">
        <ele>92</ele>
        <time>2010-01-01T00:15:52Z</time>
      </trkpt>
      <trkpt lat="51.757509028539062" lon="8.572991034016013">
        <ele>92</ele>
        <time>2010-01-01T00:16:07Z</time>
      </trkpt>
      <trkpt lat="51.757183810696006" lon="8.573121037334204">
        <ele>92</ele>
        <time>2010-01-01T00:16:21Z</time>
      </trkpt>
      <trkpt lat="51.756316032260656" lon="8.573874989524484">
        <ele>92</ele>
        <time>2010-01-01T00:17:00Z</time>
      </trkpt>
      <trkpt lat="51.755668027326465" lon="8.57431897893548">
        <ele>92</ele>
        <time>2010-01-01T00:17:28Z</time>
      </trkpt>
      <trkpt lat="51.754618026316166" lon="8.574729021638632">
        <ele>91</ele>
        <time>2010-01-01T00:18:12Z</time>
      </trkpt>
      <trkpt lat="51.753753013908863" lon="8.575463024899364">
        <ele>92</ele>
        <time>2010-01-01T00:18:51Z</time>
      </trkpt>
      <trkpt lat="51.752609806135297" lon="8.576881997287273">
        <ele>92</ele>
        <time>2010-01-01T00:19:49Z</time>
      </trkpt>
      <trkpt lat="51.752228010445833" lon="8.577333027496934">
        <ele>93</ele>
        <time>2010-01-01T00:20:07Z</time>
      </trkpt>
      <trkpt lat="51.749138021841645" lon="8.581117037683725">
        <ele>93</ele>
        <time>2010-01-01T00:22:43Z</time>
      </trkpt>
      <trkpt lat="51.748020797967911" lon="8.582359990105033">
        <ele>91</ele>
        <time>2010-01-01T00:23:37Z</time>
      </trkpt>
      <trkpt lat="51.746894018724561" lon="8.583517028018832">
        <ele>90</ele>
        <time>2010-01-01T00:24:30Z</time>
      </trkpt>
      <trkpt lat="51.746447011828423" lon="8.584359996020794">
        <ele>91</ele>
        <time>2010-01-01T00:24:58Z</time>
      </trkpt>
      <trkpt lat="51.746383812278509" lon="8.584599969908595">
        <ele>92</ele>
        <time>2010-01-01T00:25:04Z</time>
      </trkpt>
      <trkpt lat="51.746293790638447" lon="8.585070027038455">
        <ele>93</ele>
        <time>2010-01-01T00:25:17Z</time>
      </trkpt>
      <trkpt lat="51.746130008250475" lon="8.586044004186988">
        <ele>92</ele>
        <time>2010-01-01T00:25:42Z</time>
      </trkpt>
      <trkpt lat="51.746062031015754" lon="8.586272997781634">
        <ele>92</ele>
        <time>2010-01-01T00:25:48Z</time>
      </trkpt>
      <trkpt lat="51.745916018262506" lon="8.586578015238047">
        <ele>91</ele>
        <time>2010-01-01T00:25:57Z</time>
      </trkpt>
      <trkpt lat="51.7456348054111" lon="8.587020998820663">
        <ele>91</ele>
        <time>2010-01-01T00:26:13Z</time>
      </trkpt>
      <trkpt lat="51.74543003551662" lon="8.587385024875403">
        <ele>91</ele>
        <time>2010-01-01T00:26:25Z</time>
      </trkpt>
      <trkpt lat="51.744701815769076" lon="8.589549064636231">
        <ele>91</ele>
        <time>2010-01-01T00:27:26Z</time>
      </trkpt>
      <trkpt lat="51.744409538805485" lon="8.590836524963379">
        <ele>94</ele>
        <time>2010-01-01T00:28:00Z</time>
      </trkpt>
      <trkpt lat="51.743851471692324" lon="8.591780662536621">
        <ele>92</ele>
        <time>2010-01-01T00:28:33Z</time>
      </trkpt>
      <trkpt lat="51.742522772401571" lon="8.593282699584961">
        <ele>89</ele>
        <time>2010-01-01T00:29:38Z</time>
      </trkpt>
      <trkpt lat="51.741114361211658" lon="8.594141006469727">
        <ele>91</ele>
        <time>2010-01-01T00:30:38Z</time>
      </trkpt>
      <trkpt lat="51.740317158401012" lon="8.594698905944824">
        <ele>91</ele>
        <time>2010-01-01T00:31:13Z</time>
      </trkpt>
      <trkpt lat="51.739573096856475" lon="8.595342636108398">
        <ele>91</ele>
        <time>2010-01-01T00:31:47Z</time>
      </trkpt>
      <trkpt lat="51.738935317844152" lon="8.596458435058594">
        <ele>91</ele>
        <time>2010-01-01T00:32:24Z</time>
      </trkpt>
      <trkpt lat="51.73851010389626" lon="8.597874641418457">
        <ele>88</ele>
        <time>2010-01-01T00:33:03Z</time>
      </trkpt>
      <trkpt lat="51.737287603318691" lon="8.603110313415527">
        <ele>91</ele>
        <time>2010-01-01T00:35:22Z</time>
      </trkpt>
      <trkpt lat="51.735374098643661" lon="8.61053466796875">
        <ele>91</ele>
        <time>2010-01-01T00:38:41Z</time>
      </trkpt>
      <trkpt lat="51.735134879127145" lon="8.612766265869141">
        <ele>91</ele>
        <time>2010-01-01T00:39:37Z</time>
      </trkpt>
      <trkpt lat="51.73516153357923" lon="8.613924980163574">
        <ele>93</ele>
        <time>2010-01-01T00:40:06Z</time>
      </trkpt>
      <trkpt lat="51.735347611829638" lon="8.614954948425293">
        <ele>92</ele>
        <time>2010-01-01T00:40:33Z</time>
      </trkpt>
      <trkpt lat="51.735879108309746" lon="8.616843223571777">
        <ele>92</ele>
        <time>2010-01-01T00:41:24Z</time>
      </trkpt>
      <trkpt lat="51.737261116504669" lon="8.619332313537598">
        <ele>92</ele>
        <time>2010-01-01T00:42:47Z</time>
      </trkpt>
      <trkpt lat="51.7376066185534" lon="8.620963096618652">
        <ele>94</ele>
        <time>2010-01-01T00:43:30Z</time>
      </trkpt>
      <trkpt lat="51.738191172480583" lon="8.624224662780762">
        <ele>96</ele>
        <time>2010-01-01T00:44:54Z</time>
      </trkpt>
      <trkpt lat="51.738483617082238" lon="8.626370429992676">
        <ele>95</ele>
        <time>2010-01-01T00:45:48Z</time>
      </trkpt>
      <trkpt lat="51.738083800300956" lon="8.626610990613699">
        <ele>95</ele>
        <time>2010-01-01T00:46:05Z</time>
      </trkpt>
      <trkpt lat="51.737783811986446" lon="8.626838978379965">
        <ele>96</ele>
        <time>2010-01-01T00:46:19Z</time>
      </trkpt>
      <trkpt lat="51.737560015171766" lon="8.627079958096147">
        <ele>96</ele>
        <time>2010-01-01T00:46:29Z</time>
      </trkpt>
      <trkpt lat="51.737363040447235" lon="8.627324039116502">
        <ele>96</ele>
        <time>2010-01-01T00:46:39Z</time>
      </trkpt>
      <trkpt lat="51.737055005505681" lon="8.627582788467407">
        <ele>95</ele>
        <time>2010-01-01T00:46:53Z</time>
      </trkpt>
      <trkpt lat="51.736577907577157" lon="8.62764397636056">
        <ele>95</ele>
        <time>2010-01-01T00:47:12Z</time>
      </trkpt>
      <trkpt lat="51.735618012025952" lon="8.627462005242705">
        <ele>95</ele>
        <time>2010-01-01T00:47:51Z</time>
      </trkpt>
      <trkpt lat="51.735495803877711" lon="8.627482037991285">
        <ele>95</ele>
        <time>2010-01-01T00:47:56Z</time>
      </trkpt>
      <trkpt lat="51.735440902411938" lon="8.627531994134188">
        <ele>95</ele>
        <time>2010-01-01T00:47:59Z</time>
      </trkpt>
      <trkpt lat="51.735397903248668" lon="8.627613969147205">
        <ele>95</ele>
        <time>2010-01-01T00:48:01Z</time>
      </trkpt>
      <trkpt lat="51.735336799174547" lon="8.627814967185259">
        <ele>95</ele>
        <time>2010-01-01T00:48:07Z</time>
      </trkpt>
      <trkpt lat="51.735134040936828" lon="8.628920959308744">
        <ele>95</ele>
        <time>2010-01-01T00:48:35Z</time>
      </trkpt>
      <trkpt lat="51.735064806416631" lon="8.629610035568476">
        <ele>96</ele>
        <time>2010-01-01T00:48:53Z</time>
      </trkpt>
      <trkpt lat="51.735074026510119" lon="8.629834000021219">
        <ele>96</ele>
        <time>2010-01-01T00:48:58Z</time>
      </trkpt>
      <trkpt lat="51.735105039551854" lon="8.63005100749433">
        <ele>96</ele>
        <time>2010-01-01T00:49:04Z</time>
      </trkpt>
      <trkpt lat="51.735280808061361" lon="8.630669005215168">
        <ele>96</ele>
        <time>2010-01-01T00:49:21Z</time>
      </trkpt>
      <trkpt lat="51.735305031761527" lon="8.630858017131686">
        <ele>96</ele>
        <time>2010-01-01T00:49:25Z</time>
      </trkpt>
      <trkpt lat="51.735279802232981" lon="8.631047029048204">
        <ele>96</ele>
        <time>2010-01-01T00:49:30Z</time>
      </trkpt>
      <trkpt lat="51.735160024836659" lon="8.631431004032493">
        <ele>96</ele>
        <time>2010-01-01T00:49:41Z</time>
      </trkpt>
      <trkpt lat="51.735116019845009" lon="8.631507027894259">
        <ele>96</ele>
        <time>2010-01-01T00:49:43Z</time>
      </trkpt>
      <trkpt lat="51.735056005418301" lon="8.6315549723804">
        <ele>96</ele>
        <time>2010-01-01T00:49:46Z</time>
      </trkpt>
      <trkpt lat="51.734987022355199" lon="8.631585985422134">
        <ele>96</ele>
        <time>2010-01-01T00:49:49Z</time>
      </trkpt>
      <trkpt lat="51.731828805059195" lon="8.632562980055809">
        <ele>94</ele>
        <time>2010-01-01T00:51:58Z</time>
      </trkpt>
      <trkpt lat="51.73129890114069" lon="8.632744029164314">
        <ele>94</ele>
        <time>2010-01-01T00:52:19Z</time>
      </trkpt>
      <trkpt lat="51.728143030777574" lon="8.633747007697821">
        <ele>96</ele>
        <time>2010-01-01T00:54:28Z</time>
      </trkpt>
      <trkpt lat="51.726255007088184" lon="8.634372968226671">
        <ele>100</ele>
        <time>2010-01-01T00:55:45Z</time>
      </trkpt>
      <trkpt lat="51.725331908091903" lon="8.634649990126491">
        <ele>102</ele>
        <time>2010-01-01T00:56:23Z</time>
      </trkpt>
      <trkpt lat="51.724773002788424" lon="8.634834978729487">
        <ele>102</ele>
        <time>2010-01-01T00:56:46Z</time>
      </trkpt>
      <trkpt lat="51.724630007520318" lon="8.634839002043009">
        <ele>102</ele>
        <time>2010-01-01T00:56:51Z</time>
      </trkpt>
      <trkpt lat="51.724310908466578" lon="8.634740011766553">
        <ele>102</ele>
        <time>2010-01-01T00:57:04Z</time>
      </trkpt>
      <trkpt lat="51.724255001172423" lon="8.634761972352862">
        <ele>102</ele>
        <time>2010-01-01T00:57:07Z</time>
      </trkpt>
      <trkpt lat="51.72420403920114" lon="8.634814023971558">
        <ele>103</ele>
        <time>2010-01-01T00:57:09Z</time>
      </trkpt>
      <trkpt lat="51.724115023389459" lon="8.634984008967876">
        <ele>103</ele>
        <time>2010-01-01T00:57:15Z</time>
      </trkpt>
      <trkpt lat="51.723288903012872" lon="8.636864991858602">
        <ele>105</ele>
        <time>2010-01-01T00:58:12Z</time>
      </trkpt>
      <trkpt lat="51.721491906791925" lon="8.640789985656738">
        <ele>109</ele>
        <time>2010-01-01T01:00:13Z</time>
      </trkpt>
      <trkpt lat="51.721213040873408" lon="8.641635971143842">
        <ele>108</ele>
        <time>2010-01-01T01:00:37Z</time>
      </trkpt>
      <trkpt lat="51.719444040209055" lon="8.647434990853071">
        <ele>113</ele>
        <time>2010-01-01T01:03:17Z</time>
      </trkpt>
      <trkpt lat="51.718981023877859" lon="8.64908698014915">
        <ele>111</ele>
        <time>2010-01-01T01:04:02Z</time>
      </trkpt>
      <trkpt lat="51.71888479962945" lon="8.649278003722429">
        <ele>111</ele>
        <time>2010-01-01T01:04:08Z</time>
      </trkpt>
      <trkpt lat="51.718195807188749" lon="8.650405034422875">
        <ele>111</ele>
        <time>2010-01-01T01:04:47Z</time>
      </trkpt>
      <trkpt lat="51.717755002900958" lon="8.651086986064911">
        <ele>112</ele>
        <time>2010-01-01T01:05:12Z</time>
      </trkpt>
      <trkpt lat="51.717688031494617" lon="8.651155969128013">
        <ele>112</ele>
        <time>2010-01-01T01:05:15Z</time>
      </trkpt>
      <trkpt lat="51.717614019289613" lon="8.651203997433186">
        <ele>112</ele>
        <time>2010-01-01T01:05:18Z</time>
      </trkpt>
      <trkpt lat="51.717536905780435" lon="8.651225036010146">
        <ele>112</ele>
        <time>2010-01-01T01:05:21Z</time>
      </trkpt>
      <trkpt lat="51.717459792271256" lon="8.651201985776424">
        <ele>113</ele>
        <time>2010-01-01T01:05:24Z</time>
      </trkpt>
      <trkpt lat="51.717387791723013" lon="8.651130991056562">
        <ele>113</ele>
        <time>2010-01-01T01:05:28Z</time>
      </trkpt>
      <trkpt lat="51.717262901365757" lon="8.650952037423849">
        <ele>114</ele>
        <time>2010-01-01T01:05:34Z</time>
      </trkpt>
      <trkpt lat="51.7166200093925" lon="8.649765998125076">
        <ele>115</ele>
        <time>2010-01-01T01:06:14Z</time>
      </trkpt>
      <trkpt lat="51.716135032474995" lon="8.649001987650991">
        <ele>115</ele>
        <time>2010-01-01T01:06:41Z</time>
      </trkpt>
      <trkpt lat="51.715908804908395" lon="8.648707028478384">
        <ele>116</ele>
        <time>2010-01-01T01:06:52Z</time>
      </trkpt>
      <trkpt lat="51.71557579189539" lon="8.648322969675064">
        <ele>116</ele>
        <time>2010-01-01T01:07:09Z</time>
      </trkpt>
      <trkpt lat="51.715244790539145" lon="8.648020969703794">
        <ele>117</ele>
        <time>2010-01-01T01:07:24Z</time>
      </trkpt>
      <trkpt lat="51.714237034320831" lon="8.647031988948584">
        <ele>117</ele>
        <time>2010-01-01T01:08:11Z</time>
      </trkpt>
      <trkpt lat="51.713869906961918" lon="8.646609038114548">
        <ele>117</ele>
        <time>2010-01-01T01:08:29Z</time>
      </trkpt>
      <trkpt lat="51.713637812063098" lon="8.64639999344945">
        <ele>117</ele>
        <time>2010-01-01T01:08:40Z</time>
      </trkpt>
      <trkpt lat="51.713576037436724" lon="8.646368980407715">
        <ele>117</ele>
        <time>2010-01-01T01:08:42Z</time>
      </trkpt>
      <trkpt lat="51.713474029675126" lon="8.646365040913224">
        <ele>117</ele>
        <time>2010-01-01T01:08:47Z</time>
      </trkpt>
      <trkpt lat="51.71342390589416" lon="8.646398987621069">
        <ele>116</ele>
        <time>2010-01-01T01:08:49Z</time>
      </trkpt>
      <trkpt lat="51.713395994156599" lon="8.646626472473145">
        <ele>116</ele>
        <time>2010-01-01T01:08:54Z</time>
      </trkpt>
      <trkpt lat="51.713502276688814" lon="8.647034168243408">
        <ele>116</ele>
        <time>2010-01-01T01:09:05Z</time>
      </trkpt>
      <trkpt lat="51.713542174547911" lon="8.647420406341553">
        <ele>116</ele>
        <time>2010-01-01T01:09:15Z</time>
      </trkpt>
      <trkpt lat="51.713478807359934" lon="8.647987022995949">
        <ele>116</ele>
        <time>2010-01-01T01:09:29Z</time>
      </trkpt>
      <trkpt lat="51.713346792384982" lon="8.648482980206609">
        <ele>115</ele>
        <time>2010-01-01T01:09:43Z</time>
      </trkpt>
      <trkpt lat="51.713186027482152" lon="8.648937027901411">
        <ele>114</ele>
        <time>2010-01-01T01:09:56Z</time>
      </trkpt>
      <trkpt lat="51.713125007227063" lon="8.649007016792893">
        <ele>113</ele>
        <time>2010-01-01T01:09:59Z</time>
      </trkpt>
      <trkpt lat="51.713052000850439" lon="8.649027971550822">
        <ele>114</ele>
        <time>2010-01-01T01:10:02Z</time>
      </trkpt>
      <trkpt lat="51.71297580935061" lon="8.648997964337468">
        <ele>114</ele>
        <time>2010-01-01T01:10:05Z</time>
      </trkpt>
      <trkpt lat="51.712902802973986" lon="8.648939039558172">
        <ele>114</ele>
        <time>2010-01-01T01:10:08Z</time>
      </trkpt>
      <trkpt lat="51.712399804964662" lon="8.648460013791919">
        <ele>113</ele>
        <time>2010-01-01T01:10:32Z</time>
      </trkpt>
      <trkpt lat="51.709997802972794" lon="8.646259009838104">
        <ele>108</ele>
        <time>2010-01-01T01:12:22Z</time>
      </trkpt>
      <trkpt lat="51.70485190115869" lon="8.641606969758868">
        <ele>109</ele>
        <time>2010-01-01T01:16:18Z</time>
      </trkpt>
      <trkpt lat="51.704397015273571" lon="8.641040017828345">
        <ele>108</ele>
        <time>2010-01-01T01:16:41Z</time>
      </trkpt>
      <trkpt lat="51.703520016744733" lon="8.639513002708554">
        <ele>108</ele>
        <time>2010-01-01T01:17:33Z</time>
      </trkpt>
      <trkpt lat="51.703254813328385" lon="8.639221983030438">
        <ele>108</ele>
        <time>2010-01-01T01:17:46Z</time>
      </trkpt>
      <trkpt lat="51.702791880816221" lon="8.638890981674194">
        <ele>108</ele>
        <time>2010-01-01T01:18:06Z</time>
      </trkpt>
      <trkpt lat="51.702330037951469" lon="8.638861980289221">
        <ele>108</ele>
        <time>2010-01-01T01:18:24Z</time>
      </trkpt>
      <trkpt lat="51.700981808826327" lon="8.639084016904235">
        <ele>109</ele>
        <time>2010-01-01T01:19:19Z</time>
      </trkpt>
      <trkpt lat="51.700028032064438" lon="8.63926699385047">
        <ele>108</ele>
        <time>2010-01-01T01:19:57Z</time>
      </trkpt>
      <trkpt lat="51.699427301064134" lon="8.639427423477173">
        <ele>110</ele>
        <time>2010-01-01T01:20:22Z</time>
      </trkpt>
      <trkpt lat="51.698194909840822" lon="8.639351986348629">
        <ele>111</ele>
        <time>2010-01-01T01:21:11Z</time>
      </trkpt>
      <trkpt lat="51.697243815287948" lon="8.639308987185359">
        <ele>108</ele>
        <time>2010-01-01T01:21:49Z</time>
      </trkpt>
      <trkpt lat="51.695172814652324" lon="8.639441002160311">
        <ele>108</ele>
        <time>2010-01-01T01:23:12Z</time>
      </trkpt>
      <trkpt lat="51.694523803889751" lon="8.639494981616736">
        <ele>108</ele>
        <time>2010-01-01T01:23:38Z</time>
      </trkpt>
      <trkpt lat="51.694423807784915" lon="8.639537980780006">
        <ele>108</ele>
        <time>2010-01-01T01:23:42Z</time>
      </trkpt>
      <trkpt lat="51.69439279474318" lon="8.639592966064811">
        <ele>108</ele>
        <time>2010-01-01T01:23:44Z</time>
      </trkpt>
      <trkpt lat="51.694391034543514" lon="8.639755994081497">
        <ele>108</ele>
        <time>2010-01-01T01:23:48Z</time>
      </trkpt>
      <trkpt lat="51.695197038352489" lon="8.645878974348307">
        <ele>110</ele>
        <time>2010-01-01T01:26:23Z</time>
      </trkpt>
      <trkpt lat="51.6953070089221" lon="8.646954037249088">
        <ele>110</ele>
        <time>2010-01-01T01:26:50Z</time>
      </trkpt>
      <trkpt lat="51.695357719436288" lon="8.650553226470947">
        <ele>112</ele>
        <time>2010-01-01T01:28:20Z</time>
      </trkpt>
      <trkpt lat="51.69554203748703" lon="8.651236016303301">
        <ele>115</ele>
        <time>2010-01-01T01:28:38Z</time>
      </trkpt>
      <trkpt lat="51.696049310266972" lon="8.652634620666504">
        <ele>116</ele>
        <time>2010-01-01T01:29:18Z</time>
      </trkpt>
      <trkpt lat="51.695998013019562" lon="8.65295497700572">
        <ele>114</ele>
        <time>2010-01-01T01:29:27Z</time>
      </trkpt>
      <trkpt lat="51.695961803197861" lon="8.653197968378663">
        <ele>114</ele>
        <time>2010-01-01T01:29:33Z</time>
      </trkpt>
      <trkpt lat="51.695950906723738" lon="8.653449006378651">
        <ele>113</ele>
        <time>2010-01-01T01:29:39Z</time>
      </trkpt>
      <trkpt lat="51.696528000757098" lon="8.655906915664673">
        <ele>124</ele>
        <time>2010-01-01T01:30:44Z</time>
      </trkpt>
      <trkpt lat="51.69677191413939" lon="8.658104985952377">
        <ele>125</ele>
        <time>2010-01-01T01:31:40Z</time>
      </trkpt>
      <trkpt lat="51.696915915235877" lon="8.659432008862495">
        <ele>123</ele>
        <time>2010-01-01T01:32:13Z</time>
      </trkpt>
      <trkpt lat="51.696954807266593" lon="8.659902988001704">
        <ele>122</ele>
        <time>2010-01-01T01:32:25Z</time>
      </trkpt>
      <trkpt lat="51.696938797831535" lon="8.660125024616718">
        <ele>122</ele>
        <time>2010-01-01T01:32:30Z</time>
      </trkpt>
      <trkpt lat="51.696758000180125" lon="8.660585023462772">
        <ele>123</ele>
        <time>2010-01-01T01:32:44Z</time>
      </trkpt>
      <trkpt lat="51.696664793416858" lon="8.661042004823685">
        <ele>122</ele>
        <time>2010-01-01T01:32:56Z</time>
      </trkpt>
      <trkpt lat="51.696479804813862" lon="8.661694033071399">
        <ele>122</ele>
        <time>2010-01-01T01:33:14Z</time>
      </trkpt>
      <trkpt lat="51.696433033794165" lon="8.661931995302439">
        <ele>122</ele>
        <time>2010-01-01T01:33:20Z</time>
      </trkpt>
      <trkpt lat="51.696374025195837" lon="8.66253599524498">
        <ele>122</ele>
        <time>2010-01-01T01:33:35Z</time>
      </trkpt>
      <trkpt lat="51.696424903348088" lon="8.663260024040937">
        <ele>122</ele>
        <time>2010-01-01T01:33:53Z</time>
      </trkpt>
      <trkpt lat="51.696473015472293" lon="8.663476025685668">
        <ele>121</ele>
        <time>2010-01-01T01:33:59Z</time>
      </trkpt>
      <trkpt lat="51.696511907503009" lon="8.663576021790505">
        <ele>121</ele>
        <time>2010-01-01T01:34:02Z</time>
      </trkpt>
      <trkpt lat="51.697525028139353" lon="8.665891019627452">
        <ele>120</ele>
        <time>2010-01-01T01:35:12Z</time>
      </trkpt>
      <trkpt lat="51.697537014260888" lon="8.665975006297231">
        <ele>120</ele>
        <time>2010-01-01T01:35:14Z</time>
      </trkpt>
      <trkpt lat="51.697529805824161" lon="8.666055975481868">
        <ele>120</ele>
        <time>2010-01-01T01:35:16Z</time>
      </trkpt>
      <trkpt lat="51.697449004277587" lon="8.666173992678523">
        <ele>120</ele>
        <time>2010-01-01T01:35:21Z</time>
      </trkpt>
      <trkpt lat="51.696061799302697" lon="8.667652979493141">
        <ele>123</ele>
        <time>2010-01-01T01:36:27Z</time>
      </trkpt>
      <trkpt lat="51.693300800397992" lon="8.670726958662272">
        <ele>130</ele>
        <time>2010-01-01T01:38:41Z</time>
      </trkpt>
      <trkpt lat="51.692471411079168" lon="8.671367168426514">
        <ele>130</ele>
        <time>2010-01-01T01:39:18Z</time>
      </trkpt>
      <trkpt lat="51.693202899768949" lon="8.673362731933594">
        <ele>132</ele>
        <time>2010-01-01T01:40:16Z</time>
      </trkpt>
      <trkpt lat="51.693535409867764" lon="8.674843311309815">
        <ele>133</ele>
        <time>2010-01-01T01:40:55Z</time>
      </trkpt>
      <trkpt lat="51.695144902914762" lon="8.67995023727417">
        <ele>139</ele>
        <time>2010-01-01T01:43:17Z</time>
      </trkpt>
      <trkpt lat="51.695105005055666" lon="8.680379390716553">
        <ele>139</ele>
        <time>2010-01-01T01:43:28Z</time>
      </trkpt>
      <trkpt lat="51.694320207461715" lon="8.681130409240723">
        <ele>139</ele>
        <time>2010-01-01T01:44:04Z</time>
      </trkpt>
      <trkpt lat="51.69386800378561" lon="8.681087493896484">
        <ele>139</ele>
        <time>2010-01-01T01:44:22Z</time>
      </trkpt>
      <trkpt lat="51.693748310208321" lon="8.681302070617676">
        <ele>138</ele>
        <time>2010-01-01T01:44:30Z</time>
      </trkpt>
      <trkpt lat="51.69380153529346" lon="8.681559562683106">
        <ele>138</ele>
        <time>2010-01-01T01:44:36Z</time>
      </trkpt>
      <trkpt lat="51.69380153529346" lon="8.681817054748535">
        <ele>138</ele>
        <time>2010-01-01T01:44:43Z</time>
      </trkpt>
      <trkpt lat="51.692897127941251" lon="8.682460784912109">
        <ele>139</ele>
        <time>2010-01-01T01:45:22Z</time>
      </trkpt>
      <trkpt lat="51.689731199294329" lon="8.684091567993164">
        <ele>141</ele>
        <time>2010-01-01T01:47:35Z</time>
      </trkpt>
      <trkpt lat="51.688640378415585" lon="8.684713840484619">
        <ele>141</ele>
        <time>2010-01-01T01:48:22Z</time>
      </trkpt>
      <trkpt lat="51.687789112329483" lon="8.685421943664551">
        <ele>143</ele>
        <time>2010-01-01T01:49:00Z</time>
      </trkpt>
      <trkpt lat="51.686871210113168" lon="8.686001300811768">
        <ele>145</ele>
        <time>2010-01-01T01:49:39Z</time>
      </trkpt>
      <trkpt lat="51.686285901814699" lon="8.68619441986084">
        <ele>145</ele>
        <time>2010-01-01T01:50:03Z</time>
      </trkpt>
      <trkpt lat="51.684862906113267" lon="8.686024015769362">
        <ele>142</ele>
        <time>2010-01-01T01:51:00Z</time>
      </trkpt>
      <trkpt lat="51.683838805183768" lon="8.685881020501256">
        <ele>142</ele>
        <time>2010-01-01T01:51:42Z</time>
      </trkpt>
      <trkpt lat="51.683181915432215" lon="8.685789993032813">
        <ele>142</ele>
        <time>2010-01-01T01:52:08Z</time>
      </trkpt>
      <trkpt lat="51.682982007041574" lon="8.685858976095915">
        <ele>143</ele>
        <time>2010-01-01T01:52:16Z</time>
      </trkpt>
      <trkpt lat="51.682147001847625" lon="8.686249991878867">
        <ele>143</ele>
        <time>2010-01-01T01:52:51Z</time>
      </trkpt>
      <trkpt lat="51.68080204166472" lon="8.686863966286182">
        <ele>143</ele>
        <time>2010-01-01T01:53:47Z</time>
      </trkpt>
      <trkpt lat="51.679158015176654" lon="8.687629988417029">
        <ele>151</ele>
        <time>2010-01-01T01:54:55Z</time>
      </trkpt>
      <trkpt lat="51.678413031622767" lon="8.687967024743557">
        <ele>154</ele>
        <time>2010-01-01T01:55:26Z</time>
      </trkpt>
      <trkpt lat="51.678205914795399" lon="8.688042964786291">
        <ele>155</ele>
        <time>2010-01-01T01:55:35Z</time>
      </trkpt>
      <trkpt lat="51.677627814933658" lon="8.688340019434691">
        <ele>159</ele>
        <time>2010-01-01T01:55:59Z</time>
      </trkpt>
      <trkpt lat="51.677565034478903" lon="8.688347982242703">
        <ele>159</ele>
        <time>2010-01-01T01:56:02Z</time>
      </trkpt>
      <trkpt lat="51.677500912919641" lon="8.688325015828013">
        <ele>160</ele>
        <time>2010-01-01T01:56:04Z</time>
      </trkpt>
      <trkpt lat="51.677306033670902" lon="8.688185038045049">
        <ele>161</ele>
        <time>2010-01-01T01:56:13Z</time>
      </trkpt>
      <trkpt lat="51.676316801458597" lon="8.687733002007008">
        <ele>164</ele>
        <time>2010-01-01T01:56:54Z</time>
      </trkpt>
      <trkpt lat="51.675322791561484" lon="8.687582965940237">
        <ele>167</ele>
        <time>2010-01-01T01:57:34Z</time>
      </trkpt>
      <trkpt lat="51.674543023109436" lon="8.687348021194339">
        <ele>169</ele>
        <time>2010-01-01T01:58:06Z</time>
      </trkpt>
      <trkpt lat="51.673991912975907" lon="8.687225980684161">
        <ele>171</ele>
        <time>2010-01-01T01:58:28Z</time>
      </trkpt>
      <trkpt lat="51.672663800418377" lon="8.686808981001377">
        <ele>174</ele>
        <time>2010-01-01T01:59:22Z</time>
      </trkpt>
      <trkpt lat="51.671796021983027" lon="8.686431040987372">
        <ele>170</ele>
        <time>2010-01-01T01:59:58Z</time>
      </trkpt>
      <trkpt lat="51.671454040333629" lon="8.686246974393725">
        <ele>169</ele>
        <time>2010-01-01T02:00:13Z</time>
      </trkpt>
      <trkpt lat="51.670465813949704" lon="8.685456980019808">
        <ele>171</ele>
        <time>2010-01-01T02:00:57Z</time>
      </trkpt>
      <trkpt lat="51.669585797935724" lon="8.684477973729372">
        <ele>176</ele>
        <time>2010-01-01T02:01:40Z</time>
      </trkpt>
      <trkpt lat="51.66808401234448" lon="8.682558014988899">
        <ele>174</ele>
        <time>2010-01-01T02:02:56Z</time>
      </trkpt>
      <trkpt lat="51.668031793087721" lon="8.68253999389708">
        <ele>174</ele>
        <time>2010-01-01T02:02:58Z</time>
      </trkpt>
      <trkpt lat="51.667982004582882" lon="8.682545023038983">
        <ele>173</ele>
        <time>2010-01-01T02:03:00Z</time>
      </trkpt>
      <trkpt lat="51.66782702319324" lon="8.682635966688395">
        <ele>172</ele>
        <time>2010-01-01T02:03:07Z</time>
      </trkpt>
      <trkpt lat="51.666895793750882" lon="8.683296963572502">
        <ele>169</ele>
        <time>2010-01-01T02:03:48Z</time>
      </trkpt>
      <trkpt lat="51.663030814379454" lon="8.686087969690561">
        <ele>168</ele>
        <time>2010-01-01T02:06:37Z</time>
      </trkpt>
      <trkpt lat="51.662500407546759" lon="8.686516284942627">
        <ele>169</ele>
        <time>2010-01-01T02:07:01Z</time>
      </trkpt>
      <trkpt lat="51.65999379940331" lon="8.689893018454313">
        <ele>171</ele>
        <time>2010-01-01T02:09:12Z</time>
      </trkpt>
      <trkpt lat="51.658353041857481" lon="8.692089999094605">
        <ele>177</ele>
        <time>2010-01-01T02:10:37Z</time>
      </trkpt>
      <trkpt lat="51.658271905034781" lon="8.692193012684584">
        <ele>177</ele>
        <time>2010-01-01T02:10:41Z</time>
      </trkpt>
      <trkpt lat="51.658223792910576" lon="8.69220701046288">
        <ele>177</ele>
        <time>2010-01-01T02:10:43Z</time>
      </trkpt>
      <trkpt lat="51.658171908929944" lon="8.692183960229158">
        <ele>177</ele>
        <time>2010-01-01T02:10:45Z</time>
      </trkpt>
      <trkpt lat="51.656198808923364" lon="8.690614029765129">
        <ele>178</ele>
        <time>2010-01-01T02:12:14Z</time>
      </trkpt>
      <trkpt lat="51.65253683924675" lon="8.687642812728882">
        <ele>175</ele>
        <time>2010-01-01T02:14:58Z</time>
      </trkpt>
      <trkpt lat="51.64892490953207" lon="8.68498700670898">
        <ele>175</ele>
        <time>2010-01-01T02:17:37Z</time>
      </trkpt>
      <trkpt lat="51.64888090454042" lon="8.684931015595794">
        <ele>175</ele>
        <time>2010-01-01T02:17:39Z</time>
      </trkpt>
      <trkpt lat="51.648847796022892" lon="8.68485901504755">
        <ele>176</ele>
        <time>2010-01-01T02:17:41Z</time>
      </trkpt>
      <trkpt lat="51.648829020559788" lon="8.68477201089263">
        <ele>176</ele>
        <time>2010-01-01T02:17:43Z</time>
      </trkpt>
      <trkpt lat="51.648688791319728" lon="8.683975981548429">
        <ele>177</ele>
        <time>2010-01-01T02:18:04Z</time>
      </trkpt>
      <trkpt lat="51.648372793570161" lon="8.681715968996286">
        <ele>181</ele>
        <time>2010-01-01T02:19:01Z</time>
      </trkpt>
      <trkpt lat="51.648010108619928" lon="8.67944598197937">
        <ele>180</ele>
        <time>2010-01-01T02:20:00Z</time>
      </trkpt>
      <trkpt lat="51.647541811689734" lon="8.677588971331716">
        <ele>180</ele>
        <time>2010-01-01T02:20:49Z</time>
      </trkpt>
      <trkpt lat="51.646879808977246" lon="8.675408000126481">
        <ele>180</ele>
        <time>2010-01-01T02:21:50Z</time>
      </trkpt>
      <trkpt lat="51.646683001890779" lon="8.674811040982604">
        <ele>179</ele>
        <time>2010-01-01T02:22:07Z</time>
      </trkpt>
      <trkpt lat="51.645463015884161" lon="8.671519970521331">
        <ele>180</ele>
        <time>2010-01-01T02:23:42Z</time>
      </trkpt>
      <trkpt lat="51.644681403413415" lon="8.669607639312744">
        <ele>180</ele>
        <time>2010-01-01T02:24:39Z</time>
      </trkpt>
      <trkpt lat="51.643899036571383" lon="8.668077019974589">
        <ele>181</ele>
        <time>2010-01-01T02:25:28Z</time>
      </trkpt>
      <trkpt lat="51.643864000216126" lon="8.668038966134191">
        <ele>181</ele>
        <time>2010-01-01T02:25:30Z</time>
      </trkpt>
      <trkpt lat="51.64381580427289" lon="8.668040977790952">
        <ele>181</ele>
        <time>2010-01-01T02:25:31Z</time>
      </trkpt>
      <trkpt lat="51.64376400411129" lon="8.668071990832686">
        <ele>181</ele>
        <time>2010-01-01T02:25:34Z</time>
      </trkpt>
      <trkpt lat="51.643478013575077" lon="8.668347001075745">
        <ele>183</ele>
        <time>2010-01-01T02:25:47Z</time>
      </trkpt>
      <trkpt lat="51.64316981099546" lon="8.668690994381905">
        <ele>184</ele>
        <time>2010-01-01T02:26:02Z</time>
      </trkpt>
      <trkpt lat="51.64311901666224" lon="8.668712032958865">
        <ele>184</ele>
        <time>2010-01-01T02:26:04Z</time>
      </trkpt>
      <trkpt lat="51.643066797405481" lon="8.668692000210285">
        <ele>184</ele>
        <time>2010-01-01T02:26:06Z</time>
      </trkpt>
      <trkpt lat="51.643020026385784" lon="8.668639026582241">
        <ele>184</ele>
        <time>2010-01-01T02:26:09Z</time>
      </trkpt>
      <trkpt lat="51.642438909038901" lon="8.667614003643394">
        <ele>184</ele>
        <time>2010-01-01T02:26:43Z</time>
      </trkpt>
      <trkpt lat="51.642422815784812" lon="8.667522976174951">
        <ele>184</ele>
        <time>2010-01-01T02:26:45Z</time>
      </trkpt>
      <trkpt lat="51.642442010343075" lon="8.667123997583985">
        <ele>184</ele>
        <time>2010-01-01T02:26:55Z</time>
      </trkpt>
      <trkpt lat="51.642650803551078" lon="8.666220009326935">
        <ele>182</ele>
        <time>2010-01-01T02:27:19Z</time>
      </trkpt>
      <trkpt lat="51.642703022807837" lon="8.666083971038461">
        <ele>182</ele>
        <time>2010-01-01T02:27:23Z</time>
      </trkpt>
      <trkpt lat="51.642709812149405" lon="8.665991015732288">
        <ele>182</ele>
        <time>2010-01-01T02:27:26Z</time>
      </trkpt>
      <trkpt lat="51.642692796885967" lon="8.66595396772027">
        <ele>182</ele>
        <time>2010-01-01T02:27:27Z</time>
      </trkpt>
      <trkpt lat="51.642625909298658" lon="8.665894037112594">
        <ele>182</ele>
        <time>2010-01-01T02:27:30Z</time>
      </trkpt>
      <trkpt lat="51.64193800650537" lon="8.665512995794416">
        <ele>183</ele>
        <time>2010-01-01T02:27:59Z</time>
      </trkpt>
      <trkpt lat="51.641887798905373" lon="8.665465973317623">
        <ele>183</ele>
        <time>2010-01-01T02:28:01Z</time>
      </trkpt>
      <trkpt lat="51.641805907711387" lon="8.665339993312955">
        <ele>183</ele>
        <time>2010-01-01T02:28:06Z</time>
      </trkpt>
      <trkpt lat="51.641758801415563" lon="8.665302023291588">
        <ele>183</ele>
        <time>2010-01-01T02:28:08Z</time>
      </trkpt>
      <trkpt lat="51.641707001253963" lon="8.66530898027122">
        <ele>183</ele>
        <time>2010-01-01T02:28:10Z</time>
      </trkpt>
      <trkpt lat="51.641666013747454" lon="8.66535197943449">
        <ele>183</ele>
        <time>2010-01-01T02:28:12Z</time>
      </trkpt>
      <trkpt lat="51.641611028462648" lon="8.665711982175708">
        <ele>184</ele>
        <time>2010-01-01T02:28:21Z</time>
      </trkpt>
      <trkpt lat="51.641539027914405" lon="8.665881967172027">
        <ele>184</ele>
        <time>2010-01-01T02:28:26Z</time>
      </trkpt>
      <trkpt lat="51.640968807041645" lon="8.66681001149118">
        <ele>186</ele>
        <time>2010-01-01T02:28:59Z</time>
      </trkpt>
      <trkpt lat="51.640752805396914" lon="8.667003968730569">
        <ele>186</ele>
        <time>2010-01-01T02:29:09Z</time>
      </trkpt>
      <trkpt lat="51.639809003099799" lon="8.667725985869765">
        <ele>188</ele>
        <time>2010-01-01T02:29:50Z</time>
      </trkpt>
      <trkpt lat="51.637870101258159" lon="8.669253587722778">
        <ele>192</ele>
        <time>2010-01-01T02:31:17Z</time>
      </trkpt>
      <trkpt lat="51.637525018304586" lon="8.669667989015579">
        <ele>191</ele>
        <time>2010-01-01T02:31:34Z</time>
      </trkpt>
      <trkpt lat="51.636568810790777" lon="8.670846987515688">
        <ele>189</ele>
        <time>2010-01-01T02:32:22Z</time>
      </trkpt>
      <trkpt lat="51.636092215776443" lon="8.671560287475586">
        <ele>189</ele>
        <time>2010-01-01T02:32:48Z</time>
      </trkpt>
      <trkpt lat="51.635606903582811" lon="8.672904996201396">
        <ele>187</ele>
        <time>2010-01-01T02:33:27Z</time>
      </trkpt>
      <trkpt lat="51.635043807327747" lon="8.674089023843408">
        <ele>184</ele>
        <time>2010-01-01T02:34:04Z</time>
      </trkpt>
      <trkpt lat="51.63469503633678" lon="8.674572994932532">
        <ele>182</ele>
        <time>2010-01-01T02:34:22Z</time>
      </trkpt>
      <trkpt lat="51.634135795757174" lon="8.675245977938175">
        <ele>177</ele>
        <time>2010-01-01T02:34:50Z</time>
      </trkpt>
      <trkpt lat="51.634064801037312" lon="8.675363995134831">
        <ele>177</ele>
        <time>2010-01-01T02:34:54Z</time>
      </trkpt>
      <trkpt lat="51.634010905399919" lon="8.675498021766543">
        <ele>176</ele>
        <time>2010-01-01T02:34:58Z</time>
      </trkpt>
      <trkpt lat="51.633949801325798" lon="8.675816031172872">
        <ele>174</ele>
        <time>2010-01-01T02:35:07Z</time>
      </trkpt>
      <trkpt lat="51.633919794112444" lon="8.676192965358496">
        <ele>172</ele>
        <time>2010-01-01T02:35:16Z</time>
      </trkpt>
      <trkpt lat="51.633708402514458" lon="8.677343130111694">
        <ele>168</ele>
        <time>2010-01-01T02:35:46Z</time>
      </trkpt>
      <trkpt lat="51.633706809952855" lon="8.678116025403142">
        <ele>167</ele>
        <time>2010-01-01T02:36:05Z</time>
      </trkpt>
      <trkpt lat="51.633685017004609" lon="8.678249968215823">
        <ele>167</ele>
        <time>2010-01-01T02:36:09Z</time>
      </trkpt>
      <trkpt lat="51.633521905168891" lon="8.678351640701294">
        <ele>166</ele>
        <time>2010-01-01T02:36:16Z</time>
      </trkpt>
      <trkpt lat="51.633275393396616" lon="8.67821216583252">
        <ele>166</ele>
        <time>2010-01-01T02:36:26Z</time>
      </trkpt>
      <trkpt lat="51.632949085906148" lon="8.678308725357056">
        <ele>166</ele>
        <time>2010-01-01T02:36:39Z</time>
      </trkpt>
      <trkpt lat="51.632668795064092" lon="8.67852296680212">
        <ele>166</ele>
        <time>2010-01-01T02:36:52Z</time>
      </trkpt>
      <trkpt lat="51.632576007395983" lon="8.678569989278913">
        <ele>165</ele>
        <time>2010-01-01T02:36:56Z</time>
      </trkpt>
      <trkpt lat="51.631891038268805" lon="8.678807029500604">
        <ele>163</ele>
        <time>2010-01-01T02:37:24Z</time>
      </trkpt>
      <trkpt lat="51.631320901215076" lon="8.678958993405104">
        <ele>162</ele>
        <time>2010-01-01T02:37:47Z</time>
      </trkpt>
      <trkpt lat="51.631137002259493" lon="8.679021019488573">
        <ele>162</ele>
        <time>2010-01-01T02:37:54Z</time>
      </trkpt>
      <trkpt lat="51.630482794716954" lon="8.679408011958003">
        <ele>160</ele>
        <time>2010-01-01T02:38:22Z</time>
      </trkpt>
      <trkpt lat="51.629777792841196" lon="8.680005976930261">
        <ele>158</ele>
        <time>2010-01-01T02:38:54Z</time>
      </trkpt>
      <trkpt lat="51.62876701913774" lon="8.681478006765246">
        <ele>155</ele>
        <time>2010-01-01T02:39:49Z</time>
      </trkpt>
      <trkpt lat="51.628220686689019" lon="8.682546615600586">
        <ele>153</ele>
        <time>2010-01-01T02:40:23Z</time>
      </trkpt>
      <trkpt lat="51.627892032265663" lon="8.683436019346118">
        <ele>154</ele>
        <time>2010-01-01T02:40:49Z</time>
      </trkpt>
      <trkpt lat="51.627835035324097" lon="8.68352604098618">
        <ele>154</ele>
        <time>2010-01-01T02:40:52Z</time>
      </trkpt>
      <trkpt lat="51.627768902108073" lon="8.683593012392521">
        <ele>154</ele>
        <time>2010-01-01T02:40:55Z</time>
      </trkpt>
      <trkpt lat="51.62769690155983" lon="8.683616984635592">
        <ele>155</ele>
        <time>2010-01-01T02:40:58Z</time>
      </trkpt>
      <trkpt lat="51.627276800572872" lon="8.683472983539105">
        <ele>158</ele>
        <time>2010-01-01T02:41:15Z</time>
      </trkpt>
      <trkpt lat="51.627211002632976" lon="8.683460997417569">
        <ele>158</ele>
        <time>2010-01-01T02:41:18Z</time>
      </trkpt>
      <trkpt lat="51.627091811969876" lon="8.683468960225582">
        <ele>159</ele>
        <time>2010-01-01T02:41:23Z</time>
      </trkpt>
      <trkpt lat="51.626506000757217" lon="8.683753022924066">
        <ele>160</ele>
        <time>2010-01-01T02:41:47Z</time>
      </trkpt>
      <trkpt lat="51.626269798725843" lon="8.68378696963191">
        <ele>161</ele>
        <time>2010-01-01T02:41:57Z</time>
      </trkpt>
      <trkpt lat="51.626224033534527" lon="8.683781018480659">
        <ele>161</ele>
        <time>2010-01-01T02:41:59Z</time>
      </trkpt>
      <trkpt lat="51.626041810959578" lon="8.683725027367473">
        <ele>163</ele>
        <time>2010-01-01T02:42:06Z</time>
      </trkpt>
      <trkpt lat="51.625866796821356" lon="8.683602986857295">
        <ele>164</ele>
        <time>2010-01-01T02:42:14Z</time>
      </trkpt>
      <trkpt lat="51.625751797109842" lon="8.683454962447286">
        <ele>165</ele>
        <time>2010-01-01T02:42:19Z</time>
      </trkpt>
      <trkpt lat="51.625669905915856" lon="8.683254718780518">
        <ele>166</ele>
        <time>2010-01-01T02:42:25Z</time>
      </trkpt>
      <trkpt lat="51.625583404675126" lon="8.682589530944824">
        <ele>170</ele>
        <time>2010-01-01T02:42:42Z</time>
      </trkpt>
      <trkpt lat="51.625449797138572" lon="8.682114025577903">
        <ele>171</ele>
        <time>2010-01-01T02:42:55Z</time>
      </trkpt>
      <trkpt lat="51.625392800197005" lon="8.681972958147526">
        <ele>172</ele>
        <time>2010-01-01T02:42:59Z</time>
      </trkpt>
      <trkpt lat="51.625320799648762" lon="8.681844966486096">
        <ele>172</ele>
        <time>2010-01-01T02:43:04Z</time>
      </trkpt>
      <trkpt lat="51.623020805418491" lon="8.678937032818794">
        <ele>184</ele>
        <time>2010-01-01T02:45:01Z</time>
      </trkpt>
      <trkpt lat="51.622168030589819" lon="8.67809196934104">
        <ele>185</ele>
        <time>2010-01-01T02:45:41Z</time>
      </trkpt>
      <trkpt lat="51.621402008458972" lon="8.677364001050592">
        <ele>185</ele>
        <time>2010-01-01T02:46:16Z</time>
      </trkpt>
      <trkpt lat="51.620096024125814" lon="8.67615801282227">
        <ele>195</ele>
        <time>2010-01-01T02:47:17Z</time>
      </trkpt>
      <trkpt lat="51.619496801868081" lon="8.675559964030981">
        <ele>203</ele>
        <time>2010-01-01T02:47:45Z</time>
      </trkpt>
      <trkpt lat="51.618556017056108" lon="8.674015011638403">
        <ele>206</ele>
        <time>2010-01-01T02:48:39Z</time>
      </trkpt>
      <trkpt lat="51.616969909518957" lon="8.671517036855221">
        <ele>217</ele>
        <time>2010-01-01T02:50:08Z</time>
      </trkpt>
      <trkpt lat="51.615465106442571" lon="8.669028282165527">
        <ele>224</ele>
        <time>2010-01-01T02:51:34Z</time>
      </trkpt>
      <trkpt lat="51.611867509782314" lon="8.666667938232422">
        <ele>238</ele>
        <time>2010-01-01T02:54:09Z</time>
      </trkpt>
      <trkpt lat="51.608742736279964" lon="8.664543628692627">
        <ele>235</ele>
        <time>2010-01-01T02:56:25Z</time>
      </trkpt>
      <trkpt lat="51.608469402417541" lon="8.664414882659912">
        <ele>235</ele>
        <time>2010-01-01T02:56:37Z</time>
      </trkpt>
      <trkpt lat="51.608269494026899" lon="8.664007186889648">
        <ele>233</ele>
        <time>2010-01-01T02:56:49Z</time>
      </trkpt>
      <trkpt lat="51.60814980044961" lon="8.663684986531735">
        <ele>233</ele>
        <time>2010-01-01T02:56:59Z</time>
      </trkpt>
      <trkpt lat="51.60805600695312" lon="8.663513995707035">
        <ele>232</ele>
        <time>2010-01-01T02:57:04Z</time>
      </trkpt>
      <trkpt lat="51.607799017801881" lon="8.662902032956481">
        <ele>232</ele>
        <time>2010-01-01T02:57:23Z</time>
      </trkpt>
      <trkpt lat="51.607494000345469" lon="8.662293003872037">
        <ele>232</ele>
        <time>2010-01-01T02:57:42Z</time>
      </trkpt>
      <trkpt lat="51.607354022562504" lon="8.661938030272722">
        <ele>232</ele>
        <time>2010-01-01T02:57:53Z</time>
      </trkpt>
      <trkpt lat="51.607233909890056" lon="8.661707025021315">
        <ele>231</ele>
        <time>2010-01-01T02:58:00Z</time>
      </trkpt>
      <trkpt lat="51.606815904378891" lon="8.660789038985968">
        <ele>230</ele>
        <time>2010-01-01T02:58:29Z</time>
      </trkpt>
      <trkpt lat="51.606733007356524" lon="8.660573037341237">
        <ele>230</ele>
        <time>2010-01-01T02:58:35Z</time>
      </trkpt>
      <trkpt lat="51.606431007385254" lon="8.65976401604712">
        <ele>230</ele>
        <time>2010-01-01T02:58:58Z</time>
      </trkpt>
      <trkpt lat="51.606152812018991" lon="8.658951977267861">
        <ele>230</ele>
        <time>2010-01-01T02:59:21Z</time>
      </trkpt>
      <trkpt lat="51.606106040999293" lon="8.658874025568366">
        <ele>230</ele>
        <time>2010-01-01T02:59:24Z</time>
      </trkpt>
      <trkpt lat="51.606042003259063" lon="8.658821973949671">
        <ele>230</ele>
        <time>2010-01-01T02:59:27Z</time>
      </trkpt>
      <trkpt lat="51.605992801487446" lon="8.658874025568366">
        <ele>230</ele>
        <time>2010-01-01T02:59:29Z</time>
      </trkpt>
      <trkpt lat="51.605786019936204" lon="8.659508032724261">
        <ele>232</ele>
        <time>2010-01-01T02:59:47Z</time>
      </trkpt>
      <trkpt lat="51.605512015521526" lon="8.660042965784669">
        <ele>234</ele>
        <time>2010-01-01T03:00:04Z</time>
      </trkpt>
      <trkpt lat="51.605074815452099" lon="8.660828014835715">
        <ele>236</ele>
        <time>2010-01-01T03:00:31Z</time>
      </trkpt>
      <trkpt lat="51.604096814990044" lon="8.662505988031626">
        <ele>241</ele>
        <time>2010-01-01T03:01:28Z</time>
      </trkpt>
      <trkpt lat="51.603645030409098" lon="8.66320101544261">
        <ele>241</ele>
        <time>2010-01-01T03:01:53Z</time>
      </trkpt>
      <trkpt lat="51.603307910263538" lon="8.663603011518717">
        <ele>241</ele>
        <time>2010-01-01T03:02:10Z</time>
      </trkpt>
      <trkpt lat="51.603104900568724" lon="8.663811972364783">
        <ele>242</ele>
        <time>2010-01-01T03:02:19Z</time>
      </trkpt>
      <trkpt lat="51.602291017770767" lon="8.664553016424179">
        <ele>245</ele>
        <time>2010-01-01T03:02:57Z</time>
      </trkpt>
      <trkpt lat="51.602045008912683" lon="8.664844036102295">
        <ele>246</ele>
        <time>2010-01-01T03:03:09Z</time>
      </trkpt>
      <trkpt lat="51.601176811382174" lon="8.666174998506904">
        <ele>249</ele>
        <time>2010-01-01T03:03:57Z</time>
      </trkpt>
      <trkpt lat="51.601031804457307" lon="8.666440034285188">
        <ele>250</ele>
        <time>2010-01-01T03:04:06Z</time>
      </trkpt>
      <trkpt lat="51.600663000717759" lon="8.666985025629401">
        <ele>251</ele>
        <time>2010-01-01T03:04:26Z</time>
      </trkpt>
      <trkpt lat="51.598038794472814" lon="8.670396963134408">
        <ele>259</ele>
        <time>2010-01-01T03:06:41Z</time>
      </trkpt>
      <trkpt lat="51.597435800358653" lon="8.671201961115003">
        <ele>261</ele>
        <time>2010-01-01T03:07:12Z</time>
      </trkpt>
      <trkpt lat="51.596388900652528" lon="8.672970039770007">
        <ele>264</ele>
        <time>2010-01-01T03:08:13Z</time>
      </trkpt>
      <trkpt lat="51.596134006977081" lon="8.673436995595694">
        <ele>264</ele>
        <time>2010-01-01T03:08:28Z</time>
      </trkpt>
      <trkpt lat="51.596076004207134" lon="8.673620978370309">
        <ele>264</ele>
        <time>2010-01-01T03:08:33Z</time>
      </trkpt>
      <trkpt lat="51.595933008939028" lon="8.674477022141218">
        <ele>265</ele>
        <time>2010-01-01T03:08:55Z</time>
      </trkpt>
      <trkpt lat="51.595852039754391" lon="8.674666034057736">
        <ele>266</ele>
        <time>2010-01-01T03:09:01Z</time>
      </trkpt>
      <trkpt lat="51.595729915425181" lon="8.674810035154223">
        <ele>266</ele>
        <time>2010-01-01T03:09:07Z</time>
      </trkpt>
      <trkpt lat="51.594528537243605" lon="8.675723075866699">
        <ele>270</ele>
        <time>2010-01-01T03:10:00Z</time>
      </trkpt>
      <trkpt lat="51.593339815735817" lon="8.676799982786179">
        <ele>261</ele>
        <time>2010-01-01T03:10:55Z</time>
      </trkpt>
      <trkpt lat="51.593043012544513" lon="8.677062001079321">
        <ele>254</ele>
        <time>2010-01-01T03:11:09Z</time>
      </trkpt>
      <trkpt lat="51.592888031154871" lon="8.677216982468963">
        <ele>251</ele>
        <time>2010-01-01T03:11:16Z</time>
      </trkpt>
      <trkpt lat="51.592834806069732" lon="8.677302980795503">
        <ele>249</ele>
        <time>2010-01-01T03:11:19Z</time>
      </trkpt>
      <trkpt lat="51.592808905988932" lon="8.677427032962441">
        <ele>247</ele>
        <time>2010-01-01T03:11:22Z</time>
      </trkpt>
      <trkpt lat="51.592807900160551" lon="8.677555024623871">
        <ele>246</ele>
        <time>2010-01-01T03:11:25Z</time>
      </trkpt>
      <trkpt lat="51.592835811898112" lon="8.677672035992146">
        <ele>245</ele>
        <time>2010-01-01T03:11:28Z</time>
      </trkpt>
      <trkpt lat="51.592890797182918" lon="8.677751999348402">
        <ele>245</ele>
        <time>2010-01-01T03:11:31Z</time>
      </trkpt>
      <trkpt lat="51.592966904863715" lon="8.677799021825194">
        <ele>244</ele>
        <time>2010-01-01T03:11:35Z</time>
      </trkpt>
      <trkpt lat="51.593147031962872" lon="8.677830034866929">
        <ele>243</ele>
        <time>2010-01-01T03:11:42Z</time>
      </trkpt>
      <trkpt lat="51.593526815995574" lon="8.677969006821513">
        <ele>240</ele>
        <time>2010-01-01T03:11:57Z</time>
      </trkpt>
      <trkpt lat="51.593610802665353" lon="8.678052993491292">
        <ele>239</ele>
        <time>2010-01-01T03:12:01Z</time>
      </trkpt>
      <trkpt lat="51.59377290867269" lon="8.678288022056222">
        <ele>237</ele>
        <time>2010-01-01T03:12:10Z</time>
      </trkpt>
      <trkpt lat="51.593862008303404" lon="8.678386006504297">
        <ele>238</ele>
        <time>2010-01-01T03:12:14Z</time>
      </trkpt>
      <trkpt lat="51.593964016065001" lon="8.678447026759386">
        <ele>238</ele>
        <time>2010-01-01T03:12:19Z</time>
      </trkpt>
      <trkpt lat="51.594069795683026" lon="8.678459012880921">
        <ele>238</ele>
        <time>2010-01-01T03:12:23Z</time>
      </trkpt>
      <trkpt lat="51.594171803444624" lon="8.678440991789103">
        <ele>238</ele>
        <time>2010-01-01T03:12:27Z</time>
      </trkpt>
      <trkpt lat="51.594376908615232" lon="8.678288022056222">
        <ele>235</ele>
        <time>2010-01-01T03:12:36Z</time>
      </trkpt>
      <trkpt lat="51.594483023509383" lon="8.678228007629514">
        <ele>234</ele>
        <time>2010-01-01T03:12:41Z</time>
      </trkpt>
      <trkpt lat="51.594586791470647" lon="8.678188025951386">
        <ele>234</ele>
        <time>2010-01-01T03:12:45Z</time>
      </trkpt>
      <trkpt lat="51.594693912193179" lon="8.678174028173089">
        <ele>233</ele>
        <time>2010-01-01T03:12:49Z</time>
      </trkpt>
      <trkpt lat="51.594902034848928" lon="8.678207974880934">
        <ele>232</ele>
        <time>2010-01-01T03:12:58Z</time>
      </trkpt>
      <trkpt lat="51.595098003745079" lon="8.678289027884603">
        <ele>231</ele>
        <time>2010-01-01T03:13:06Z</time>
      </trkpt>
      <trkpt lat="51.595285004004836" lon="8.678400004282594">
        <ele>231</ele>
        <time>2010-01-01T03:13:14Z</time>
      </trkpt>
      <trkpt lat="51.595367901027203" lon="8.678495977073908">
        <ele>232</ele>
        <time>2010-01-01T03:13:18Z</time>
      </trkpt>
      <trkpt lat="51.595516009256244" lon="8.678727988153696">
        <ele>232</ele>
        <time>2010-01-01T03:13:26Z</time>
      </trkpt>
      <trkpt lat="51.595990005880594" lon="8.679651003330946">
        <ele>234</ele>
        <time>2010-01-01T03:13:56Z</time>
      </trkpt>
      <trkpt lat="51.596427792683244" lon="8.680904014036059">
        <ele>235</ele>
        <time>2010-01-01T03:14:32Z</time>
      </trkpt>
      <trkpt lat="51.596770025789738" lon="8.681988967582583">
        <ele>238</ele>
        <time>2010-01-01T03:15:02Z</time>
      </trkpt>
      <trkpt lat="51.596781006082892" lon="8.682071026414633">
        <ele>238</ele>
        <time>2010-01-01T03:15:04Z</time>
      </trkpt>
      <trkpt lat="51.596752004697919" lon="8.682231958955526">
        <ele>240</ele>
        <time>2010-01-01T03:15:08Z</time>
      </trkpt>
      <trkpt lat="51.596716800704598" lon="8.682276969775558">
        <ele>241</ele>
        <time>2010-01-01T03:15:10Z</time>
      </trkpt>
      <trkpt lat="51.596672795712948" lon="8.682275963947177">
        <ele>242</ele>
        <time>2010-01-01T03:15:12Z</time>
      </trkpt>
      <trkpt lat="51.596630802378058" lon="8.682246040552855">
        <ele>243</ele>
        <time>2010-01-01T03:15:14Z</time>
      </trkpt>
      <trkpt lat="51.596598029136658" lon="8.682197006419301">
        <ele>243</ele>
        <time>2010-01-01T03:15:15Z</time>
      </trkpt>
      <trkpt lat="51.595992017537355" lon="8.681075004860759">
        <ele>247</ele>
        <time>2010-01-01T03:15:52Z</time>
      </trkpt>
      <trkpt lat="51.5959258005023" lon="8.681006021797657">
        <ele>248</ele>
        <time>2010-01-01T03:15:56Z</time>
      </trkpt>
      <trkpt lat="51.595887914299965" lon="8.681007027626038">
        <ele>249</ele>
        <time>2010-01-01T03:15:57Z</time>
      </trkpt>
      <trkpt lat="51.59585690125823" lon="8.681037034839392">
        <ele>250</ele>
        <time>2010-01-01T03:15:58Z</time>
      </trkpt>
      <trkpt lat="51.595837790518999" lon="8.681089002639055">
        <ele>251</ele>
        <time>2010-01-01T03:16:00Z</time>
      </trkpt>
      <trkpt lat="51.595837790518999" lon="8.681152034550905">
        <ele>252</ele>
        <time>2010-01-01T03:16:02Z</time>
      </trkpt>
      <trkpt lat="51.595862014219165" lon="8.681285977363586">
        <ele>253</ele>
        <time>2010-01-01T03:16:05Z</time>
      </trkpt>
      <trkpt lat="51.595975002273917" lon="8.681629970669746">
        <ele>253</ele>
        <time>2010-01-01T03:16:15Z</time>
      </trkpt>
      <trkpt lat="51.596031915396452" lon="8.681861981749535">
        <ele>253</ele>
        <time>2010-01-01T03:16:21Z</time>
      </trkpt>
      <trkpt lat="51.596042811870575" lon="8.682020986452699">
        <ele>253</ele>
        <time>2010-01-01T03:16:25Z</time>
      </trkpt>
      <trkpt lat="51.596024036407471" lon="8.682179991155863">
        <ele>254</ele>
        <time>2010-01-01T03:16:29Z</time>
      </trkpt>
      <trkpt lat="51.595881292596459" lon="8.682922124862671">
        <ele>258</ele>
        <time>2010-01-01T03:16:48Z</time>
      </trkpt>
      <trkpt lat="51.595621537417173" lon="8.683480024337769">
        <ele>259</ele>
        <time>2010-01-01T03:17:06Z</time>
      </trkpt>
      <trkpt lat="51.595454905182123" lon="8.683769702911377">
        <ele>260</ele>
        <time>2010-01-01T03:17:15Z</time>
      </trkpt>
      <trkpt lat="51.595266815274954" lon="8.683947985991836">
        <ele>260</ele>
        <time>2010-01-01T03:17:24Z</time>
      </trkpt>
      <trkpt lat="51.594930030405521" lon="8.684188965708017">
        <ele>261</ele>
        <time>2010-01-01T03:17:39Z</time>
      </trkpt>
      <trkpt lat="51.594880912452936" lon="8.684203969314694">
        <ele>261</ele>
        <time>2010-01-01T03:17:41Z</time>
      </trkpt>
      <trkpt lat="51.594732804223895" lon="8.684231964871287">
        <ele>261</ele>
        <time>2010-01-01T03:17:47Z</time>
      </trkpt>
      <trkpt lat="51.594069795683026" lon="8.684268007054925">
        <ele>261</ele>
        <time>2010-01-01T03:18:13Z</time>
      </trkpt>
      <trkpt lat="51.59348901361227" lon="8.684356017038226">
        <ele>264</ele>
        <time>2010-01-01T03:18:37Z</time>
      </trkpt>
      <trkpt lat="51.593283908441663" lon="8.684423994272947">
        <ele>264</ele>
        <time>2010-01-01T03:18:45Z</time>
      </trkpt>
      <trkpt lat="51.593044018372893" lon="8.684584004804492">
        <ele>266</ele>
        <time>2010-01-01T03:18:56Z</time>
      </trkpt>
      <trkpt lat="51.592409005388618" lon="8.685208037495613">
        <ele>269</ele>
        <time>2010-01-01T03:19:25Z</time>
      </trkpt>
      <trkpt lat="51.591930901631713" lon="8.685752023011446">
        <ele>271</ele>
        <time>2010-01-01T03:19:49Z</time>
      </trkpt>
      <trkpt lat="51.590736815705895" lon="8.687228998169303">
        <ele>277</ele>
        <time>2010-01-01T03:20:49Z</time>
      </trkpt>
      <trkpt lat="51.590165002271533" lon="8.687824029475451">
        <ele>279</ele>
        <time>2010-01-01T03:21:16Z</time>
      </trkpt>
      <trkpt lat="51.589935002848506" lon="8.688032990321517">
        <ele>279</ele>
        <time>2010-01-01T03:21:27Z</time>
      </trkpt>
      <trkpt lat="51.589404009282589" lon="8.688438003882766">
        <ele>282</ele>
        <time>2010-01-01T03:21:50Z</time>
      </trkpt>
      <trkpt lat="51.589043000712991" lon="8.688659034669399">
        <ele>284</ele>
        <time>2010-01-01T03:22:06Z</time>
      </trkpt>
      <trkpt lat="51.588733792304993" lon="8.688822984695435">
        <ele>285</ele>
        <time>2010-01-01T03:22:19Z</time>
      </trkpt>
      <trkpt lat="51.588664809241891" lon="8.688882999122143">
        <ele>286</ele>
        <time>2010-01-01T03:22:22Z</time>
      </trkpt>
      <trkpt lat="51.587813040241599" lon="8.689432013779879">
        <ele>290</ele>
        <time>2010-01-01T03:22:59Z</time>
      </trkpt>
      <trkpt lat="51.587388915941119" lon="8.68973895907402">
        <ele>291</ele>
        <time>2010-01-01T03:23:17Z</time>
      </trkpt>
      <trkpt lat="51.587169812992215" lon="8.689949009567499">
        <ele>292</ele>
        <time>2010-01-01T03:23:28Z</time>
      </trkpt>
      <trkpt lat="51.58676203340292" lon="8.690472040325403">
        <ele>292</ele>
        <time>2010-01-01T03:23:48Z</time>
      </trkpt>
      <trkpt lat="51.586048901081085" lon="8.691549031063914">
        <ele>294</ele>
        <time>2010-01-01T03:24:28Z</time>
      </trkpt>
      <trkpt lat="51.584962019696832" lon="8.693047966808081">
        <ele>298</ele>
        <time>2010-01-01T03:25:25Z</time>
      </trkpt>
      <trkpt lat="51.584460027515888" lon="8.693768978118897">
        <ele>300</ele>
        <time>2010-01-01T03:25:52Z</time>
      </trkpt>
      <trkpt lat="51.584251904860139" lon="8.6940330080688">
        <ele>301</ele>
        <time>2010-01-01T03:26:02Z</time>
      </trkpt>
      <trkpt lat="51.583796013146639" lon="8.694663997739554">
        <ele>305</ele>
        <time>2010-01-01T03:26:26Z</time>
      </trkpt>
      <trkpt lat="51.58238391391933" lon="8.696468034759164">
        <ele>326</ele>
        <time>2010-01-01T03:27:39Z</time>
      </trkpt>
      <trkpt lat="51.582215018570423" lon="8.696662997826934">
        <ele>325</ele>
        <time>2010-01-01T03:27:47Z</time>
      </trkpt>
      <trkpt lat="51.581851914525032" lon="8.69714898057282">
        <ele>320</ele>
        <time>2010-01-01T03:28:06Z</time>
      </trkpt>
      <trkpt lat="51.581082791090012" lon="8.698142990469933">
        <ele>319</ele>
        <time>2010-01-01T03:28:45Z</time>
      </trkpt>
      <trkpt lat="51.580624803900719" lon="8.698711032047868">
        <ele>322</ele>
        <time>2010-01-01T03:29:09Z</time>
      </trkpt>
      <trkpt lat="51.579952910542488" lon="8.699591970071197">
        <ele>327</ele>
        <time>2010-01-01T03:29:43Z</time>
      </trkpt>
      <trkpt lat="51.579751912504435" lon="8.699805038049817">
        <ele>327</ele>
        <time>2010-01-01T03:29:53Z</time>
      </trkpt>
      <trkpt lat="51.579167023301125" lon="8.700491013005376">
        <ele>328</ele>
        <time>2010-01-01T03:30:22Z</time>
      </trkpt>
      <trkpt lat="51.578743904829025" lon="8.701105993241072">
        <ele>328</ele>
        <time>2010-01-01T03:30:45Z</time>
      </trkpt>
      <trkpt lat="51.578302010893822" lon="8.701952984556556">
        <ele>329</ele>
        <time>2010-01-01T03:31:12Z</time>
      </trkpt>
      <trkpt lat="51.577775795012712" lon="8.703045984730125">
        <ele>329</ele>
        <time>2010-01-01T03:31:47Z</time>
      </trkpt>
      <trkpt lat="51.577688790857792" lon="8.703286964446306">
        <ele>329</ele>
        <time>2010-01-01T03:31:53Z</time>
      </trkpt>
      <trkpt lat="51.577645037323236" lon="8.703469019383192">
        <ele>328</ele>
        <time>2010-01-01T03:31:58Z</time>
      </trkpt>
      <trkpt lat="51.577534815296531" lon="8.704132027924061">
        <ele>325</ele>
        <time>2010-01-01T03:32:15Z</time>
      </trkpt>
      <trkpt lat="51.577417803928256" lon="8.704638965427876">
        <ele>324</ele>
        <time>2010-01-01T03:32:29Z</time>
      </trkpt>
      <trkpt lat="51.577370027080178" lon="8.704742984846234">
        <ele>324</ele>
        <time>2010-01-01T03:32:32Z</time>
      </trkpt>
      <trkpt lat="51.577305905520916" lon="8.704826971516013">
        <ele>324</ele>
        <time>2010-01-01T03:32:35Z</time>
      </trkpt>
      <trkpt lat="51.577226025983691" lon="8.70488103479147">
        <ele>323</ele>
        <time>2010-01-01T03:32:39Z</time>
      </trkpt>
      <trkpt lat="51.577137010172009" lon="8.704893020913005">
        <ele>323</ele>
        <time>2010-01-01T03:32:42Z</time>
      </trkpt>
      <trkpt lat="51.576874908059835" lon="8.704829989001155">
        <ele>322</ele>
        <time>2010-01-01T03:32:53Z</time>
      </trkpt>
      <trkpt lat="51.576789915561676" lon="8.70484197512269">
        <ele>322</ele>
        <time>2010-01-01T03:32:56Z</time>
      </trkpt>
      <trkpt lat="51.57670802436769" lon="8.704890003427863">
        <ele>322</ele>
        <time>2010-01-01T03:33:00Z</time>
      </trkpt>
      <trkpt lat="51.576571902260184" lon="8.705065017566085">
        <ele>321</ele>
        <time>2010-01-01T03:33:07Z</time>
      </trkpt>
      <trkpt lat="51.576330000534654" lon="8.705516969785094">
        <ele>319</ele>
        <time>2010-01-01T03:33:22Z</time>
      </trkpt>
      <trkpt lat="51.576002016663551" lon="8.706234963610768">
        <ele>319</ele>
        <time>2010-01-01T03:33:44Z</time>
      </trkpt>
      <trkpt lat="51.5747837908566" lon="8.708693040534854">
        <ele>327</ele>
        <time>2010-01-01T03:35:02Z</time>
      </trkpt>
      <trkpt lat="51.574614811688662" lon="8.709057988598943">
        <ele>329</ele>
        <time>2010-01-01T03:35:13Z</time>
      </trkpt>
      <trkpt lat="51.574519006535411" lon="8.70931196026504">
        <ele>329</ele>
        <time>2010-01-01T03:35:21Z</time>
      </trkpt>
      <trkpt lat="51.574378022924066" lon="8.709786040708423">
        <ele>331</ele>
        <time>2010-01-01T03:35:34Z</time>
      </trkpt>
      <trkpt lat="51.573818027973175" lon="8.712202962487936">
        <ele>336</ele>
        <time>2010-01-01T03:36:38Z</time>
      </trkpt>
      <trkpt lat="51.573189804330468" lon="8.715108968317509">
        <ele>345</ele>
        <time>2010-01-01T03:37:55Z</time>
      </trkpt>
      <trkpt lat="51.572822006419301" lon="8.716492652893066">
        <ele>346</ele>
        <time>2010-01-01T03:38:32Z</time>
      </trkpt>
      <trkpt lat="51.572482036426663" lon="8.717179298400879">
        <ele>347</ele>
        <time>2010-01-01T03:38:54Z</time>
      </trkpt>
      <trkpt lat="51.572108622640371" lon="8.717780113220215">
        <ele>348</ele>
        <time>2010-01-01T03:39:15Z</time>
      </trkpt>
      <trkpt lat="51.571575114503503" lon="8.718595504760742">
        <ele>350</ele>
        <time>2010-01-01T03:39:45Z</time>
      </trkpt>
      <trkpt lat="51.570908082649112" lon="8.719496726989746">
        <ele>353</ele>
        <time>2010-01-01T03:40:19Z</time>
      </trkpt>
      <trkpt lat="51.570201404392719" lon="8.720473051071167">
        <ele>356</ele>
        <time>2010-01-01T03:40:57Z</time>
      </trkpt>
      <trkpt lat="51.570027898997068" lon="8.720848560333252">
        <ele>357</ele>
        <time>2010-01-01T03:41:08Z</time>
      </trkpt>
      <trkpt lat="51.569914491847157" lon="8.721277713775635">
        <ele>358</ele>
        <time>2010-01-01T03:41:20Z</time>
      </trkpt>
      <trkpt lat="51.569854477420449" lon="8.721964359283447">
        <ele>358</ele>
        <time>2010-01-01T03:41:37Z</time>
      </trkpt>
      <trkpt lat="51.569867888465524" lon="8.722972869873047">
        <ele>357</ele>
        <time>2010-01-01T03:42:02Z</time>
      </trkpt>
      <trkpt lat="51.569814495742321" lon="8.724088668823242">
        <ele>355</ele>
        <time>2010-01-01T03:42:30Z</time>
      </trkpt>
      <trkpt lat="51.569707794114947" lon="8.725419044494629">
        <ele>356</ele>
        <time>2010-01-01T03:43:03Z</time>
      </trkpt>
      <trkpt lat="51.5694943908602" lon="8.726835250854492">
        <ele>357</ele>
        <time>2010-01-01T03:43:40Z</time>
      </trkpt>
      <trkpt lat="51.569394394755363" lon="8.727071285247803">
        <ele>358</ele>
        <time>2010-01-01T03:43:47Z</time>
      </trkpt>
      <trkpt lat="51.567920604720712" lon="8.72765064239502">
        <ele>360</ele>
        <time>2010-01-01T03:44:48Z</time>
      </trkpt>
      <trkpt lat="51.567120300605893" lon="8.728122711181641">
        <ele>360</ele>
        <time>2010-01-01T03:45:22Z</time>
      </trkpt>
      <trkpt lat="51.56659341417253" lon="8.728433847427368">
        <ele>361</ele>
        <time>2010-01-01T03:45:44Z</time>
      </trkpt>
      <trkpt lat="51.566313290968537" lon="8.728326559066773">
        <ele>362</ele>
        <time>2010-01-01T03:45:56Z</time>
      </trkpt>
      <trkpt lat="51.565806604921818" lon="8.727768659591675">
        <ele>363</ele>
        <time>2010-01-01T03:46:20Z</time>
      </trkpt>
      <trkpt lat="51.565506532788277" lon="8.727403879165649">
        <ele>366</ele>
        <time>2010-01-01T03:46:35Z</time>
      </trkpt>
      <trkpt lat="51.56485291197896" lon="8.726792335510254">
        <ele>371</ele>
        <time>2010-01-01T03:47:06Z</time>
      </trkpt>
      <trkpt lat="51.564541021361947" lon="8.726599970832467">
        <ele>372</ele>
        <time>2010-01-01T03:47:19Z</time>
      </trkpt>
      <trkpt lat="51.564252600073814" lon="8.726491928100586">
        <ele>373</ele>
        <time>2010-01-01T03:47:31Z</time>
      </trkpt>
      <trkpt lat="51.563952527940273" lon="8.72688889503479">
        <ele>375</ele>
        <time>2010-01-01T03:47:46Z</time>
      </trkpt>
      <trkpt lat="51.563168903812766" lon="8.727991031482816">
        <ele>377</ele>
        <time>2010-01-01T03:48:28Z</time>
      </trkpt>
      <trkpt lat="51.562784006819129" lon="8.728594025596976">
        <ele>377</ele>
        <time>2010-01-01T03:48:50Z</time>
      </trkpt>
      <trkpt lat="51.562627013772726" lon="8.72879896312952">
        <ele>377</ele>
        <time>2010-01-01T03:48:58Z</time>
      </trkpt>
      <trkpt lat="51.562563814222813" lon="8.728855038061738">
        <ele>377</ele>
        <time>2010-01-01T03:49:01Z</time>
      </trkpt>
      <trkpt lat="51.562420902773738" lon="8.728932989761233">
        <ele>376</ele>
        <time>2010-01-01T03:49:07Z</time>
      </trkpt>
      <trkpt lat="51.562271034345031" lon="8.728983029723167">
        <ele>375</ele>
        <time>2010-01-01T03:49:13Z</time>
      </trkpt>
      <trkpt lat="51.561158001422882" lon="8.729171035811305">
        <ele>366</ele>
        <time>2010-01-01T03:49:58Z</time>
      </trkpt>
      <trkpt lat="51.559205017983913" lon="8.729545036330819">
        <ele>360</ele>
        <time>2010-01-01T03:51:16Z</time>
      </trkpt>
      <trkpt lat="51.556759011000395" lon="8.72997896745801">
        <ele>356</ele>
        <time>2010-01-01T03:52:55Z</time>
      </trkpt>
      <trkpt lat="51.556101785972714" lon="8.730107545852661">
        <ele>354</ele>
        <time>2010-01-01T03:53:21Z</time>
      </trkpt>
      <trkpt lat="51.555908415466547" lon="8.730247020721436">
        <ele>353</ele>
        <time>2010-01-01T03:53:30Z</time>
      </trkpt>
      <trkpt lat="51.555641619488597" lon="8.730654716491699">
        <ele>351</ele>
        <time>2010-01-01T03:53:44Z</time>
      </trkpt>
      <trkpt lat="51.555488230660558" lon="8.731030225753784">
        <ele>348</ele>
        <time>2010-01-01T03:53:56Z</time>
      </trkpt>
      <trkpt lat="51.555387983098626" lon="8.731502294540405">
        <ele>346</ele>
        <time>2010-01-01T03:54:08Z</time>
      </trkpt>
      <trkpt lat="51.555248005315661" lon="8.732950687408447">
        <ele>342</ele>
        <time>2010-01-01T03:54:45Z</time>
      </trkpt>
      <trkpt lat="51.555167874321342" lon="8.73363733291626">
        <ele>340</ele>
        <time>2010-01-01T03:55:02Z</time>
      </trkpt>
      <trkpt lat="51.555141303688288" lon="8.734924793243408">
        <ele>336</ele>
        <time>2010-01-01T03:55:34Z</time>
      </trkpt>
      <trkpt lat="51.555229900404811" lon="8.737015994265676">
        <ele>328</ele>
        <time>2010-01-01T03:56:26Z</time>
      </trkpt>
      <trkpt lat="51.555239791050553" lon="8.737306008115411">
        <ele>327</ele>
        <time>2010-01-01T03:56:33Z</time>
      </trkpt>
      <trkpt lat="51.555213807150722" lon="8.737441040575504">
        <ele>327</ele>
        <time>2010-01-01T03:56:37Z</time>
      </trkpt>
      <trkpt lat="51.555161001160741" lon="8.737558973953128">
        <ele>326</ele>
        <time>2010-01-01T03:56:41Z</time>
      </trkpt>
      <trkpt lat="51.55508279800415" lon="8.737641032785177">
        <ele>326</ele>
        <time>2010-01-01T03:56:44Z</time>
      </trkpt>
      <trkpt lat="51.554986909031868" lon="8.737682020291686">
        <ele>325</ele>
        <time>2010-01-01T03:56:48Z</time>
      </trkpt>
      <trkpt lat="51.54914790764451" lon="8.737967004999518">
        <ele>308</ele>
        <time>2010-01-01T04:00:42Z</time>
      </trkpt>
      <trkpt lat="51.548530915752053" lon="8.738014027476311">
        <ele>308</ele>
        <time>2010-01-01T04:01:07Z</time>
      </trkpt>
      <trkpt lat="51.547839911654592" lon="8.738131038844585">
        <ele>308</ele>
        <time>2010-01-01T04:01:35Z</time>
      </trkpt>
      <trkpt lat="51.544344909489155" lon="8.739412967115641">
        <ele>311</ele>
        <time>2010-01-01T04:03:58Z</time>
      </trkpt>
      <trkpt lat="51.542623015120625" lon="8.740013027563691">
        <ele>312</ele>
        <time>2010-01-01T04:05:09Z</time>
      </trkpt>
      <trkpt lat="51.542250020429492" lon="8.740130038931966">
        <ele>312</ele>
        <time>2010-01-01T04:05:24Z</time>
      </trkpt>
      <trkpt lat="51.541223907843232" lon="8.740396499633789">
        <ele>312</ele>
        <time>2010-01-01T04:06:05Z</time>
      </trkpt>
      <trkpt lat="51.540545811876655" lon="8.740227017551661">
        <ele>311</ele>
        <time>2010-01-01T04:06:33Z</time>
      </trkpt>
      <trkpt lat="51.539648026227951" lon="8.739860979840159">
        <ele>309</ele>
        <time>2010-01-01T04:07:10Z</time>
      </trkpt>
      <trkpt lat="51.538835903629661" lon="8.739297967404127">
        <ele>304</ele>
        <time>2010-01-01T04:07:45Z</time>
      </trkpt>
      <trkpt lat="51.538011040538549" lon="8.73859103769064">
        <ele>299</ele>
        <time>2010-01-01T04:08:23Z</time>
      </trkpt>
      <trkpt lat="51.537398910149932" lon="8.738103965297341">
        <ele>298</ele>
        <time>2010-01-01T04:08:50Z</time>
      </trkpt>
      <trkpt lat="51.536773033440113" lon="8.737715966999531">
        <ele>299</ele>
        <time>2010-01-01T04:09:17Z</time>
      </trkpt>
      <trkpt lat="51.536299120634794" lon="8.737456798553467">
        <ele>297</ele>
        <time>2010-01-01T04:09:37Z</time>
      </trkpt>
      <trkpt lat="51.535510802641511" lon="8.737424025312066">
        <ele>300</ele>
        <time>2010-01-01T04:10:09Z</time>
      </trkpt>
      <trkpt lat="51.532804034650326" lon="8.737356970086694">
        <ele>312</ele>
        <time>2010-01-01T04:11:57Z</time>
      </trkpt>
      <trkpt lat="51.531964000314474" lon="8.737383959814906">
        <ele>315</ele>
        <time>2010-01-01T04:12:31Z</time>
      </trkpt>
      <trkpt lat="51.531589915975928" lon="8.737416984513402">
        <ele>316</ele>
        <time>2010-01-01T04:12:46Z</time>
      </trkpt>
      <trkpt lat="51.5310388058424" lon="8.737556962296367">
        <ele>319</ele>
        <time>2010-01-01T04:13:08Z</time>
      </trkpt>
      <trkpt lat="51.530858008190989" lon="8.737642038613558">
        <ele>320</ele>
        <time>2010-01-01T04:13:16Z</time>
      </trkpt>
      <trkpt lat="51.530546033754945" lon="8.737815041095018">
        <ele>322</ele>
        <time>2010-01-01T04:13:29Z</time>
      </trkpt>
      <trkpt lat="51.529960809275508" lon="8.73820697888732">
        <ele>325</ele>
        <time>2010-01-01T04:13:54Z</time>
      </trkpt>
      <trkpt lat="51.529011810198426" lon="8.73887300491333">
        <ele>326</ele>
        <time>2010-01-01T04:14:36Z</time>
      </trkpt>
      <trkpt lat="51.52864501811564" lon="8.739111972972751">
        <ele>326</ele>
        <time>2010-01-01T04:14:51Z</time>
      </trkpt>
      <trkpt lat="51.528450809419155" lon="8.739222027361393">
        <ele>326</ele>
        <time>2010-01-01T04:15:00Z</time>
      </trkpt>
      <trkpt lat="51.526623805984855" lon="8.740016967058182">
        <ele>333</ele>
        <time>2010-01-01T04:16:15Z</time>
      </trkpt>
      <trkpt lat="51.526141008362174" lon="8.740285020321608">
        <ele>333</ele>
        <time>2010-01-01T04:16:36Z</time>
      </trkpt>
      <trkpt lat="51.524564037099481" lon="8.741366034373641">
        <ele>338</ele>
        <time>2010-01-01T04:17:44Z</time>
      </trkpt>
      <trkpt lat="51.524189030751586" lon="8.741637021303177">
        <ele>340</ele>
        <time>2010-01-01T04:18:01Z</time>
      </trkpt>
      <trkpt lat="51.523534907028079" lon="8.741986965760589">
        <ele>341</ele>
        <time>2010-01-01T04:18:29Z</time>
      </trkpt>
      <trkpt lat="51.523219915106893" lon="8.742027031257749">
        <ele>342</ele>
        <time>2010-01-01T04:18:41Z</time>
      </trkpt>
      <trkpt lat="51.522689005360007" lon="8.741999035701156">
        <ele>343</ele>
        <time>2010-01-01T04:19:02Z</time>
      </trkpt>
      <trkpt lat="51.520942803472281" lon="8.741815974935889">
        <ele>346</ele>
        <time>2010-01-01T04:20:12Z</time>
      </trkpt>
      <trkpt lat="51.520340815186501" lon="8.741711033508182">
        <ele>347</ele>
        <time>2010-01-01T04:20:37Z</time>
      </trkpt>
      <trkpt lat="51.519657019525766" lon="8.741562003269792">
        <ele>347</ele>
        <time>2010-01-01T04:21:04Z</time>
      </trkpt>
      <trkpt lat="51.519230799749494" lon="8.741624029353261">
        <ele>347</ele>
        <time>2010-01-01T04:21:21Z</time>
      </trkpt>
      <trkpt lat="51.518744900822639" lon="8.741813041269779">
        <ele>344</ele>
        <time>2010-01-01T04:21:42Z</time>
      </trkpt>
      <trkpt lat="51.518183900043368" lon="8.741950001567602">
        <ele>341</ele>
        <time>2010-01-01T04:22:04Z</time>
      </trkpt>
      <trkpt lat="51.518093040212989" lon="8.741956036537886">
        <ele>341</ele>
        <time>2010-01-01T04:22:08Z</time>
      </trkpt>
      <trkpt lat="51.518004024401307" lon="8.741936003789306">
        <ele>341</ele>
        <time>2010-01-01T04:22:11Z</time>
      </trkpt>
      <trkpt lat="51.517921797931194" lon="8.741884035989642">
        <ele>341</ele>
        <time>2010-01-01T04:22:15Z</time>
      </trkpt>
      <trkpt lat="51.517854910343885" lon="8.741796026006341">
        <ele>341</ele>
        <time>2010-01-01T04:22:18Z</time>
      </trkpt>
      <trkpt lat="51.517804032191634" lon="8.741686977446079">
        <ele>341</ele>
        <time>2010-01-01T04:22:22Z</time>
      </trkpt>
      <trkpt lat="51.517767906188965" lon="8.741560997441411">
        <ele>341</ele>
        <time>2010-01-01T04:22:25Z</time>
      </trkpt>
      <trkpt lat="51.517671011388302" lon="8.741007037460804">
        <ele>340</ele>
        <time>2010-01-01T04:22:40Z</time>
      </trkpt>
      <trkpt lat="51.517359036952257" lon="8.739903979003429">
        <ele>336</ele>
        <time>2010-01-01T04:23:10Z</time>
      </trkpt>
      <trkpt lat="51.517199026420712" lon="8.739166036248207">
        <ele>337</ele>
        <time>2010-01-01T04:23:29Z</time>
      </trkpt>
      <trkpt lat="51.517153009772301" lon="8.738773008808494">
        <ele>337</ele>
        <time>2010-01-01T04:23:39Z</time>
      </trkpt>
      <trkpt lat="51.517125014215708" lon="8.737574983388186">
        <ele>335</ele>
        <time>2010-01-01T04:24:09Z</time>
      </trkpt>
      <trkpt lat="51.51672201231122" lon="8.735125958919525">
        <ele>324</ele>
        <time>2010-01-01T04:25:12Z</time>
      </trkpt>
      <trkpt lat="51.516383802518249" lon="8.733414961025119">
        <ele>313</ele>
        <time>2010-01-01T04:25:57Z</time>
      </trkpt>
      <trkpt lat="51.516104014590383" lon="8.731766995042563">
        <ele>309</ele>
        <time>2010-01-01T04:26:39Z</time>
      </trkpt>
      <trkpt lat="51.516075013205409" lon="8.731688037514687">
        <ele>310</ele>
        <time>2010-01-01T04:26:42Z</time>
      </trkpt>
      <trkpt lat="51.515987003222108" lon="8.731569014489651">
        <ele>312</ele>
        <time>2010-01-01T04:26:46Z</time>
      </trkpt>
      <trkpt lat="51.51593679562211" lon="8.731541018933058">
        <ele>313</ele>
        <time>2010-01-01T04:26:49Z</time>
      </trkpt>
      <trkpt lat="51.515888012945652" lon="8.731532972306013">
        <ele>313</ele>
        <time>2010-01-01T04:26:50Z</time>
      </trkpt>
      <trkpt lat="51.515835793688893" lon="8.731561973690987">
        <ele>313</ele>
        <time>2010-01-01T04:26:53Z</time>
      </trkpt>
      <trkpt lat="51.515779802575707" lon="8.73163296841085">
        <ele>313</ele>
        <time>2010-01-01T04:26:56Z</time>
      </trkpt>
      <trkpt lat="51.515648793429136" lon="8.731856010854244">
        <ele>312</ele>
        <time>2010-01-01T04:27:03Z</time>
      </trkpt>
      <trkpt lat="51.514958795160055" lon="8.73345703817904">
        <ele>310</ele>
        <time>2010-01-01T04:27:52Z</time>
      </trkpt>
      <trkpt lat="51.513865794986486" lon="8.735820986330509">
        <ele>313</ele>
        <time>2010-01-01T04:29:05Z</time>
      </trkpt>
      <trkpt lat="51.513560023158789" lon="8.736554989591241">
        <ele>315</ele>
        <time>2010-01-01T04:29:27Z</time>
      </trkpt>
      <trkpt lat="51.512996004894376" lon="8.73809801414609">
        <ele>317</ele>
        <time>2010-01-01T04:30:12Z</time>
      </trkpt>
      <trkpt lat="51.512841023504734" lon="8.738451981917024">
        <ele>317</ele>
        <time>2010-01-01T04:30:22Z</time>
      </trkpt>
      <trkpt lat="51.512603815644979" lon="8.738887002691627">
        <ele>315</ele>
        <time>2010-01-01T04:30:37Z</time>
      </trkpt>
      <trkpt lat="51.512390915304422" lon="8.739210041239858">
        <ele>315</ele>
        <time>2010-01-01T04:30:49Z</time>
      </trkpt>
      <trkpt lat="51.511190040037036" lon="8.74054997228086">
        <ele>319</ele>
        <time>2010-01-01T04:31:47Z</time>
      </trkpt>
      <trkpt lat="51.510915029793978" lon="8.741079038009048">
        <ele>319</ele>
        <time>2010-01-01T04:32:04Z</time>
      </trkpt>
      <trkpt lat="51.510580005124211" lon="8.741960981860757">
        <ele>321</ele>
        <time>2010-01-01T04:32:30Z</time>
      </trkpt>
      <trkpt lat="51.510303905233741" lon="8.74259197153151">
        <ele>321</ele>
        <time>2010-01-01T04:32:49Z</time>
      </trkpt>
      <trkpt lat="51.510157808661461" lon="8.743103016167879">
        <ele>321</ele>
        <time>2010-01-01T04:33:03Z</time>
      </trkpt>
      <trkpt lat="51.510114809498191" lon="8.743159007281065">
        <ele>321</ele>
        <time>2010-01-01T04:33:05Z</time>
      </trkpt>
      <trkpt lat="51.510054795071483" lon="8.743185997009277">
        <ele>320</ele>
        <time>2010-01-01T04:33:08Z</time>
      </trkpt>
      <trkpt lat="51.50999503210187" lon="8.743179040029645">
        <ele>320</ele>
        <time>2010-01-01T04:33:10Z</time>
      </trkpt>
      <trkpt lat="51.509622791782022" lon="8.742916015908122">
        <ele>323</ele>
        <time>2010-01-01T04:33:27Z</time>
      </trkpt>
      <trkpt lat="51.509263794869184" lon="8.742685010656714">
        <ele>327</ele>
        <time>2010-01-01T04:33:42Z</time>
      </trkpt>
      <trkpt lat="51.508602797985077" lon="8.742119986563921">
        <ele>335</ele>
        <time>2010-01-01T04:34:12Z</time>
      </trkpt>
      <trkpt lat="51.508414037525654" lon="8.741928040981293">
        <ele>336</ele>
        <time>2010-01-01T04:34:21Z</time>
      </trkpt>
      <trkpt lat="51.507696798071265" lon="8.741050958633423">
        <ele>344</ele>
        <time>2010-01-01T04:34:57Z</time>
      </trkpt>
      <trkpt lat="51.507057007402182" lon="8.740373030304909">
        <ele>350</ele>
        <time>2010-01-01T04:35:28Z</time>
      </trkpt>
      <trkpt lat="51.506959022954106" lon="8.740277979522944">
        <ele>351</ele>
        <time>2010-01-01T04:35:32Z</time>
      </trkpt>
      <trkpt lat="51.506350915879011" lon="8.739828038960695">
        <ele>354</ele>
        <time>2010-01-01T04:35:59Z</time>
      </trkpt>
      <trkpt lat="51.506051011383533" lon="8.73966702260077">
        <ele>356</ele>
        <time>2010-01-01T04:36:12Z</time>
      </trkpt>
      <trkpt lat="51.505625797435641" lon="8.739515980705619">
        <ele>358</ele>
        <time>2010-01-01T04:36:29Z</time>
      </trkpt>
      <trkpt lat="51.505432007834315" lon="8.739465018734336">
        <ele>360</ele>
        <time>2010-01-01T04:36:37Z</time>
      </trkpt>
      <trkpt lat="51.505155907943845" lon="8.739419002085924">
        <ele>362</ele>
        <time>2010-01-01T04:36:48Z</time>
      </trkpt>
      <trkpt lat="51.504750810563564" lon="8.739392012357712">
        <ele>365</ele>
        <time>2010-01-01T04:37:04Z</time>
      </trkpt>
      <trkpt lat="51.504017813131213" lon="8.739379020407796">
        <ele>370</ele>
        <time>2010-01-01T04:37:34Z</time>
      </trkpt>
      <trkpt lat="51.503728805109859" lon="8.739352030679584">
        <ele>372</ele>
        <time>2010-01-01T04:37:45Z</time>
      </trkpt>
      <trkpt lat="51.503353798761964" lon="8.739279024302959">
        <ele>375</ele>
        <time>2010-01-01T04:38:00Z</time>
      </trkpt>
      <trkpt lat="51.5029720030725" lon="8.739169975742698">
        <ele>377</ele>
        <time>2010-01-01T04:38:16Z</time>
      </trkpt>
      <trkpt lat="51.502666901797056" lon="8.739050030708313">
        <ele>379</ele>
        <time>2010-01-01T04:38:29Z</time>
      </trkpt>
      <trkpt lat="51.502015795558691" lon="8.738758005201817">
        <ele>381</ele>
        <time>2010-01-01T04:38:56Z</time>
      </trkpt>
      <trkpt lat="51.501671802252531" lon="8.738552983850241">
        <ele>383</ele>
        <time>2010-01-01T04:39:10Z</time>
      </trkpt>
      <trkpt lat="51.501298807561398" lon="8.738255007192493">
        <ele>385</ele>
        <time>2010-01-01T04:39:27Z</time>
      </trkpt>
      <trkpt lat="51.50115380063653" lon="8.738110000267625">
        <ele>387</ele>
        <time>2010-01-01T04:39:34Z</time>
      </trkpt>
      <trkpt lat="51.50069790892303" lon="8.737559979781508">
        <ele>392</ele>
        <time>2010-01-01T04:39:57Z</time>
      </trkpt>
      <trkpt lat="51.500330027192831" lon="8.736955979838967">
        <ele>400</ele>
        <time>2010-01-01T04:40:18Z</time>
      </trkpt>
      <trkpt lat="51.500170016661286" lon="8.736622966825962">
        <ele>404</ele>
        <time>2010-01-01T04:40:28Z</time>
      </trkpt>
      <trkpt lat="51.499957032501698" lon="8.736248966306448">
        <ele>408</ele>
        <time>2010-01-01T04:40:41Z</time>
      </trkpt>
      <trkpt lat="51.49959702976048" lon="8.735481016337872">
        <ele>412</ele>
        <time>2010-01-01T04:41:05Z</time>
      </trkpt>
      <trkpt lat="51.498784907162189" lon="8.734032036736608">
        <ele>412</ele>
        <time>2010-01-01T04:41:53Z</time>
      </trkpt>
      <trkpt lat="51.498606791719794" lon="8.733663987368345">
        <ele>412</ele>
        <time>2010-01-01T04:42:05Z</time>
      </trkpt>
      <trkpt lat="51.497672041878104" lon="8.731963969767094">
        <ele>410</ele>
        <time>2010-01-01T04:43:02Z</time>
      </trkpt>
      <trkpt lat="51.497336011379957" lon="8.731317976489663">
        <ele>408</ele>
        <time>2010-01-01T04:43:23Z</time>
      </trkpt>
      <trkpt lat="51.496908031404018" lon="8.730404013767839">
        <ele>404</ele>
        <time>2010-01-01T04:43:51Z</time>
      </trkpt>
      <trkpt lat="51.496624806895852" lon="8.72946297749877">
        <ele>399</ele>
        <time>2010-01-01T04:44:17Z</time>
      </trkpt>
      <trkpt lat="51.496472004801035" lon="8.72875202447176">
        <ele>394</ele>
        <time>2010-01-01T04:44:36Z</time>
      </trkpt>
      <trkpt lat="51.49644979275763" lon="8.728568963706493">
        <ele>393</ele>
        <time>2010-01-01T04:44:40Z</time>
      </trkpt>
      <trkpt lat="51.496610809117556" lon="8.727025017142296">
        <ele>389</ele>
        <time>2010-01-01T04:45:19Z</time>
      </trkpt>
      <trkpt lat="51.49678691290319" lon="8.726436020806432">
        <ele>386</ele>
        <time>2010-01-01T04:45:36Z</time>
      </trkpt>
      <trkpt lat="51.496957903727889" lon="8.726070988923311">
        <ele>383</ele>
        <time>2010-01-01T04:45:47Z</time>
      </trkpt>
      <trkpt lat="51.49706200696528" lon="8.725903015583754">
        <ele>382</ele>
        <time>2010-01-01T04:45:53Z</time>
      </trkpt>
      <trkpt lat="51.497409017756581" lon="8.72546598315239">
        <ele>380</ele>
        <time>2010-01-01T04:46:11Z</time>
      </trkpt>
      <trkpt lat="51.498021902516484" lon="8.724770033732057">
        <ele>377</ele>
        <time>2010-01-01T04:46:41Z</time>
      </trkpt>
      <trkpt lat="51.498350808396935" lon="8.724248008802533">
        <ele>372</ele>
        <time>2010-01-01T04:46:59Z</time>
      </trkpt>
      <trkpt lat="51.498435800895095" lon="8.724041981622577">
        <ele>372</ele>
        <time>2010-01-01T04:47:05Z</time>
      </trkpt>
      <trkpt lat="51.498497910797596" lon="8.723823968321085">
        <ele>372</ele>
        <time>2010-01-01T04:47:11Z</time>
      </trkpt>
      <trkpt lat="51.498543005436659" lon="8.7235969863832">
        <ele>372</ele>
        <time>2010-01-01T04:47:17Z</time>
      </trkpt>
      <trkpt lat="51.498568905517459" lon="8.723363969475031">
        <ele>372</ele>
        <time>2010-01-01T04:47:23Z</time>
      </trkpt>
      <trkpt lat="51.498566810041666" lon="8.723116032779217">
        <ele>369</ele>
        <time>2010-01-01T04:47:29Z</time>
      </trkpt>
      <trkpt lat="51.498544011265039" lon="8.722871029749513">
        <ele>367</ele>
        <time>2010-01-01T04:47:36Z</time>
      </trkpt>
      <trkpt lat="51.498474022373557" lon="8.722426034510136">
        <ele>360</ele>
        <time>2010-01-01T04:47:47Z</time>
      </trkpt>
      <trkpt lat="51.498307809233665" lon="8.722038958221674">
        <ele>352</ele>
        <time>2010-01-01T04:47:59Z</time>
      </trkpt>
      <trkpt lat="51.498052915558219" lon="8.721529003232718">
        <ele>347</ele>
        <time>2010-01-01T04:48:15Z</time>
      </trkpt>
      <trkpt lat="51.497102910652757" lon="8.719814987853169">
        <ele>341</ele>
        <time>2010-01-01T04:49:12Z</time>
      </trkpt>
      <trkpt lat="51.496316017583013" lon="8.718275986611843">
        <ele>344</ele>
        <time>2010-01-01T04:50:02Z</time>
      </trkpt>
      <trkpt lat="51.495887031778693" lon="8.717141998931766">
        <ele>353</ele>
        <time>2010-01-01T04:50:35Z</time>
      </trkpt>
      <trkpt lat="51.495419908314943" lon="8.715281970798969">
        <ele>357</ele>
        <time>2010-01-01T04:51:25Z</time>
      </trkpt>
      <trkpt lat="51.495278002694249" lon="8.714860025793314">
        <ele>358</ele>
        <time>2010-01-01T04:51:37Z</time>
      </trkpt>
      <trkpt lat="51.495070802047849" lon="8.714401032775641">
        <ele>361</ele>
        <time>2010-01-01T04:51:51Z</time>
      </trkpt>
      <trkpt lat="51.494824038818479" lon="8.713913038372994">
        <ele>364</ele>
        <time>2010-01-01T04:52:07Z</time>
      </trkpt>
      <trkpt lat="51.494535030797124" lon="8.713476005941629">
        <ele>366</ele>
        <time>2010-01-01T04:52:23Z</time>
      </trkpt>
      <trkpt lat="51.494404021650553" lon="8.71330501511693">
        <ele>366</ele>
        <time>2010-01-01T04:52:29Z</time>
      </trkpt>
      <trkpt lat="51.494151810184121" lon="8.713016007095575">
        <ele>368</ele>
        <time>2010-01-01T04:52:42Z</time>
      </trkpt>
      <trkpt lat="51.493976041674614" lon="8.712837975472212">
        <ele>369</ele>
        <time>2010-01-01T04:52:50Z</time>
      </trkpt>
      <trkpt lat="51.493687033653259" lon="8.712592972442508">
        <ele>370</ele>
        <time>2010-01-01T04:53:03Z</time>
      </trkpt>
      <trkpt lat="51.493457034230232" lon="8.712436985224485">
        <ele>372</ele>
        <time>2010-01-01T04:53:13Z</time>
      </trkpt>
      <trkpt lat="51.492965016514063" lon="8.712170021608472">
        <ele>376</ele>
        <time>2010-01-01T04:53:34Z</time>
      </trkpt>
      <trkpt lat="51.492653796449304" lon="8.712063990533352">
        <ele>379</ele>
        <time>2010-01-01T04:53:47Z</time>
      </trkpt>
      <trkpt lat="51.49212003685534" lon="8.7119319755584">
        <ele>382</ele>
        <time>2010-01-01T04:54:08Z</time>
      </trkpt>
      <trkpt lat="51.491803033277392" lon="8.711894005537033">
        <ele>384</ele>
        <time>2010-01-01T04:54:21Z</time>
      </trkpt>
      <trkpt lat="51.490323040634394" lon="8.711641039699316">
        <ele>397</ele>
        <time>2010-01-01T04:55:21Z</time>
      </trkpt>
      <trkpt lat="51.490018023177981" lon="8.711612038314343">
        <ele>400</ele>
        <time>2010-01-01T04:55:33Z</time>
      </trkpt>
      <trkpt lat="51.489380914717913" lon="8.711582031100988">
        <ele>401</ele>
        <time>2010-01-01T04:55:58Z</time>
      </trkpt>
      <trkpt lat="51.489081010222435" lon="8.711603991687298">
        <ele>402</ele>
        <time>2010-01-01T04:56:10Z</time>
      </trkpt>
      <trkpt lat="51.487947022542357" lon="8.711791997775435">
        <ele>404</ele>
        <time>2010-01-01T04:56:56Z</time>
      </trkpt>
      <trkpt lat="51.487390799447894" lon="8.711913032457233">
        <ele>408</ele>
        <time>2010-01-01T04:57:18Z</time>
      </trkpt>
      <trkpt lat="51.486727790907025" lon="8.712084023281932">
        <ele>417</ele>
        <time>2010-01-01T04:57:45Z</time>
      </trkpt>
      <trkpt lat="51.486336020752788" lon="8.712263982743025">
        <ele>420</ele>
        <time>2010-01-01T04:58:02Z</time>
      </trkpt>
      <trkpt lat="51.486152792349458" lon="8.712388034909964">
        <ele>421</ele>
        <time>2010-01-01T04:58:10Z</time>
      </trkpt>
      <trkpt lat="51.485849032178521" lon="8.712625997141004">
        <ele>422</ele>
        <time>2010-01-01T04:58:23Z</time>
      </trkpt>
      <trkpt lat="51.485470002517104" lon="8.713020030409098">
        <ele>425</ele>
        <time>2010-01-01T04:58:41Z</time>
      </trkpt>
      <trkpt lat="51.485069012269378" lon="8.713504001498222">
        <ele>427</ele>
        <time>2010-01-01T04:59:01Z</time>
      </trkpt>
      <trkpt lat="51.484231911599636" lon="8.714765980839729">
        <ele>429</ele>
        <time>2010-01-01T04:59:47Z</time>
      </trkpt>
      <trkpt lat="51.483878027647734" lon="8.715223968029022">
        <ele>430</ele>
        <time>2010-01-01T05:00:05Z</time>
      </trkpt>
      <trkpt lat="51.483481815084815" lon="8.715534014627338">
        <ele>432</ele>
        <time>2010-01-01T05:00:23Z</time>
      </trkpt>
      <trkpt lat="51.483391039073467" lon="8.715571984648705">
        <ele>433</ele>
        <time>2010-01-01T05:00:27Z</time>
      </trkpt>
      <trkpt lat="51.48324703797698" lon="8.715609032660723">
        <ele>433</ele>
        <time>2010-01-01T05:00:33Z</time>
      </trkpt>
      <trkpt lat="51.483022905886173" lon="8.715628981590271">
        <ele>434</ele>
        <time>2010-01-01T05:00:42Z</time>
      </trkpt>
      <trkpt lat="51.482618814334273" lon="8.715558992698789">
        <ele>437</ele>
        <time>2010-01-01T05:00:58Z</time>
      </trkpt>
      <trkpt lat="51.482470035552979" lon="8.715501995757222">
        <ele>438</ele>
        <time>2010-01-01T05:01:04Z</time>
      </trkpt>
      <trkpt lat="51.482278006151319" lon="8.715385990217328">
        <ele>440</ele>
        <time>2010-01-01T05:01:12Z</time>
      </trkpt>
      <trkpt lat="51.481988914310932" lon="8.715142998844385">
        <ele>443</ele>
        <time>2010-01-01T05:01:25Z</time>
      </trkpt>
      <trkpt lat="51.481736032292247" lon="8.714877041056752">
        <ele>446</ele>
        <time>2010-01-01T05:01:37Z</time>
      </trkpt>
      <trkpt lat="51.481502009555697" lon="8.714503962546587">
        <ele>450</ele>
        <time>2010-01-01T05:01:51Z</time>
      </trkpt>
      <trkpt lat="51.481343004852533" lon="8.714300030842423">
        <ele>451</ele>
        <time>2010-01-01T05:01:59Z</time>
      </trkpt>
      <trkpt lat="51.481177797541022" lon="8.714006999507546">
        <ele>452</ele>
        <time>2010-01-01T05:02:09Z</time>
      </trkpt>
      <trkpt lat="51.480949809774756" lon="8.71371497400105">
        <ele>452</ele>
        <time>2010-01-01T05:02:20Z</time>
      </trkpt>
      <trkpt lat="51.480397023260593" lon="8.712794976308942">
        <ele>450</ele>
        <time>2010-01-01T05:02:52Z</time>
      </trkpt>
      <trkpt lat="51.480238018557429" lon="8.71246699243784">
        <ele>449</ele>
        <time>2010-01-01T05:03:02Z</time>
      </trkpt>
      <trkpt lat="51.480003912001848" lon="8.71208100579679">
        <ele>448</ele>
        <time>2010-01-01T05:03:16Z</time>
      </trkpt>
      <trkpt lat="51.479911040514708" lon="8.711704993620515">
        <ele>449</ele>
        <time>2010-01-01T05:03:26Z</time>
      </trkpt>
      <trkpt lat="51.479783803224564" lon="8.711341973394156">
        <ele>448</ele>
        <time>2010-01-01T05:03:36Z</time>
      </trkpt>
      <trkpt lat="51.479698810726404" lon="8.711041985079646">
        <ele>447</ele>
        <time>2010-01-01T05:03:45Z</time>
      </trkpt>
      <trkpt lat="51.479482809081674" lon="8.710194993764162">
        <ele>443</ele>
        <time>2010-01-01T05:04:07Z</time>
      </trkpt>
      <trkpt lat="51.479408796876669" lon="8.709800960496068">
        <ele>442</ele>
        <time>2010-01-01T05:04:18Z</time>
      </trkpt>
      <trkpt lat="51.479344004765153" lon="8.709743041545153">
        <ele>441</ele>
        <time>2010-01-01T05:04:21Z</time>
      </trkpt>
      <trkpt lat="51.479272004216909" lon="8.709727032110095">
        <ele>440</ele>
        <time>2010-01-01T05:04:24Z</time>
      </trkpt>
      <trkpt lat="51.479061031714082" lon="8.709617983549833">
        <ele>439</ele>
        <time>2010-01-01T05:04:32Z</time>
      </trkpt>
      <trkpt lat="51.478023016825318" lon="8.708939971402288">
        <ele>439</ele>
        <time>2010-01-01T05:05:17Z</time>
      </trkpt>
      <trkpt lat="51.477985801175237" lon="8.708947012200952">
        <ele>439</ele>
        <time>2010-01-01T05:05:19Z</time>
      </trkpt>
      <trkpt lat="51.477956799790263" lon="8.708978025242686">
        <ele>439</ele>
        <time>2010-01-01T05:05:20Z</time>
      </trkpt>
      <trkpt lat="51.477882033213973" lon="8.709111968055368">
        <ele>439</ele>
        <time>2010-01-01T05:05:25Z</time>
      </trkpt>
      <trkpt lat="51.477648010477424" lon="8.70963198132813">
        <ele>438</ele>
        <time>2010-01-01T05:05:41Z</time>
      </trkpt>
      <trkpt lat="51.476664813235402" lon="8.711632993072271">
        <ele>442</ele>
        <time>2010-01-01T05:06:44Z</time>
      </trkpt>
      <trkpt lat="51.476591806858778" lon="8.711741035804153">
        <ele>442</ele>
        <time>2010-01-01T05:06:48Z</time>
      </trkpt>
      <trkpt lat="51.47650103084743" lon="8.711819993332028">
        <ele>443</ele>
        <time>2010-01-01T05:06:52Z</time>
      </trkpt>
      <trkpt lat="51.475783037021756" lon="8.712233975529671">
        <ele>446</ele>
        <time>2010-01-01T05:07:23Z</time>
      </trkpt>
      <trkpt lat="51.475391015410423" lon="8.712347969412804">
        <ele>447</ele>
        <time>2010-01-01T05:07:39Z</time>
      </trkpt>
      <trkpt lat="51.474299021065235" lon="8.712600013241172">
        <ele>450</ele>
        <time>2010-01-01T05:08:23Z</time>
      </trkpt>
      <trkpt lat="51.474027028307319" lon="8.71268198825419">
        <ele>452</ele>
        <time>2010-01-01T05:08:34Z</time>
      </trkpt>
      <trkpt lat="51.47384581156075" lon="8.712713001295924">
        <ele>454</ele>
        <time>2010-01-01T05:08:41Z</time>
      </trkpt>
      <trkpt lat="51.47375201806426" lon="8.712685005739331">
        <ele>454</ele>
        <time>2010-01-01T05:08:45Z</time>
      </trkpt>
      <trkpt lat="51.473191017284989" lon="8.712270017713308">
        <ele>458</ele>
        <time>2010-01-01T05:09:10Z</time>
      </trkpt>
      <trkpt lat="51.473190011456609" lon="8.712290972471237">
        <ele>458</ele>
        <time>2010-01-01T05:09:10Z</time>
      </trkpt>
      <trkpt lat="51.473204009234905" lon="8.71229600161314">
        <ele>458</ele>
        <time>2010-01-01T05:09:11Z</time>
      </trkpt>
      <trkpt lat="51.473201913759112" lon="8.712248979136348">
        <ele>457</ele>
        <time>2010-01-01T05:09:12Z</time>
      </trkpt>
      <trkpt lat="51.472979793325067" lon="8.711914038285613">
        <ele>457</ele>
        <time>2010-01-01T05:09:24Z</time>
      </trkpt>
      <trkpt lat="51.472858004271984" lon="8.711597034707665">
        <ele>457</ele>
        <time>2010-01-01T05:09:34Z</time>
      </trkpt>
      <trkpt lat="51.472467910498381" lon="8.710529012605548">
        <ele>456</ele>
        <time>2010-01-01T05:10:05Z</time>
      </trkpt>
      <trkpt lat="51.472007911652327" lon="8.709198972210288">
        <ele>455</ele>
        <time>2010-01-01T05:10:42Z</time>
      </trkpt>
      <trkpt lat="51.471818815916777" lon="8.708413001149893">
        <ele>457</ele>
        <time>2010-01-01T05:11:03Z</time>
      </trkpt>
      <trkpt lat="51.471786797046661" lon="8.707918971776962">
        <ele>457</ele>
        <time>2010-01-01T05:11:16Z</time>
      </trkpt>
      <trkpt lat="51.471718903630972" lon="8.707503983750939">
        <ele>457</ele>
        <time>2010-01-01T05:11:27Z</time>
      </trkpt>
      <trkpt lat="51.471675904467702" lon="8.707402981817722">
        <ele>457</ele>
        <time>2010-01-01T05:11:30Z</time>
      </trkpt>
      <trkpt lat="51.471650004386902" lon="8.707383032888174">
        <ele>457</ele>
        <time>2010-01-01T05:11:31Z</time>
      </trkpt>
      <trkpt lat="51.471579009667039" lon="8.707360988482833">
        <ele>457</ele>
        <time>2010-01-01T05:11:34Z</time>
      </trkpt>
      <trkpt lat="51.47126879543066" lon="8.707313966006041">
        <ele>456</ele>
        <time>2010-01-01T05:11:46Z</time>
      </trkpt>
      <trkpt lat="51.470663035288453" lon="8.707301979884505">
        <ele>453</ele>
        <time>2010-01-01T05:12:10Z</time>
      </trkpt>
      <trkpt lat="51.470413003116846" lon="8.70735302567482">
        <ele>452</ele>
        <time>2010-01-01T05:12:20Z</time>
      </trkpt>
      <trkpt lat="51.470073033124208" lon="8.707496020942926">
        <ele>449</ele>
        <time>2010-01-01T05:12:35Z</time>
      </trkpt>
      <trkpt lat="51.46909000352025" lon="8.707505995407701">
        <ele>447</ele>
        <time>2010-01-01T05:13:14Z</time>
      </trkpt>
      <trkpt lat="51.468890011310577" lon="8.707534996792674">
        <ele>445</ele>
        <time>2010-01-01T05:13:22Z</time>
      </trkpt>
      <trkpt lat="51.468792026862502" lon="8.707569027319551">
        <ele>445</ele>
        <time>2010-01-01T05:13:26Z</time>
      </trkpt>
      <trkpt lat="51.468695802614093" lon="8.707618983462453">
        <ele>444</ele>
        <time>2010-01-01T05:13:30Z</time>
      </trkpt>
      <trkpt lat="51.468506790697575" lon="8.707752004265785">
        <ele>443</ele>
        <time>2010-01-01T05:13:38Z</time>
      </trkpt>
      <trkpt lat="51.468146033585072" lon="8.708112007007003">
        <ele>442</ele>
        <time>2010-01-01T05:13:55Z</time>
      </trkpt>
      <trkpt lat="51.467322008684278" lon="8.709017001092434">
        <ele>442</ele>
        <time>2010-01-01T05:14:35Z</time>
      </trkpt>
      <trkpt lat="51.466315006837249" lon="8.709883019328117">
        <ele>443</ele>
        <time>2010-01-01T05:15:21Z</time>
      </trkpt>
      <trkpt lat="51.465330803766847" lon="8.710235981270671">
        <ele>442</ele>
        <time>2010-01-01T05:16:01Z</time>
      </trkpt>
      <trkpt lat="51.464211903512478" lon="8.710208991542459">
        <ele>438</ele>
        <time>2010-01-01T05:16:46Z</time>
      </trkpt>
      <trkpt lat="51.4635338075459" lon="8.710098015144467">
        <ele>437</ele>
        <time>2010-01-01T05:17:13Z</time>
      </trkpt>
      <trkpt lat="51.46232002414763" lon="8.709936998784542">
        <ele>438</ele>
        <time>2010-01-01T05:18:02Z</time>
      </trkpt>
      <trkpt lat="51.460868027061224" lon="8.709855023771524">
        <ele>445</ele>
        <time>2010-01-01T05:19:00Z</time>
      </trkpt>
      <trkpt lat="51.459453916177154" lon="8.709796015173197">
        <ele>445</ele>
        <time>2010-01-01T05:19:57Z</time>
      </trkpt>
      <trkpt lat="51.458856035023928" lon="8.709745975211263">
        <ele>446</ele>
        <time>2010-01-01T05:20:21Z</time>
      </trkpt>
      <trkpt lat="51.458101915195584" lon="8.709654025733471">
        <ele>449</ele>
        <time>2010-01-01T05:20:51Z</time>
      </trkpt>
      <trkpt lat="51.457218797877431" lon="8.709814036265016">
        <ele>450</ele>
        <time>2010-01-01T05:21:27Z</time>
      </trkpt>
      <trkpt lat="51.456739017739892" lon="8.710058033466339">
        <ele>448</ele>
        <time>2010-01-01T05:21:47Z</time>
      </trkpt>
      <trkpt lat="51.456023035570979" lon="8.710543010383844">
        <ele>444</ele>
        <time>2010-01-01T05:22:18Z</time>
      </trkpt>
      <trkpt lat="51.455434039235115" lon="8.71100896038115">
        <ele>441</ele>
        <time>2010-01-01T05:22:44Z</time>
      </trkpt>
      <trkpt lat="51.455011004582047" lon="8.711290005594492">
        <ele>438</ele>
        <time>2010-01-01T05:23:03Z</time>
      </trkpt>
      <trkpt lat="51.454488225281239" lon="8.711514472961426">
        <ele>436</ele>
        <time>2010-01-01T05:23:24Z</time>
      </trkpt>
      <trkpt lat="51.451700907200575" lon="8.711739024147391">
        <ele>441</ele>
        <time>2010-01-01T05:25:16Z</time>
      </trkpt>
      <trkpt lat="51.450616791844368" lon="8.71192803606391">
        <ele>443</ele>
        <time>2010-01-01T05:26:00Z</time>
      </trkpt>
      <trkpt lat="51.449807016178966" lon="8.712130039930344">
        <ele>444</ele>
        <time>2010-01-01T05:26:32Z</time>
      </trkpt>
      <trkpt lat="51.449527814984322" lon="8.71218703687191">
        <ele>444</ele>
        <time>2010-01-01T05:26:44Z</time>
      </trkpt>
      <trkpt lat="51.449106791988015" lon="8.712240010499954">
        <ele>445</ele>
        <time>2010-01-01T05:27:01Z</time>
      </trkpt>
      <trkpt lat="51.44875081256032" lon="8.712245039641857">
        <ele>446</ele>
        <time>2010-01-01T05:27:15Z</time>
      </trkpt>
      <trkpt lat="51.448470018804073" lon="8.71218603104353">
        <ele>447</ele>
        <time>2010-01-01T05:27:26Z</time>
      </trkpt>
      <trkpt lat="51.448199031874537" lon="8.71206097304821">
        <ele>448</ele>
        <time>2010-01-01T05:27:37Z</time>
      </trkpt>
      <trkpt lat="51.447406020015478" lon="8.711652019992471">
        <ele>451</ele>
        <time>2010-01-01T05:28:11Z</time>
      </trkpt>
      <trkpt lat="51.446375800296664" lon="8.711341973394156">
        <ele>451</ele>
        <time>2010-01-01T05:28:53Z</time>
      </trkpt>
      <trkpt lat="51.445194035768509" lon="8.711050031706691">
        <ele>454</ele>
        <time>2010-01-01T05:29:41Z</time>
      </trkpt>
      <trkpt lat="51.443543806672096" lon="8.710677037015557">
        <ele>456</ele>
        <time>2010-01-01T05:30:47Z</time>
      </trkpt>
      <trkpt lat="51.441483031958342" lon="8.710171021521092">
        <ele>460</ele>
        <time>2010-01-01T05:32:11Z</time>
      </trkpt>
      <trkpt lat="51.441037030890584" lon="8.709995001554489">
        <ele>461</ele>
        <time>2010-01-01T05:32:29Z</time>
      </trkpt>
      <trkpt lat="51.440166905522346" lon="8.709581019356847">
        <ele>464</ele>
        <time>2010-01-01T05:33:06Z</time>
      </trkpt>
      <trkpt lat="51.439644796773791" lon="8.709408016875386">
        <ele>466</ele>
        <time>2010-01-01T05:33:27Z</time>
      </trkpt>
      <trkpt lat="51.438389020040631" lon="8.709310032427311">
        <ele>470</ele>
        <time>2010-01-01T05:34:17Z</time>
      </trkpt>
      <trkpt lat="51.437446810305119" lon="8.70935101993382">
        <ele>468</ele>
        <time>2010-01-01T05:34:55Z</time>
      </trkpt>
      <trkpt lat="51.435688035562634" lon="8.70965201407671">
        <ele>467</ele>
        <time>2010-01-01T05:36:06Z</time>
      </trkpt>
      <trkpt lat="51.435238011181355" lon="8.709757961332798">
        <ele>468</ele>
        <time>2010-01-01T05:36:24Z</time>
      </trkpt>
      <trkpt lat="51.43488991074264" lon="8.709887964650989">
        <ele>469</ele>
        <time>2010-01-01T05:36:38Z</time>
      </trkpt>
      <trkpt lat="51.43474280834198" lon="8.709858041256666">
        <ele>469</ele>
        <time>2010-01-01T05:36:44Z</time>
      </trkpt>
      <trkpt lat="51.434728810563684" lon="8.709796015173197">
        <ele>469</ele>
        <time>2010-01-01T05:36:46Z</time>
      </trkpt>
      <trkpt lat="51.434738030657172" lon="8.709736000746489">
        <ele>469</ele>
        <time>2010-01-01T05:36:47Z</time>
      </trkpt>
      <trkpt lat="51.435224013403058" lon="8.707827022299171">
        <ele>472</ele>
        <time>2010-01-01T05:37:39Z</time>
      </trkpt>
      <trkpt lat="51.435387041419744" lon="8.707088995724917">
        <ele>473</ele>
        <time>2010-01-01T05:37:58Z</time>
      </trkpt>
      <trkpt lat="51.435387041419744" lon="8.707010038197041">
        <ele>473</ele>
        <time>2010-01-01T05:38:00Z</time>
      </trkpt>
      <trkpt lat="51.435368014499545" lon="8.706933008506894">
        <ele>474</ele>
        <time>2010-01-01T05:38:02Z</time>
      </trkpt>
      <trkpt lat="51.435330798849463" lon="8.706867964938283">
        <ele>474</ele>
        <time>2010-01-01T05:38:05Z</time>
      </trkpt>
      <trkpt lat="51.435280004516244" lon="8.706824965775013">
        <ele>474</ele>
        <time>2010-01-01T05:38:07Z</time>
      </trkpt>
      <trkpt lat="51.435223007574677" lon="8.706801999360323">
        <ele>474</ele>
        <time>2010-01-01T05:38:09Z</time>
      </trkpt>
      <trkpt lat="51.434102011844516" lon="8.706515002995729">
        <ele>476</ele>
        <time>2010-01-01T05:38:55Z</time>
      </trkpt>
      <trkpt lat="51.434050798416138" lon="8.706488013267517">
        <ele>477</ele>
        <time>2010-01-01T05:38:57Z</time>
      </trkpt>
      <trkpt lat="51.433738907799125" lon="8.706190036609769">
        <ele>478</ele>
        <time>2010-01-01T05:39:11Z</time>
      </trkpt>
      <trkpt lat="51.433705799281597" lon="8.706127004697919">
        <ele>479</ele>
        <time>2010-01-01T05:39:13Z</time>
      </trkpt>
      <trkpt lat="51.433517038822174" lon="8.705530967563391">
        <ele>480</ele>
        <time>2010-01-01T05:39:30Z</time>
      </trkpt>
      <trkpt lat="51.43344403244555" lon="8.705130983144045">
        <ele>481</ele>
        <time>2010-01-01T05:39:41Z</time>
      </trkpt>
      <trkpt lat="51.43338879570365" lon="8.704762011766434">
        <ele>482</ele>
        <time>2010-01-01T05:39:50Z</time>
      </trkpt>
      <trkpt lat="51.433359794318676" lon="8.704105038195849">
        <ele>483</ele>
        <time>2010-01-01T05:40:06Z</time>
      </trkpt>
      <trkpt lat="51.433370020240545" lon="8.703099964186549">
        <ele>484</ele>
        <time>2010-01-01T05:40:32Z</time>
      </trkpt>
      <trkpt lat="51.433423915877938" lon="8.701060982421041">
        <ele>483</ele>
        <time>2010-01-01T05:41:22Z</time>
      </trkpt>
      <trkpt lat="51.433488037437201" lon="8.699028035625815">
        <ele>479</ele>
        <time>2010-01-01T05:42:13Z</time>
      </trkpt>
      <trkpt lat="51.433534808456898" lon="8.698270982131362">
        <ele>476</ele>
        <time>2010-01-01T05:42:32Z</time>
      </trkpt>
      <trkpt lat="51.433674031868577" lon="8.697264986112714">
        <ele>471</ele>
        <time>2010-01-01T05:42:58Z</time>
      </trkpt>
      <trkpt lat="51.434217011556029" lon="8.693645009770989">
        <ele>461</ele>
        <time>2010-01-01T05:44:31Z</time>
      </trkpt>
      <trkpt lat="51.434247018769383" lon="8.692537005990744">
        <ele>460</ele>
        <time>2010-01-01T05:44:59Z</time>
      </trkpt>
      <trkpt lat="51.433878801763058" lon="8.688734974712133">
        <ele>460</ele>
        <time>2010-01-01T05:46:35Z</time>
      </trkpt>
      <trkpt lat="51.433755001053214" lon="8.686972009018064">
        <ele>461</ele>
        <time>2010-01-01T05:47:19Z</time>
      </trkpt>
      <trkpt lat="51.433807807043195" lon="8.68526796810329">
        <ele>464</ele>
        <time>2010-01-01T05:48:01Z</time>
      </trkpt>
      <trkpt lat="51.433805041015148" lon="8.684628009796143">
        <ele>465</ele>
        <time>2010-01-01T05:48:17Z</time>
      </trkpt>
      <trkpt lat="51.433748798444867" lon="8.683828040957451">
        <ele>466</ele>
        <time>2010-01-01T05:48:37Z</time>
      </trkpt>
      <trkpt lat="51.433676797896624" lon="8.682165993377566">
        <ele>469</ele>
        <time>2010-01-01T05:49:19Z</time>
      </trkpt>
      <trkpt lat="51.433883914723992" lon="8.680721037089825">
        <ele>472</ele>
        <time>2010-01-01T05:49:56Z</time>
      </trkpt>
      <trkpt lat="51.434242911636829" lon="8.678898978978396">
        <ele>473</ele>
        <time>2010-01-01T05:50:44Z</time>
      </trkpt>
      <trkpt lat="51.434349026530981" lon="8.677377998828888">
        <ele>475</ele>
        <time>2010-01-01T05:51:22Z</time>
      </trkpt>
      <trkpt lat="51.434337794780731" lon="8.677273979410529">
        <ele>475</ele>
        <time>2010-01-01T05:51:25Z</time>
      </trkpt>
      <trkpt lat="51.434195805341005" lon="8.676579035818577">
        <ele>477</ele>
        <time>2010-01-01T05:51:43Z</time>
      </trkpt>
      <trkpt lat="51.433583004400134" lon="8.675353014841676">
        <ele>477</ele>
        <time>2010-01-01T05:52:22Z</time>
      </trkpt>
      <trkpt lat="51.432368801906705" lon="8.673487035557628">
        <ele>481</ele>
        <time>2010-01-01T05:53:29Z</time>
      </trkpt>
      <trkpt lat="51.431672014296055" lon="8.67222597822547">
        <ele>481</ele>
        <time>2010-01-01T05:54:11Z</time>
      </trkpt>
      <trkpt lat="51.431647036224604" lon="8.67211701348424">
        <ele>481</ele>
        <time>2010-01-01T05:54:14Z</time>
      </trkpt>
      <trkpt lat="51.431608814746141" lon="8.671061983332038">
        <ele>479</ele>
        <time>2010-01-01T05:54:41Z</time>
      </trkpt>
      <trkpt lat="51.431622812524438" lon="8.670924017205834">
        <ele>479</ele>
        <time>2010-01-01T05:54:44Z</time>
      </trkpt>
      <trkpt lat="51.431654915213585" lon="8.670793008059263">
        <ele>479</ele>
        <time>2010-01-01T05:54:48Z</time>
      </trkpt>
      <trkpt lat="51.431705793365836" lon="8.670673985034227">
        <ele>479</ele>
        <time>2010-01-01T05:54:51Z</time>
      </trkpt>
      <trkpt lat="51.431835796684027" lon="8.670458989217877">
        <ele>478</ele>
        <time>2010-01-01T05:54:59Z</time>
      </trkpt>
      <trkpt lat="51.432066801935434" lon="8.670157995074987">
        <ele>477</ele>
        <time>2010-01-01T05:55:11Z</time>
      </trkpt>
      <trkpt lat="51.432237792760134" lon="8.670019023120403">
        <ele>476</ele>
        <time>2010-01-01T05:55:18Z</time>
      </trkpt>
      <trkpt lat="51.432409035041928" lon="8.669907040894032">
        <ele>475</ele>
        <time>2010-01-01T05:55:26Z</time>
      </trkpt>
      <trkpt lat="51.432480029761791" lon="8.669824982061982">
        <ele>474</ele>
        <time>2010-01-01T05:55:29Z</time>
      </trkpt>
      <trkpt lat="51.432527806609869" lon="8.669717023149133">
        <ele>474</ele>
        <time>2010-01-01T05:55:33Z</time>
      </trkpt>
      <trkpt lat="51.432557813823223" lon="8.669593976810575">
        <ele>473</ele>
        <time>2010-01-01T05:55:36Z</time>
      </trkpt>
      <trkpt lat="51.43257181160152" lon="8.669317038729787">
        <ele>473</ele>
        <time>2010-01-01T05:55:43Z</time>
      </trkpt>
      <trkpt lat="51.432547001168132" lon="8.669023001566529">
        <ele>473</ele>
        <time>2010-01-01T05:55:50Z</time>
      </trkpt>
      <trkpt lat="51.43213301897049" lon="8.667050991207361">
        <ele>469</ele>
        <time>2010-01-01T05:56:42Z</time>
      </trkpt>
      <trkpt lat="51.431532790884376" lon="8.664440028369427">
        <ele>458</ele>
        <time>2010-01-01T05:57:52Z</time>
      </trkpt>
      <trkpt lat="51.431385017931461" lon="8.663855977356434">
        <ele>455</ele>
        <time>2010-01-01T05:58:07Z</time>
      </trkpt>
      <trkpt lat="51.431188797578216" lon="8.663256000727415">
        <ele>451</ele>
        <time>2010-01-01T05:58:24Z</time>
      </trkpt>
      <trkpt lat="51.431024009361863" lon="8.662856016308069">
        <ele>448</ele>
        <time>2010-01-01T05:58:36Z</time>
      </trkpt>
      <trkpt lat="51.430826028808951" lon="8.662463994696736">
        <ele>444</ele>
        <time>2010-01-01T05:58:49Z</time>
      </trkpt>
      <trkpt lat="51.43060902133584" lon="8.662081025540829">
        <ele>441</ele>
        <time>2010-01-01T05:59:02Z</time>
      </trkpt>
      <trkpt lat="51.429493809118867" lon="8.660415960475802">
        <ele>438</ele>
        <time>2010-01-01T06:00:03Z</time>
      </trkpt>
      <trkpt lat="51.428671041503549" lon="8.65901299752295">
        <ele>433</ele>
        <time>2010-01-01T06:00:51Z</time>
      </trkpt>
      <trkpt lat="51.428085984662175" lon="8.658106327056885">
        <ele>437</ele>
        <time>2010-01-01T06:01:23Z</time>
      </trkpt>
      <trkpt lat="51.427443008869886" lon="8.657640041783452">
        <ele>438</ele>
        <time>2010-01-01T06:01:52Z</time>
      </trkpt>
      <trkpt lat="51.427088035270572" lon="8.657266963273287">
        <ele>439</ele>
        <time>2010-01-01T06:02:09Z</time>
      </trkpt>
      <trkpt lat="51.427001031115651" lon="8.65710100159049">
        <ele>439</ele>
        <time>2010-01-01T06:02:14Z</time>
      </trkpt>
      <trkpt lat="51.426949901506305" lon="8.65695096552372">
        <ele>440</ele>
        <time>2010-01-01T06:02:18Z</time>
      </trkpt>
      <trkpt lat="51.426899023354053" lon="8.656645026057959">
        <ele>440</ele>
        <time>2010-01-01T06:02:26Z</time>
      </trkpt>
      <trkpt lat="51.426939005032182" lon="8.656354006379843">
        <ele>442</ele>
        <time>2010-01-01T06:02:34Z</time>
      </trkpt>
      <trkpt lat="51.426978902891278" lon="8.656230038031936">
        <ele>442</ele>
        <time>2010-01-01T06:02:37Z</time>
      </trkpt>
      <trkpt lat="51.427039001137018" lon="8.656115038320422">
        <ele>443</ele>
        <time>2010-01-01T06:02:41Z</time>
      </trkpt>
      <trkpt lat="51.427114019170403" lon="8.656023005023599">
        <ele>443</ele>
        <time>2010-01-01T06:02:45Z</time>
      </trkpt>
      <trkpt lat="51.427648030221462" lon="8.655528975650668">
        <ele>443</ele>
        <time>2010-01-01T06:03:09Z</time>
      </trkpt>
      <trkpt lat="51.427780799567699" lon="8.655311968177557">
        <ele>443</ele>
        <time>2010-01-01T06:03:17Z</time>
      </trkpt>
      <trkpt lat="51.42782480455935" lon="8.655175007879734">
        <ele>444</ele>
        <time>2010-01-01T06:03:21Z</time>
      </trkpt>
      <trkpt lat="51.427865037694573" lon="8.654951965436339">
        <ele>444</ele>
        <time>2010-01-01T06:03:26Z</time>
      </trkpt>
      <trkpt lat="51.427866797894239" lon="8.654798995703459">
        <ele>444</ele>
        <time>2010-01-01T06:03:30Z</time>
      </trkpt>
      <trkpt lat="51.427828911691904" lon="8.654554998502135">
        <ele>445</ele>
        <time>2010-01-01T06:03:37Z</time>
      </trkpt>
      <trkpt lat="51.42773000523448" lon="8.654228020459414">
        <ele>446</ele>
        <time>2010-01-01T06:03:46Z</time>
      </trkpt>
      <trkpt lat="51.427634032443166" lon="8.653990980237722">
        <ele>447</ele>
        <time>2010-01-01T06:03:53Z</time>
      </trkpt>
      <trkpt lat="51.424635909497738" lon="8.648283993825316">
        <ele>450</ele>
        <time>2010-01-01T06:06:59Z</time>
      </trkpt>
      <trkpt lat="51.424242798238993" lon="8.647511014714837">
        <ele>450</ele>
        <time>2010-01-01T06:07:24Z</time>
      </trkpt>
      <trkpt lat="51.423928812146187" lon="8.646211987361312">
        <ele>446</ele>
        <time>2010-01-01T06:07:59Z</time>
      </trkpt>
      <trkpt lat="51.42393090762198" lon="8.645720975473523">
        <ele>444</ele>
        <time>2010-01-01T06:08:11Z</time>
      </trkpt>
      <trkpt lat="51.423943815752864" lon="8.645550990477204">
        <ele>444</ele>
        <time>2010-01-01T06:08:15Z</time>
      </trkpt>
      <trkpt lat="51.424041800200939" lon="8.645038018003106">
        <ele>441</ele>
        <time>2010-01-01T06:08:29Z</time>
      </trkpt>
      <trkpt lat="51.424758033826947" lon="8.642716985195875">
        <ele>431</ele>
        <time>2010-01-01T06:09:33Z</time>
      </trkpt>
      <trkpt lat="51.424917038530111" lon="8.642290011048317">
        <ele>430</ele>
        <time>2010-01-01T06:09:46Z</time>
      </trkpt>
      <trkpt lat="51.424984009936452" lon="8.642236031591892">
        <ele>429</ele>
        <time>2010-01-01T06:09:49Z</time>
      </trkpt>
      <trkpt lat="51.425084006041288" lon="8.642217004671693">
        <ele>429</ele>
        <time>2010-01-01T06:09:53Z</time>
      </trkpt>
      <trkpt lat="51.42592404037714" lon="8.64223200827837">
        <ele>427</ele>
        <time>2010-01-01T06:10:26Z</time>
      </trkpt>
      <trkpt lat="51.426719902083278" lon="8.642180962488055">
        <ele>424</ele>
        <time>2010-01-01T06:10:58Z</time>
      </trkpt>
      <trkpt lat="51.427016034722328" lon="8.642135029658675">
        <ele>423</ele>
        <time>2010-01-01T06:11:10Z</time>
      </trkpt>
      <trkpt lat="51.427808040753007" lon="8.641860019415617">
        <ele>420</ele>
        <time>2010-01-01T06:11:43Z</time>
      </trkpt>
      <trkpt lat="51.428065029904246" lon="8.641728004440665">
        <ele>418</ele>
        <time>2010-01-01T06:11:53Z</time>
      </trkpt>
      <trkpt lat="51.428770031780005" lon="8.641312010586262">
        <ele>414</ele>
        <time>2010-01-01T06:12:23Z</time>
      </trkpt>
      <trkpt lat="51.429783906787634" lon="8.64066400565207">
        <ele>409</ele>
        <time>2010-01-01T06:13:07Z</time>
      </trkpt>
      <trkpt lat="51.430827034637332" lon="8.640021029859781">
        <ele>404</ele>
        <time>2010-01-01T06:13:52Z</time>
      </trkpt>
      <trkpt lat="51.433546794578433" lon="8.638395024463534">
        <ele>405</ele>
        <time>2010-01-01T06:15:48Z</time>
      </trkpt>
      <trkpt lat="51.434240816161036" lon="8.638068968430162">
        <ele>412</ele>
        <time>2010-01-01T06:16:17Z</time>
      </trkpt>
      <trkpt lat="51.434760913252831" lon="8.637945000082254">
        <ele>416</ele>
        <time>2010-01-01T06:16:38Z</time>
      </trkpt>
      <trkpt lat="51.434923019260168" lon="8.637881968170404">
        <ele>417</ele>
        <time>2010-01-01T06:16:45Z</time>
      </trkpt>
      <trkpt lat="51.435311017557979" lon="8.637609975412488">
        <ele>417</ele>
        <time>2010-01-01T06:17:02Z</time>
      </trkpt>
      <trkpt lat="51.435780907049775" lon="8.637089962139726">
        <ele>417</ele>
        <time>2010-01-01T06:17:24Z</time>
      </trkpt>
      <trkpt lat="51.435845028609037" lon="8.637046040967107">
        <ele>417</ele>
        <time>2010-01-01T06:17:27Z</time>
      </trkpt>
      <trkpt lat="51.435914011672139" lon="8.637026008218527">
        <ele>417</ele>
        <time>2010-01-01T06:17:30Z</time>
      </trkpt>
      <trkpt lat="51.435986012220383" lon="8.637037994340062">
        <ele>417</ele>
        <time>2010-01-01T06:17:33Z</time>
      </trkpt>
      <trkpt lat="51.436057006940246" lon="8.637084010988474">
        <ele>416</ele>
        <time>2010-01-01T06:17:36Z</time>
      </trkpt>
      <trkpt lat="51.436125906184316" lon="8.63716003485024">
        <ele>416</ele>
        <time>2010-01-01T06:17:39Z</time>
      </trkpt>
      <trkpt lat="51.436246018856764" lon="8.637367989867926">
        <ele>415</ele>
        <time>2010-01-01T06:17:46Z</time>
      </trkpt>
      <trkpt lat="51.436531003564596" lon="8.637970983982086">
        <ele>413</ele>
        <time>2010-01-01T06:18:05Z</time>
      </trkpt>
      <trkpt lat="51.437087813392282" lon="8.638483034446836">
        <ele>409</ele>
        <time>2010-01-01T06:18:31Z</time>
      </trkpt>
      <trkpt lat="51.43726802431047" lon="8.638662993907929">
        <ele>408</ele>
        <time>2010-01-01T06:18:40Z</time>
      </trkpt>
      <trkpt lat="51.437434908002615" lon="8.638861980289221">
        <ele>406</ele>
        <time>2010-01-01T06:18:48Z</time>
      </trkpt>
      <trkpt lat="51.437883004546165" lon="8.63924696110189">
        <ele>403</ele>
        <time>2010-01-01T06:19:08Z</time>
      </trkpt>
      <trkpt lat="51.437978809699416" lon="8.639292977750301">
        <ele>402</ele>
        <time>2010-01-01T06:19:12Z</time>
      </trkpt>
      <trkpt lat="51.438310900703073" lon="8.639358021318913">
        <ele>400</ele>
        <time>2010-01-01T06:19:26Z</time>
      </trkpt>
      <trkpt lat="51.438971813768148" lon="8.639344023540616">
        <ele>396</ele>
        <time>2010-01-01T06:19:52Z</time>
      </trkpt>
      <trkpt lat="51.43931002356112" lon="8.63928702659905">
        <ele>394</ele>
        <time>2010-01-01T06:20:06Z</time>
      </trkpt>
      <trkpt lat="51.439772034063935" lon="8.639185018837452">
        <ele>391</ele>
        <time>2010-01-01T06:20:24Z</time>
      </trkpt>
      <trkpt lat="51.440347032621503" lon="8.63913799636066">
        <ele>386</ele>
        <time>2010-01-01T06:20:47Z</time>
      </trkpt>
      <trkpt lat="51.440810803323984" lon="8.639155011624098">
        <ele>381</ele>
        <time>2010-01-01T06:21:06Z</time>
      </trkpt>
      <trkpt lat="51.441294020041823" lon="8.639238998293877">
        <ele>378</ele>
        <time>2010-01-01T06:21:25Z</time>
      </trkpt>
      <trkpt lat="51.441919812932611" lon="8.639322984963656">
        <ele>374</ele>
        <time>2010-01-01T06:21:51Z</time>
      </trkpt>
      <trkpt lat="51.442448040470481" lon="8.63931099884212">
        <ele>372</ele>
        <time>2010-01-01T06:22:12Z</time>
      </trkpt>
      <trkpt lat="51.442712908610702" lon="8.639257019385696">
        <ele>372</ele>
        <time>2010-01-01T06:22:22Z</time>
      </trkpt>
      <trkpt lat="51.443107025697827" lon="8.639098014682531">
        <ele>372</ele>
        <time>2010-01-01T06:22:39Z</time>
      </trkpt>
      <trkpt lat="51.443236023187637" lon="8.639024002477527">
        <ele>372</ele>
        <time>2010-01-01T06:22:44Z</time>
      </trkpt>
      <trkpt lat="51.443482032045722" lon="8.638846976682544">
        <ele>374</ele>
        <time>2010-01-01T06:22:55Z</time>
      </trkpt>
      <trkpt lat="51.443598037585616" lon="8.638743963092566">
        <ele>375</ele>
        <time>2010-01-01T06:23:00Z</time>
      </trkpt>
      <trkpt lat="51.444436814635992" lon="8.637744002044201">
        <ele>375</ele>
        <time>2010-01-01T06:23:42Z</time>
      </trkpt>
      <trkpt lat="51.444628005847335" lon="8.637610981240869">
        <ele>374</ele>
        <time>2010-01-01T06:23:50Z</time>
      </trkpt>
      <trkpt lat="51.44492581486702" lon="8.637498999014497">
        <ele>372</ele>
        <time>2010-01-01T06:24:03Z</time>
      </trkpt>
      <trkpt lat="51.445324793457985" lon="8.63731300458312">
        <ele>376</ele>
        <time>2010-01-01T06:24:19Z</time>
      </trkpt>
      <trkpt lat="51.445420011878014" lon="8.637233963236213">
        <ele>377</ele>
        <time>2010-01-01T06:24:24Z</time>
      </trkpt>
      <trkpt lat="51.445689909160137" lon="8.636929029598832">
        <ele>377</ele>
        <time>2010-01-01T06:24:37Z</time>
      </trkpt>
      <trkpt lat="51.445767022669315" lon="8.63679701462388">
        <ele>377</ele>
        <time>2010-01-01T06:24:41Z</time>
      </trkpt>
      <trkpt lat="51.445901803672314" lon="8.636485040187836">
        <ele>377</ele>
        <time>2010-01-01T06:24:51Z</time>
      </trkpt>
      <trkpt lat="51.44595880061388" lon="8.636309020221233">
        <ele>378</ele>
        <time>2010-01-01T06:24:56Z</time>
      </trkpt>
      <trkpt lat="51.446117805317044" lon="8.635515002533793">
        <ele>378</ele>
        <time>2010-01-01T06:25:17Z</time>
      </trkpt>
      <trkpt lat="51.446174802258611" lon="8.635316016152501">
        <ele>378</ele>
        <time>2010-01-01T06:25:22Z</time>
      </trkpt>
      <trkpt lat="51.446248814463615" lon="8.635133039206266">
        <ele>377</ele>
        <time>2010-01-01T06:25:27Z</time>
      </trkpt>
      <trkpt lat="51.446337914094329" lon="8.634961964562535">
        <ele>376</ele>
        <time>2010-01-01T06:25:33Z</time>
      </trkpt>
      <trkpt lat="51.446526004001498" lon="8.634649990126491">
        <ele>373</ele>
        <time>2010-01-01T06:25:44Z</time>
      </trkpt>
      <trkpt lat="51.446931017562747" lon="8.634194014593959">
        <ele>369</ele>
        <time>2010-01-01T06:26:04Z</time>
      </trkpt>
      <trkpt lat="51.447527809068561" lon="8.633796963840723">
        <ele>371</ele>
        <time>2010-01-01T06:26:29Z</time>
      </trkpt>
      <trkpt lat="51.449227910488844" lon="8.63185596652329">
        <ele>358</ele>
        <time>2010-01-01T06:27:53Z</time>
      </trkpt>
      <trkpt lat="51.450329795479774" lon="8.631163034588099">
        <ele>357</ele>
        <time>2010-01-01T06:28:40Z</time>
      </trkpt>
      <trkpt lat="51.451120795682073" lon="8.630921971052885">
        <ele>352</ele>
        <time>2010-01-01T06:29:13Z</time>
      </trkpt>
      <trkpt lat="51.451783804222941" lon="8.630932029336691">
        <ele>351</ele>
        <time>2010-01-01T06:29:39Z</time>
      </trkpt>
      <trkpt lat="51.453663026914001" lon="8.631357997655869">
        <ele>350</ele>
        <time>2010-01-01T06:30:55Z</time>
      </trkpt>
      <trkpt lat="51.454507000744343" lon="8.63146604038775">
        <ele>349</ele>
        <time>2010-01-01T06:31:29Z</time>
      </trkpt>
      <trkpt lat="51.454637004062533" lon="8.631432009860873">
        <ele>348</ele>
        <time>2010-01-01T06:31:34Z</time>
      </trkpt>
      <trkpt lat="51.454764911904931" lon="8.631365960463882">
        <ele>347</ele>
        <time>2010-01-01T06:31:40Z</time>
      </trkpt>
      <trkpt lat="51.454881001263857" lon="8.631266970187426">
        <ele>345</ele>
        <time>2010-01-01T06:31:45Z</time>
      </trkpt>
      <trkpt lat="51.454986026510596" lon="8.631143001839519">
        <ele>342</ele>
        <time>2010-01-01T06:31:50Z</time>
      </trkpt>
      <trkpt lat="51.455086022615433" lon="8.630991037935019">
        <ele>339</ele>
        <time>2010-01-01T06:31:56Z</time>
      </trkpt>
      <trkpt lat="51.455723801627755" lon="8.62977197393775">
        <ele>322</ele>
        <time>2010-01-01T06:32:35Z</time>
      </trkpt>
      <trkpt lat="51.456139795482159" lon="8.628477975726128">
        <ele>320</ele>
        <time>2010-01-01T06:33:12Z</time>
      </trkpt>
      <trkpt lat="51.456235013902187" lon="8.627583039924502">
        <ele>318</ele>
        <time>2010-01-01T06:33:34Z</time>
      </trkpt>
      <trkpt lat="51.456267032772303" lon="8.627412971109152">
        <ele>318</ele>
        <time>2010-01-01T06:33:39Z</time>
      </trkpt>
      <trkpt lat="51.456315815448761" lon="8.62725798971951">
        <ele>318</ele>
        <time>2010-01-01T06:33:43Z</time>
      </trkpt>
      <trkpt lat="51.456383038312197" lon="8.627119017764926">
        <ele>317</ele>
        <time>2010-01-01T06:33:47Z</time>
      </trkpt>
      <trkpt lat="51.456465013325214" lon="8.627004018053412">
        <ele>317</ele>
        <time>2010-01-01T06:33:52Z</time>
      </trkpt>
      <trkpt lat="51.456748908385634" lon="8.62676102668047">
        <ele>316</ele>
        <time>2010-01-01T06:34:05Z</time>
      </trkpt>
      <trkpt lat="51.456850916147232" lon="8.626701012253761">
        <ele>315</ele>
        <time>2010-01-01T06:34:09Z</time>
      </trkpt>
      <trkpt lat="51.457058032974601" lon="8.626620965078473">
        <ele>314</ele>
        <time>2010-01-01T06:34:18Z</time>
      </trkpt>
      <trkpt lat="51.458062017336488" lon="8.62641996704042">
        <ele>313</ele>
        <time>2010-01-01T06:34:58Z</time>
      </trkpt>
      <trkpt lat="51.459141103550792" lon="8.626220226287842">
        <ele>313</ele>
        <time>2010-01-01T06:35:42Z</time>
      </trkpt>
      <trkpt lat="51.458994001150131" lon="8.625082969665527">
        <ele>312</ele>
        <time>2010-01-01T06:36:11Z</time>
      </trkpt>
      <trkpt lat="51.459021912887692" lon="8.624463966116309">
        <ele>313</ele>
        <time>2010-01-01T06:36:26Z</time>
      </trkpt>
      <trkpt lat="51.459067007526755" lon="8.624079991132021">
        <ele>314</ele>
        <time>2010-01-01T06:36:36Z</time>
      </trkpt>
      <trkpt lat="51.459187036380172" lon="8.623581016436219">
        <ele>317</ele>
        <time>2010-01-01T06:36:49Z</time>
      </trkpt>
      <trkpt lat="51.459282003343105" lon="8.623371971771121">
        <ele>318</ele>
        <time>2010-01-01T06:36:56Z</time>
      </trkpt>
      <trkpt lat="51.460136035457253" lon="8.622295986860991">
        <ele>316</ele>
        <time>2010-01-01T06:37:39Z</time>
      </trkpt>
      <trkpt lat="51.460551023483276" lon="8.621169039979577">
        <ele>312</ele>
        <time>2010-01-01T06:38:12Z</time>
      </trkpt>
      <trkpt lat="51.460591005161405" lon="8.620762014761567">
        <ele>312</ele>
        <time>2010-01-01T06:38:22Z</time>
      </trkpt>
      <trkpt lat="51.460585808381438" lon="8.617641013115645">
        <ele>317</ele>
        <time>2010-01-01T06:39:40Z</time>
      </trkpt>
      <trkpt lat="51.460640793666244" lon="8.617421993985772">
        <ele>317</ele>
        <time>2010-01-01T06:39:46Z</time>
      </trkpt>
      <trkpt lat="51.460691001266241" lon="8.617339013144374">
        <ele>316</ele>
        <time>2010-01-01T06:39:49Z</time>
      </trkpt>
      <trkpt lat="51.460837014019489" lon="8.617232982069254">
        <ele>315</ele>
        <time>2010-01-01T06:39:55Z</time>
      </trkpt>
      <trkpt lat="51.461674030870199" lon="8.616826040670276">
        <ele>311</ele>
        <time>2010-01-01T06:40:30Z</time>
      </trkpt>
      <trkpt lat="51.462146015837789" lon="8.6166210193187">
        <ele>309</ele>
        <time>2010-01-01T06:40:50Z</time>
      </trkpt>
      <trkpt lat="51.462239809334278" lon="8.616608027368784">
        <ele>309</ele>
        <time>2010-01-01T06:40:53Z</time>
      </trkpt>
      <trkpt lat="51.462336033582687" lon="8.616615990176797">
        <ele>309</ele>
        <time>2010-01-01T06:40:57Z</time>
      </trkpt>
      <trkpt lat="51.462434018030763" lon="8.616653038188815">
        <ele>308</ele>
        <time>2010-01-01T06:41:01Z</time>
      </trkpt>
      <trkpt lat="51.462526805698872" lon="8.616722021251917">
        <ele>308</ele>
        <time>2010-01-01T06:41:05Z</time>
      </trkpt>
      <trkpt lat="51.463055033236742" lon="8.617240022867918">
        <ele>309</ele>
        <time>2010-01-01T06:41:30Z</time>
      </trkpt>
      <trkpt lat="51.46314580924809" lon="8.617315962910652">
        <ele>309</ele>
        <time>2010-01-01T06:41:34Z</time>
      </trkpt>
      <trkpt lat="51.463241027668118" lon="8.617369020357728">
        <ele>310</ele>
        <time>2010-01-01T06:41:38Z</time>
      </trkpt>
      <trkpt lat="51.463341023772955" lon="8.61739500425756">
        <ele>310</ele>
        <time>2010-01-01T06:41:42Z</time>
      </trkpt>
      <trkpt lat="51.463444037362933" lon="8.617401961237192">
        <ele>312</ele>
        <time>2010-01-01T06:41:46Z</time>
      </trkpt>
      <trkpt lat="51.463766908273101" lon="8.617369020357728">
        <ele>319</ele>
        <time>2010-01-01T06:41:59Z</time>
      </trkpt>
      <trkpt lat="51.463866904377937" lon="8.6173100117594">
        <ele>321</ele>
        <time>2010-01-01T06:42:04Z</time>
      </trkpt>
      <trkpt lat="51.463950807228684" lon="8.61720004118979">
        <ele>322</ele>
        <time>2010-01-01T06:42:08Z</time>
      </trkpt>
      <trkpt lat="51.464151805266738" lon="8.616792010143399">
        <ele>320</ele>
        <time>2010-01-01T06:42:21Z</time>
      </trkpt>
      <trkpt lat="51.464250041171908" lon="8.616463020443916">
        <ele>317</ele>
        <time>2010-01-01T06:42:30Z</time>
      </trkpt>
      <trkpt lat="51.464764019474387" lon="8.613429022952914">
        <ele>322</ele>
        <time>2010-01-01T06:43:48Z</time>
      </trkpt>
      <trkpt lat="51.465094015002251" lon="8.612359995022416">
        <ele>319</ele>
        <time>2010-01-01T06:44:18Z</time>
      </trkpt>
      <trkpt lat="51.465549906715751" lon="8.611203962936997">
        <ele>320</ele>
        <time>2010-01-01T06:44:52Z</time>
      </trkpt>
      <trkpt lat="51.466232025995851" lon="8.609917005524039">
        <ele>312</ele>
        <time>2010-01-01T06:45:34Z</time>
      </trkpt>
      <trkpt lat="51.466463031247258" lon="8.609621962532401">
        <ele>310</ele>
        <time>2010-01-01T06:45:46Z</time>
      </trkpt>
      <trkpt lat="51.466556908562779" lon="8.609565971419215">
        <ele>310</ele>
        <time>2010-01-01T06:45:50Z</time>
      </trkpt>
      <trkpt lat="51.466656904667616" lon="8.609545016661286">
        <ele>310</ele>
        <time>2010-01-01T06:45:54Z</time>
      </trkpt>
      <trkpt lat="51.466762013733387" lon="8.609554991126061">
        <ele>310</ele>
        <time>2010-01-01T06:45:59Z</time>
      </trkpt>
      <trkpt lat="51.468033799901605" lon="8.60998397693038">
        <ele>310</ele>
        <time>2010-01-01T06:46:51Z</time>
      </trkpt>
      <trkpt lat="51.468239910900593" lon="8.610079027712345">
        <ele>310</ele>
        <time>2010-01-01T06:46:59Z</time>
      </trkpt>
      <trkpt lat="51.468334039673209" lon="8.610151028260589">
        <ele>310</ele>
        <time>2010-01-01T06:47:03Z</time>
      </trkpt>
      <trkpt lat="51.468420037999749" lon="8.610239960253239">
        <ele>311</ele>
        <time>2010-01-01T06:47:07Z</time>
      </trkpt>
      <trkpt lat="51.469170805066824" lon="8.611217038705945">
        <ele>314</ele>
        <time>2010-01-01T06:47:46Z</time>
      </trkpt>
      <trkpt lat="51.469968007877469" lon="8.611824978142977">
        <ele>309</ele>
        <time>2010-01-01T06:48:21Z</time>
      </trkpt>
      <trkpt lat="51.470178812742233" lon="8.611848028376699">
        <ele>310</ele>
        <time>2010-01-01T06:48:30Z</time>
      </trkpt>
      <trkpt lat="51.470390791073442" lon="8.611820032820106">
        <ele>311</ele>
        <time>2010-01-01T06:48:38Z</time>
      </trkpt>
      <trkpt lat="51.4704948104918" lon="8.611783990636468">
        <ele>311</ele>
        <time>2010-01-01T06:48:43Z</time>
      </trkpt>
      <trkpt lat="51.470598913729191" lon="8.611720958724618">
        <ele>311</ele>
        <time>2010-01-01T06:48:47Z</time>
      </trkpt>
      <trkpt lat="51.470689019188285" lon="8.611630015075207">
        <ele>310</ele>
        <time>2010-01-01T06:48:51Z</time>
      </trkpt>
      <trkpt lat="51.470766803249717" lon="8.611515015363693">
        <ele>310</ele>
        <time>2010-01-01T06:48:56Z</time>
      </trkpt>
      <trkpt lat="51.470897812396288" lon="8.611232964321971">
        <ele>310</ele>
        <time>2010-01-01T06:49:04Z</time>
      </trkpt>
      <trkpt lat="51.471241805702448" lon="8.610331993550062">
        <ele>310</ele>
        <time>2010-01-01T06:49:31Z</time>
      </trkpt>
      <trkpt lat="51.471727034077048" lon="8.609364973381162">
        <ele>309</ele>
        <time>2010-01-01T06:50:02Z</time>
      </trkpt>
      <trkpt lat="51.472219806164503" lon="8.608775977045298">
        <ele>309</ele>
        <time>2010-01-01T06:50:26Z</time>
      </trkpt>
      <trkpt lat="51.472765803337097" lon="8.608299968764186">
        <ele>306</ele>
        <time>2010-01-01T06:50:51Z</time>
      </trkpt>
      <trkpt lat="51.473293025046587" lon="8.608068041503429">
        <ele>308</ele>
        <time>2010-01-01T06:51:13Z</time>
      </trkpt>
      <trkpt lat="51.473996015265584" lon="8.607603013515472">
        <ele>313</ele>
        <time>2010-01-01T06:51:43Z</time>
      </trkpt>
      <trkpt lat="51.474943002685905" lon="8.606894994154573">
        <ele>309</ele>
        <time>2010-01-01T06:52:25Z</time>
      </trkpt>
      <trkpt lat="51.475137798115611" lon="8.606770019978285">
        <ele>308</ele>
        <time>2010-01-01T06:52:34Z</time>
      </trkpt>
      <trkpt lat="51.47544901818037" lon="8.606594000011683">
        <ele>308</ele>
        <time>2010-01-01T06:52:47Z</time>
      </trkpt>
      <trkpt lat="51.475668791681528" lon="8.606500960886478">
        <ele>308</ele>
        <time>2010-01-01T06:52:56Z</time>
      </trkpt>
      <trkpt lat="51.4758878108114" lon="8.606442958116531">
        <ele>309</ele>
        <time>2010-01-01T06:53:05Z</time>
      </trkpt>
      <trkpt lat="51.476114038378" lon="8.606427032500505">
        <ele>308</ele>
        <time>2010-01-01T06:53:14Z</time>
      </trkpt>
      <trkpt lat="51.476350910961628" lon="8.606485035270453">
        <ele>307</ele>
        <time>2010-01-01T06:53:24Z</time>
      </trkpt>
      <trkpt lat="51.47710301913321" lon="8.606770019978285">
        <ele>305</ele>
        <time>2010-01-01T06:53:54Z</time>
      </trkpt>
      <trkpt lat="51.478602038696408" lon="8.607396986335516">
        <ele>301</ele>
        <time>2010-01-01T06:54:56Z</time>
      </trkpt>
      <trkpt lat="51.478906804695725" lon="8.607582980766892">
        <ele>299</ele>
        <time>2010-01-01T06:55:10Z</time>
      </trkpt>
      <trkpt lat="51.48006803356111" lon="8.608519993722439">
        <ele>291</ele>
        <time>2010-01-01T06:56:02Z</time>
      </trkpt>
      <trkpt lat="51.480563906952739" lon="8.608782012015581">
        <ele>289</ele>
        <time>2010-01-01T06:56:22Z</time>
      </trkpt>
      <trkpt lat="51.481003034859896" lon="8.608887037262321">
        <ele>289</ele>
        <time>2010-01-01T06:56:40Z</time>
      </trkpt>
      <trkpt lat="51.481116022914648" lon="8.608884019777179">
        <ele>290</ele>
        <time>2010-01-01T06:56:45Z</time>
      </trkpt>
      <trkpt lat="51.481231022626162" lon="8.608860969543457">
        <ele>291</ele>
        <time>2010-01-01T06:56:49Z</time>
      </trkpt>
      <trkpt lat="51.481456914916635" lon="8.60875703394413">
        <ele>293</ele>
        <time>2010-01-01T06:56:59Z</time>
      </trkpt>
      <trkpt lat="51.481556911021471" lon="8.608682015910745">
        <ele>294</ele>
        <time>2010-01-01T06:57:03Z</time>
      </trkpt>
      <trkpt lat="51.481736032292247" lon="8.608481017872691">
        <ele>296</ele>
        <time>2010-01-01T06:57:12Z</time>
      </trkpt>
      <trkpt lat="51.481947004795074" lon="8.608101988211274">
        <ele>301</ele>
        <time>2010-01-01T06:57:25Z</time>
      </trkpt>
      <trkpt lat="51.48273691534996" lon="8.607044024392963">
        <ele>300</ele>
        <time>2010-01-01T06:58:06Z</time>
      </trkpt>
      <trkpt lat="51.484140800312161" lon="8.60607398673892">
        <ele>290</ele>
        <time>2010-01-01T06:59:07Z</time>
      </trkpt>
      <trkpt lat="51.485505038872361" lon="8.605396980419755">
        <ele>290</ele>
        <time>2010-01-01T07:00:04Z</time>
      </trkpt>
      <trkpt lat="51.486117001622915" lon="8.604842014610767">
        <ele>293</ele>
        <time>2010-01-01T07:00:32Z</time>
      </trkpt>
      <trkpt lat="51.48667280562222" lon="8.603509040549398">
        <ele>292</ele>
        <time>2010-01-01T07:01:12Z</time>
      </trkpt>
      <trkpt lat="51.487189801409841" lon="8.600586019456387">
        <ele>294</ele>
        <time>2010-01-01T07:02:28Z</time>
      </trkpt>
      <trkpt lat="51.487547792494297" lon="8.598012020811439">
        <ele>288</ele>
        <time>2010-01-01T07:03:34Z</time>
      </trkpt>
      <trkpt lat="51.487726913765073" lon="8.597143990918994">
        <ele>289</ele>
        <time>2010-01-01T07:03:57Z</time>
      </trkpt>
      <trkpt lat="51.488492013886571" lon="8.59584697522223">
        <ele>287</ele>
        <time>2010-01-01T07:04:41Z</time>
      </trkpt>
      <trkpt lat="51.489569004625082" lon="8.594588013365865">
        <ele>283</ele>
        <time>2010-01-01T07:05:34Z</time>
      </trkpt>
      <trkpt lat="51.48985281586647" lon="8.594374023377895">
        <ele>283</ele>
        <time>2010-01-01T07:05:47Z</time>
      </trkpt>
      <trkpt lat="51.490752026438713" lon="8.593941014260054">
        <ele>282</ele>
        <time>2010-01-01T07:06:25Z</time>
      </trkpt>
      <trkpt lat="51.491012033075094" lon="8.593906983733177">
        <ele>282</ele>
        <time>2010-01-01T07:06:35Z</time>
      </trkpt>
      <trkpt lat="51.4921860024333" lon="8.593839006498456">
        <ele>281</ele>
        <time>2010-01-01T07:07:22Z</time>
      </trkpt>
      <trkpt lat="51.493287803605199" lon="8.593545975163579">
        <ele>282</ele>
        <time>2010-01-01T07:08:07Z</time>
      </trkpt>
      <trkpt lat="51.493605813011527" lon="8.593529965728521">
        <ele>281</ele>
        <time>2010-01-01T07:08:19Z</time>
      </trkpt>
      <trkpt lat="51.493686027824879" lon="8.593545975163579">
        <ele>281</ele>
        <time>2010-01-01T07:08:23Z</time>
      </trkpt>
      <trkpt lat="51.494173016399145" lon="8.593716965988278">
        <ele>284</ele>
        <time>2010-01-01T07:08:43Z</time>
      </trkpt>
      <trkpt lat="51.495012799277902" lon="8.5939110070467">
        <ele>283</ele>
        <time>2010-01-01T07:09:17Z</time>
      </trkpt>
      <trkpt lat="51.495098797604442" lon="8.593916036188602">
        <ele>283</ele>
        <time>2010-01-01T07:09:20Z</time>
      </trkpt>
      <trkpt lat="51.496149804443121" lon="8.593677990138531">
        <ele>279</ele>
        <time>2010-01-01T07:10:03Z</time>
      </trkpt>
      <trkpt lat="51.496697813272476" lon="8.593451008200645">
        <ele>278</ele>
        <time>2010-01-01T07:10:25Z</time>
      </trkpt>
      <trkpt lat="51.49678691290319" lon="8.593403985723853">
        <ele>278</ele>
        <time>2010-01-01T07:10:29Z</time>
      </trkpt>
      <trkpt lat="51.497123027220368" lon="8.593170968815684">
        <ele>276</ele>
        <time>2010-01-01T07:10:44Z</time>
      </trkpt>
      <trkpt lat="51.497464003041387" lon="8.592871986329556">
        <ele>274</ele>
        <time>2010-01-01T07:10:59Z</time>
      </trkpt>
      <trkpt lat="51.498176800087094" lon="8.592023989185691">
        <ele>277</ele>
        <time>2010-01-01T07:11:35Z</time>
      </trkpt>
      <trkpt lat="51.498477794229984" lon="8.591585028916597">
        <ele>279</ele>
        <time>2010-01-01T07:11:51Z</time>
      </trkpt>
      <trkpt lat="51.498825810849667" lon="8.591006007045507">
        <ele>280</ele>
        <time>2010-01-01T07:12:11Z</time>
      </trkpt>
      <trkpt lat="51.499584792181849" lon="8.589524002745748">
        <ele>287</ele>
        <time>2010-01-01T07:12:59Z</time>
      </trkpt>
      <trkpt lat="51.500091813504696" lon="8.588353972882032">
        <ele>286</ele>
        <time>2010-01-01T07:13:34Z</time>
      </trkpt>
      <trkpt lat="51.500407895073295" lon="8.587274551391602">
        <ele>287</ele>
        <time>2010-01-01T07:14:04Z</time>
      </trkpt>
      <trkpt lat="51.500541502609849" lon="8.586266040802002">
        <ele>283</ele>
        <time>2010-01-01T07:14:30Z</time>
      </trkpt>
      <trkpt lat="51.500514931976795" lon="8.585085868835449">
        <ele>277</ele>
        <time>2010-01-01T07:14:59Z</time>
      </trkpt>
      <trkpt lat="51.500925812870264" lon="8.583436980843544">
        <ele>274</ele>
        <time>2010-01-01T07:15:43Z</time>
      </trkpt>
      <trkpt lat="51.501628803089261" lon="8.58078301884234">
        <ele>274</ele>
        <time>2010-01-01T07:16:55Z</time>
      </trkpt>
      <trkpt lat="51.501759812235832" lon="8.579995036125183">
        <ele>276</ele>
        <time>2010-01-01T07:17:16Z</time>
      </trkpt>
      <trkpt lat="51.501851007342339" lon="8.578437007963657">
        <ele>281</ele>
        <time>2010-01-01T07:17:55Z</time>
      </trkpt>
      <trkpt lat="51.501616900786757" lon="8.57640297152102">
        <ele>279</ele>
        <time>2010-01-01T07:18:46Z</time>
      </trkpt>
      <trkpt lat="51.501126810908318" lon="8.575065974146128">
        <ele>277</ele>
        <time>2010-01-01T07:19:25Z</time>
      </trkpt>
      <trkpt lat="51.50108590722084" lon="8.574933959171176">
        <ele>276</ele>
        <time>2010-01-01T07:19:29Z</time>
      </trkpt>
      <trkpt lat="51.501009799540043" lon="8.574496004730463">
        <ele>275</ele>
        <time>2010-01-01T07:19:40Z</time>
      </trkpt>
      <trkpt lat="51.500992029905319" lon="8.573836013674736">
        <ele>273</ele>
        <time>2010-01-01T07:19:56Z</time>
      </trkpt>
      <trkpt lat="51.501049026846886" lon="8.573497971519828">
        <ele>273</ele>
        <time>2010-01-01T07:20:05Z</time>
      </trkpt>
      <trkpt lat="51.501253796741366" lon="8.572543021291494">
        <ele>275</ele>
        <time>2010-01-01T07:20:30Z</time>
      </trkpt>
      <trkpt lat="51.501307021826506" lon="8.572402959689498">
        <ele>275</ele>
        <time>2010-01-01T07:20:34Z</time>
      </trkpt>
      <trkpt lat="51.50138002820313" lon="8.57227697968483">
        <ele>275</ele>
        <time>2010-01-01T07:20:39Z</time>
      </trkpt>
      <trkpt lat="51.501786801964045" lon="8.571733999997377">
        <ele>273</ele>
        <time>2010-01-01T07:21:00Z</time>
      </trkpt>
      <trkpt lat="51.501947902143002" lon="8.571554040536284">
        <ele>272</ele>
        <time>2010-01-01T07:21:08Z</time>
      </trkpt>
      <trkpt lat="51.50267880409956" lon="8.570268005132675">
        <ele>268</ele>
        <time>2010-01-01T07:21:51Z</time>
      </trkpt>
      <trkpt lat="51.503151040524244" lon="8.568490035831928">
        <ele>273</ele>
        <time>2010-01-01T07:22:39Z</time>
      </trkpt>
      <trkpt lat="51.503311805427074" lon="8.566981041803956">
        <ele>271</ele>
        <time>2010-01-01T07:23:17Z</time>
      </trkpt>
      <trkpt lat="51.503706006333232" lon="8.564708037301898">
        <ele>273</ele>
        <time>2010-01-01T07:24:16Z</time>
      </trkpt>
      <trkpt lat="51.504291901364923" lon="8.562455987557769">
        <ele>271</ele>
        <time>2010-01-01T07:25:17Z</time>
      </trkpt>
      <trkpt lat="51.504766903817654" lon="8.560231011360884">
        <ele>273</ele>
        <time>2010-01-01T07:26:16Z</time>
      </trkpt>
      <trkpt lat="51.505366796627641" lon="8.558705002069473">
        <ele>269</ele>
        <time>2010-01-01T07:27:01Z</time>
      </trkpt>
      <trkpt lat="51.506424006074667" lon="8.556583039462566">
        <ele>265</ele>
        <time>2010-01-01T07:28:08Z</time>
      </trkpt>
      <trkpt lat="51.507046027109027" lon="8.55528200045228">
        <ele>265</ele>
        <time>2010-01-01T07:28:49Z</time>
      </trkpt>
      <trkpt lat="51.507315002381802" lon="8.553853975608945">
        <ele>261</ele>
        <time>2010-01-01T07:29:26Z</time>
      </trkpt>
      <trkpt lat="51.507385913282633" lon="8.553373022004962">
        <ele>260</ele>
        <time>2010-01-01T07:29:39Z</time>
      </trkpt>
      <trkpt lat="51.507474007084966" lon="8.553078984841704">
        <ele>258</ele>
        <time>2010-01-01T07:29:47Z</time>
      </trkpt>
      <trkpt lat="51.50752991437912" lon="8.552941018715501">
        <ele>257</ele>
        <time>2010-01-01T07:29:51Z</time>
      </trkpt>
      <trkpt lat="51.507667796686292" lon="8.552700038999319">
        <ele>256</ele>
        <time>2010-01-01T07:29:59Z</time>
      </trkpt>
      <trkpt lat="51.507822023704648" lon="8.552496023476124">
        <ele>256</ele>
        <time>2010-01-01T07:30:07Z</time>
      </trkpt>
      <trkpt lat="51.508848806843162" lon="8.551603015512228">
        <ele>262</ele>
        <time>2010-01-01T07:30:54Z</time>
      </trkpt>
      <trkpt lat="51.510016908869147" lon="8.550625015050173">
        <ele>262</ele>
        <time>2010-01-01T07:31:46Z</time>
      </trkpt>
      <trkpt lat="51.510527031496167" lon="8.550256965681911">
        <ele>261</ele>
        <time>2010-01-01T07:32:09Z</time>
      </trkpt>
      <trkpt lat="51.51131090708077" lon="8.549733012914658">
        <ele>260</ele>
        <time>2010-01-01T07:32:43Z</time>
      </trkpt>
      <trkpt lat="51.511762021109462" lon="8.549405029043555">
        <ele>259</ele>
        <time>2010-01-01T07:33:03Z</time>
      </trkpt>
      <trkpt lat="51.512000905349851" lon="8.549152985215187">
        <ele>259</ele>
        <time>2010-01-01T07:33:14Z</time>
      </trkpt>
      <trkpt lat="51.512225791811943" lon="8.54887998662889">
        <ele>261</ele>
        <time>2010-01-01T07:33:25Z</time>
      </trkpt>
      <trkpt lat="51.512976810336113" lon="8.547853035852313">
        <ele>260</ele>
        <time>2010-01-01T07:34:05Z</time>
      </trkpt>
      <trkpt lat="51.513422811403871" lon="8.546619974076748">
        <ele>255</ele>
        <time>2010-01-01T07:34:40Z</time>
      </trkpt>
      <trkpt lat="51.513510905206203" lon="8.54634596966207">
        <ele>254</ele>
        <time>2010-01-01T07:34:48Z</time>
      </trkpt>
      <trkpt lat="51.514022033661604" lon="8.545447010546923">
        <ele>252</ele>
        <time>2010-01-01T07:35:18Z</time>
      </trkpt>
      <trkpt lat="51.514806915074587" lon="8.544422993436456">
        <ele>248</ele>
        <time>2010-01-01T07:35:59Z</time>
      </trkpt>
      <trkpt lat="51.515188040211797" lon="8.544014962390065">
        <ele>249</ele>
        <time>2010-01-01T07:36:17Z</time>
      </trkpt>
      <trkpt lat="51.515951799228787" lon="8.543382966890931">
        <ele>251</ele>
        <time>2010-01-01T07:36:52Z</time>
      </trkpt>
      <trkpt lat="51.516539035364985" lon="8.542859014123678">
        <ele>252</ele>
        <time>2010-01-01T07:37:18Z</time>
      </trkpt>
      <trkpt lat="51.517647039145231" lon="8.541778000071645">
        <ele>248</ele>
        <time>2010-01-01T07:38:10Z</time>
      </trkpt>
      <trkpt lat="51.518958806991577" lon="8.540544016286731">
        <ele>243</ele>
        <time>2010-01-01T07:39:11Z</time>
      </trkpt>
      <trkpt lat="51.520865019410849" lon="8.538656998425722">
        <ele>240</ele>
        <time>2010-01-01T07:40:41Z</time>
      </trkpt>
      <trkpt lat="51.52155602350831" lon="8.537738006561995">
        <ele>238</ele>
        <time>2010-01-01T07:41:17Z</time>
      </trkpt>
      <trkpt lat="51.521901022642851" lon="8.537242971360683">
        <ele>237</ele>
        <time>2010-01-01T07:41:35Z</time>
      </trkpt>
      <trkpt lat="51.524205040186644" lon="8.533759033307433">
        <ele>236</ele>
        <time>2010-01-01T07:43:42Z</time>
      </trkpt>
      <trkpt lat="51.524409810081124" lon="8.533490980044007">
        <ele>237</ele>
        <time>2010-01-01T07:43:52Z</time>
      </trkpt>
      <trkpt lat="51.524636037647724" lon="8.533258968964219">
        <ele>238</ele>
        <time>2010-01-01T07:44:03Z</time>
      </trkpt>
      <trkpt lat="51.525507001206279" lon="8.532465035095811">
        <ele>248</ele>
        <time>2010-01-01T07:44:43Z</time>
      </trkpt>
      <trkpt lat="51.52646379545331" lon="8.53121998719871">
        <ele>256</ele>
        <time>2010-01-01T07:45:33Z</time>
      </trkpt>
      <trkpt lat="51.527302321046591" lon="8.529167175292969">
        <ele>244</ele>
        <time>2010-01-01T07:46:34Z</time>
      </trkpt>
      <trkpt lat="51.527916295453906" lon="8.528115749359131">
        <ele>243</ele>
        <time>2010-01-01T07:47:10Z</time>
      </trkpt>
      <trkpt lat="51.528196586295962" lon="8.527708053588867">
        <ele>241</ele>
        <time>2010-01-01T07:47:25Z</time>
      </trkpt>
      <trkpt lat="51.52863722294569" lon="8.527343273162842">
        <ele>239</ele>
        <time>2010-01-01T07:47:45Z</time>
      </trkpt>
      <trkpt lat="51.529415901750326" lon="8.52728602476418">
        <ele>240</ele>
        <time>2010-01-01T07:48:16Z</time>
      </trkpt>
      <trkpt lat="51.530058039352298" lon="8.527413010597229">
        <ele>239</ele>
        <time>2010-01-01T07:48:42Z</time>
      </trkpt>
      <trkpt lat="51.530706211924553" lon="8.527600765228272">
        <ele>239</ele>
        <time>2010-01-01T07:49:08Z</time>
      </trkpt>
      <trkpt lat="51.531360419467092" lon="8.52764368057251">
        <ele>237</ele>
        <time>2010-01-01T07:49:34Z</time>
      </trkpt>
      <trkpt lat="51.532214032486081" lon="8.527949033305049">
        <ele>236</ele>
        <time>2010-01-01T07:50:09Z</time>
      </trkpt>
      <trkpt lat="51.532949041575193" lon="8.528157994151115">
        <ele>236</ele>
        <time>2010-01-01T07:50:39Z</time>
      </trkpt>
      <trkpt lat="51.533642895519733" lon="8.528437614440918">
        <ele>237</ele>
        <time>2010-01-01T07:51:08Z</time>
      </trkpt>
      <trkpt lat="51.534096691757441" lon="8.528759479522705">
        <ele>239</ele>
        <time>2010-01-01T07:51:28Z</time>
      </trkpt>
      <trkpt lat="51.534563899040222" lon="8.529188632965088">
        <ele>241</ele>
        <time>2010-01-01T07:51:49Z</time>
      </trkpt>
      <trkpt lat="51.535057676956058" lon="8.529338836669922">
        <ele>243</ele>
        <time>2010-01-01T07:52:09Z</time>
      </trkpt>
      <trkpt lat="51.535853035748005" lon="8.529319977387786">
        <ele>240</ele>
        <time>2010-01-01T07:52:41Z</time>
      </trkpt>
      <trkpt lat="51.536972019821405" lon="8.529119985178113">
        <ele>241</ele>
        <time>2010-01-01T07:53:26Z</time>
      </trkpt>
      <trkpt lat="51.537418020889163" lon="8.529011020436883">
        <ele>242</ele>
        <time>2010-01-01T07:53:44Z</time>
      </trkpt>
      <trkpt lat="51.538140876218677" lon="8.528566360473633">
        <ele>236</ele>
        <time>2010-01-01T07:54:15Z</time>
      </trkpt>
      <trkpt lat="51.539155337959528" lon="8.527987003326416">
        <ele>234</ele>
        <time>2010-01-01T07:54:58Z</time>
      </trkpt>
      <trkpt lat="51.53980921022594" lon="8.527343273162842">
        <ele>230</ele>
        <time>2010-01-01T07:55:29Z</time>
      </trkpt>
      <trkpt lat="51.54019620269537" lon="8.52712869644165">
        <ele>229</ele>
        <time>2010-01-01T07:55:45Z</time>
      </trkpt>
      <trkpt lat="51.540703307837248" lon="8.527235984802246">
        <ele>229</ele>
        <time>2010-01-01T07:56:06Z</time>
      </trkpt>
      <trkpt lat="51.541146039962769" lon="8.52747998200357">
        <ele>228</ele>
        <time>2010-01-01T07:56:25Z</time>
      </trkpt>
      <trkpt lat="51.541200019419193" lon="8.527477970346808">
        <ele>228</ele>
        <time>2010-01-01T07:56:27Z</time>
      </trkpt>
      <trkpt lat="51.541248802095652" lon="8.527443017810583">
        <ele>227</ele>
        <time>2010-01-01T07:56:29Z</time>
      </trkpt>
      <trkpt lat="51.541287023574114" lon="8.527378980070353">
        <ele>227</ele>
        <time>2010-01-01T07:56:31Z</time>
      </trkpt>
      <trkpt lat="51.541314013302326" lon="8.52728895843029">
        <ele>227</ele>
        <time>2010-01-01T07:56:34Z</time>
      </trkpt>
      <trkpt lat="51.541514005511999" lon="8.525881972163916">
        <ele>226</ele>
        <time>2010-01-01T07:57:10Z</time>
      </trkpt>
      <trkpt lat="51.54165088199079" lon="8.524961471557617">
        <ele>227</ele>
        <time>2010-01-01T07:57:33Z</time>
      </trkpt>
      <trkpt lat="51.542027816176414" lon="8.524047005921602">
        <ele>232</ele>
        <time>2010-01-01T07:58:00Z</time>
      </trkpt>
      <trkpt lat="51.542181791737676" lon="8.522997004911304">
        <ele>236</ele>
        <time>2010-01-01T07:58:27Z</time>
      </trkpt>
      <trkpt lat="51.542241806164384" lon="8.522817967459559">
        <ele>236</ele>
        <time>2010-01-01T07:58:32Z</time>
      </trkpt>
      <trkpt lat="51.542326798662543" lon="8.522673966363072">
        <ele>236</ele>
        <time>2010-01-01T07:58:37Z</time>
      </trkpt>
      <trkpt lat="51.542429812252522" lon="8.522571958601475">
        <ele>236</ele>
        <time>2010-01-01T07:58:42Z</time>
      </trkpt>
      <trkpt lat="51.542541794478893" lon="8.522505993023515">
        <ele>237</ele>
        <time>2010-01-01T07:58:47Z</time>
      </trkpt>
      <trkpt lat="51.542831808328629" lon="8.522389987483621">
        <ele>241</ele>
        <time>2010-01-01T07:58:59Z</time>
      </trkpt>
      <trkpt lat="51.54304102063179" lon="8.522254033014178">
        <ele>244</ele>
        <time>2010-01-01T07:59:08Z</time>
      </trkpt>
      <trkpt lat="51.543183010071516" lon="8.522038031369448">
        <ele>245</ele>
        <time>2010-01-01T07:59:16Z</time>
      </trkpt>
      <trkpt lat="51.543395910412073" lon="8.521651038900018">
        <ele>245</ele>
        <time>2010-01-01T07:59:29Z</time>
      </trkpt>
      <trkpt lat="51.543778795748949" lon="8.520932961255312">
        <ele>245</ele>
        <time>2010-01-01T07:59:52Z</time>
      </trkpt>
      <trkpt lat="51.543859010562301" lon="8.52073397487402">
        <ele>245</ele>
        <time>2010-01-01T07:59:58Z</time>
      </trkpt>
      <trkpt lat="51.54426502995193" lon="8.519498985260725">
        <ele>247</ele>
        <time>2010-01-01T08:00:33Z</time>
      </trkpt>
      <trkpt lat="51.544377012178302" lon="8.519063964486122">
        <ele>249</ele>
        <time>2010-01-01T08:00:45Z</time>
      </trkpt>
      <trkpt lat="51.544476002454758" lon="8.518382012844086">
        <ele>251</ele>
        <time>2010-01-01T08:01:02Z</time>
      </trkpt>
      <trkpt lat="51.544500812888145" lon="8.517054989933968">
        <ele>255</ele>
        <time>2010-01-01T08:01:35Z</time>
      </trkpt>
      <trkpt lat="51.544454796239734" lon="8.515868028625846">
        <ele>257</ele>
        <time>2010-01-01T08:02:05Z</time>
      </trkpt>
      <trkpt lat="51.544429901987314" lon="8.515601987019181">
        <ele>257</ele>
        <time>2010-01-01T08:02:11Z</time>
      </trkpt>
      <trkpt lat="51.544200908392668" lon="8.514389963820577">
        <ele>254</ele>
        <time>2010-01-01T08:02:43Z</time>
      </trkpt>
      <trkpt lat="51.544064031913877" lon="8.513903981074691">
        <ele>254</ele>
        <time>2010-01-01T08:02:56Z</time>
      </trkpt>
      <trkpt lat="51.543523902073503" lon="8.512444021180272">
        <ele>254</ele>
        <time>2010-01-01T08:03:38Z</time>
      </trkpt>
      <trkpt lat="51.543222907930613" lon="8.511137031018734">
        <ele>253</ele>
        <time>2010-01-01T08:04:13Z</time>
      </trkpt>
      <trkpt lat="51.543145040050149" lon="8.509908998385072">
        <ele>255</ele>
        <time>2010-01-01T08:04:44Z</time>
      </trkpt>
      <trkpt lat="51.543197007849813" lon="8.50889596156776">
        <ele>258</ele>
        <time>2010-01-01T08:05:09Z</time>
      </trkpt>
      <trkpt lat="51.543560028076172" lon="8.507183035835624">
        <ele>261</ele>
        <time>2010-01-01T08:05:54Z</time>
      </trkpt>
      <trkpt lat="51.543803019449115" lon="8.506421037018299">
        <ele>264</ele>
        <time>2010-01-01T08:06:16Z</time>
      </trkpt>
      <trkpt lat="51.544128907844424" lon="8.504991000518203">
        <ele>268</ele>
        <time>2010-01-01T08:06:53Z</time>
      </trkpt>
      <trkpt lat="51.544165033847094" lon="8.503484018146992">
        <ele>272</ele>
        <time>2010-01-01T08:07:31Z</time>
      </trkpt>
      <trkpt lat="51.544139804318547" lon="8.503140024840832">
        <ele>273</ele>
        <time>2010-01-01T08:07:40Z</time>
      </trkpt>
      <trkpt lat="51.544021032750607" lon="8.501621978357434">
        <ele>274</ele>
        <time>2010-01-01T08:08:18Z</time>
      </trkpt>
      <trkpt lat="51.543758008629084" lon="8.498671967536211">
        <ele>282</ele>
        <time>2010-01-01T08:09:32Z</time>
      </trkpt>
      <trkpt lat="51.543597914278507" lon="8.497719028964639">
        <ele>282</ele>
        <time>2010-01-01T08:09:56Z</time>
      </trkpt>
      <trkpt lat="51.543499007821083" lon="8.497255006805062">
        <ele>282</ele>
        <time>2010-01-01T08:10:09Z</time>
      </trkpt>
      <trkpt lat="51.543060801923275" lon="8.495723968371749">
        <ele>286</ele>
        <time>2010-01-01T08:10:51Z</time>
      </trkpt>
      <trkpt lat="51.542477002367377" lon="8.494212040677667">
        <ele>284</ele>
        <time>2010-01-01T08:11:35Z</time>
      </trkpt>
      <trkpt lat="51.541897812858224" lon="8.493005968630314">
        <ele>287</ele>
        <time>2010-01-01T08:12:13Z</time>
      </trkpt>
      <trkpt lat="51.54091402888298" lon="8.491393039003015">
        <ele>291</ele>
        <time>2010-01-01T08:13:09Z</time>
      </trkpt>
      <trkpt lat="51.540512032806873" lon="8.490873025730252">
        <ele>294</ele>
        <time>2010-01-01T08:13:30Z</time>
      </trkpt>
      <trkpt lat="51.539544006809592" lon="8.489550026133657">
        <ele>305</ele>
        <time>2010-01-01T08:14:21Z</time>
      </trkpt>
      <trkpt lat="51.538927014917135" lon="8.488629022613168">
        <ele>308</ele>
        <time>2010-01-01T08:14:54Z</time>
      </trkpt>
      <trkpt lat="51.538273813202977" lon="8.487577009946108">
        <ele>304</ele>
        <time>2010-01-01T08:15:31Z</time>
      </trkpt>
      <trkpt lat="51.537765031680465" lon="8.486665980890393">
        <ele>300</ele>
        <time>2010-01-01T08:16:02Z</time>
      </trkpt>
      <trkpt lat="51.537481807172298" lon="8.486111015081406">
        <ele>300</ele>
        <time>2010-01-01T08:16:20Z</time>
      </trkpt>
      <trkpt lat="51.537205036729574" lon="8.48549603484571">
        <ele>300</ele>
        <time>2010-01-01T08:16:39Z</time>
      </trkpt>
      <trkpt lat="51.536635905504227" lon="8.484104974195361">
        <ele>294</ele>
        <time>2010-01-01T08:17:20Z</time>
      </trkpt>
      <trkpt lat="51.536269029602408" lon="8.483065031468868">
        <ele>297</ele>
        <time>2010-01-01T08:17:50Z</time>
      </trkpt>
      <trkpt lat="51.536495005711913" lon="8.482358017936349">
        <ele>304</ele>
        <time>2010-01-01T08:18:10Z</time>
      </trkpt>
      <trkpt lat="51.536507913842797" lon="8.48218803294003">
        <ele>305</ele>
        <time>2010-01-01T08:18:14Z</time>
      </trkpt>
      <trkpt lat="51.53648603707552" lon="8.481763992458582">
        <ele>306</ele>
        <time>2010-01-01T08:18:25Z</time>
      </trkpt>
      <trkpt lat="51.536290906369686" lon="8.481229981407523">
        <ele>307</ele>
        <time>2010-01-01T08:18:40Z</time>
      </trkpt>
      <trkpt lat="51.535722026601434" lon="8.479923997074366">
        <ele>308</ele>
        <time>2010-01-01T08:19:20Z</time>
      </trkpt>
      <trkpt lat="51.535587916150689" lon="8.47941898740828">
        <ele>310</ele>
        <time>2010-01-01T08:19:33Z</time>
      </trkpt>
      <trkpt lat="51.535585904493928" lon="8.479360984638333">
        <ele>311</ele>
        <time>2010-01-01T08:19:35Z</time>
      </trkpt>
      <trkpt lat="51.53564902022481" lon="8.478999976068735">
        <ele>314</ele>
        <time>2010-01-01T08:19:44Z</time>
      </trkpt>
      <trkpt lat="51.535672908648849" lon="8.478950019925833">
        <ele>315</ele>
        <time>2010-01-01T08:19:46Z</time>
      </trkpt>
      <trkpt lat="51.53572479262948" lon="8.478857986629009">
        <ele>316</ele>
        <time>2010-01-01T08:19:49Z</time>
      </trkpt>
      <trkpt lat="51.535903913900256" lon="8.478742986917496">
        <ele>319</ele>
        <time>2010-01-01T08:19:56Z</time>
      </trkpt>
      <trkpt lat="51.536027798429132" lon="8.478749021887779">
        <ele>321</ele>
        <time>2010-01-01T08:20:01Z</time>
      </trkpt>
      <trkpt lat="51.536328038200736" lon="8.478954965248704">
        <ele>323</ele>
        <time>2010-01-01T08:20:14Z</time>
      </trkpt>
      <trkpt lat="51.53661503456533" lon="8.479216983541846">
        <ele>325</ele>
        <time>2010-01-01T08:20:28Z</time>
      </trkpt>
      <trkpt lat="51.536731040105224" lon="8.479279009625316">
        <ele>326</ele>
        <time>2010-01-01T08:20:33Z</time>
      </trkpt>
      <trkpt lat="51.536850901320577" lon="8.479308011010289">
        <ele>327</ele>
        <time>2010-01-01T08:20:37Z</time>
      </trkpt>
      <trkpt lat="51.536928014829755" lon="8.47930901683867">
        <ele>327</ele>
        <time>2010-01-01T08:20:41Z</time>
      </trkpt>
      <trkpt lat="51.537392036989331" lon="8.479088991880417">
        <ele>332</ele>
        <time>2010-01-01T08:21:00Z</time>
      </trkpt>
      <trkpt lat="51.538136014714837" lon="8.478216016665101">
        <ele>338</ele>
        <time>2010-01-01T08:21:37Z</time>
      </trkpt>
      <trkpt lat="51.538415802642703" lon="8.477855008095503">
        <ele>339</ele>
        <time>2010-01-01T08:21:51Z</time>
      </trkpt>
      <trkpt lat="51.538692908361554" lon="8.477606987580657">
        <ele>339</ele>
        <time>2010-01-01T08:22:04Z</time>
      </trkpt>
      <trkpt lat="51.538920812308788" lon="8.477478995919228">
        <ele>339</ele>
        <time>2010-01-01T08:22:13Z</time>
      </trkpt>
      <trkpt lat="51.539062801748514" lon="8.477368019521236">
        <ele>339</ele>
        <time>2010-01-01T08:22:20Z</time>
      </trkpt>
      <trkpt lat="51.539060035720468" lon="8.477353015914559">
        <ele>339</ele>
        <time>2010-01-01T08:22:20Z</time>
      </trkpt>
      <trkpt lat="51.539122816175222" lon="8.477271962910891">
        <ele>339</ele>
        <time>2010-01-01T08:22:23Z</time>
      </trkpt>
      <trkpt lat="51.539455913007259" lon="8.476963005959988">
        <ele>337</ele>
        <time>2010-01-01T08:22:39Z</time>
      </trkpt>
      <trkpt lat="51.543894801288843" lon="8.473732033744454">
        <ele>316</ele>
        <time>2010-01-01T08:25:54Z</time>
      </trkpt>
      <trkpt lat="51.544693009927869" lon="8.473096014931798">
        <ele>312</ele>
        <time>2010-01-01T08:26:30Z</time>
      </trkpt>
      <trkpt lat="51.545043038204312" lon="8.472740035504103">
        <ele>311</ele>
        <time>2010-01-01T08:26:46Z</time>
      </trkpt>
      <trkpt lat="51.548009812831879" lon="8.469353998079896">
        <ele>299</ele>
        <time>2010-01-01T08:29:12Z</time>
      </trkpt>
      <trkpt lat="51.548188012093306" lon="8.469180995598435">
        <ele>298</ele>
        <time>2010-01-01T08:29:20Z</time>
      </trkpt>
      <trkpt lat="51.548285912722349" lon="8.469120981171727">
        <ele>298</ele>
        <time>2010-01-01T08:29:24Z</time>
      </trkpt>
      <trkpt lat="51.548493029549718" lon="8.46906297840178">
        <ele>298</ele>
        <time>2010-01-01T08:29:33Z</time>
      </trkpt>
      <trkpt lat="51.549498019739985" lon="8.468988966196775">
        <ele>298</ele>
        <time>2010-01-01T08:30:13Z</time>
      </trkpt>
      <trkpt lat="51.550065809860826" lon="8.468872038647533">
        <ele>297</ele>
        <time>2010-01-01T08:30:36Z</time>
      </trkpt>
      <trkpt lat="51.550350794568658" lon="8.468883018940687">
        <ele>297</ele>
        <time>2010-01-01T08:30:47Z</time>
      </trkpt>
      <trkpt lat="51.551575809717178" lon="8.469217037782073">
        <ele>294</ele>
        <time>2010-01-01T08:31:37Z</time>
      </trkpt>
      <trkpt lat="51.551846796646714" lon="8.469345029443502">
        <ele>293</ele>
        <time>2010-01-01T08:31:48Z</time>
      </trkpt>
      <trkpt lat="51.552036814391613" lon="8.469402026385069">
        <ele>293</ele>
        <time>2010-01-01T08:31:56Z</time>
      </trkpt>
      <trkpt lat="51.552236806601286" lon="8.469404960051179">
        <ele>292</ele>
        <time>2010-01-01T08:32:04Z</time>
      </trkpt>
      <trkpt lat="51.552436798810959" lon="8.469336982816458">
        <ele>291</ele>
        <time>2010-01-01T08:32:12Z</time>
      </trkpt>
      <trkpt lat="51.552531011402607" lon="8.46927797421813">
        <ele>291</ele>
        <time>2010-01-01T08:32:16Z</time>
      </trkpt>
      <trkpt lat="51.552977012470365" lon="8.468927023932338">
        <ele>288</ele>
        <time>2010-01-01T08:32:36Z</time>
      </trkpt>
      <trkpt lat="51.553269792348146" lon="8.46876198425889">
        <ele>286</ele>
        <time>2010-01-01T08:32:49Z</time>
      </trkpt>
      <trkpt lat="51.554089039564133" lon="8.468321012333036">
        <ele>286</ele>
        <time>2010-01-01T08:33:23Z</time>
      </trkpt>
      <trkpt lat="51.554193813353777" lon="8.468293016776443">
        <ele>286</ele>
        <time>2010-01-01T08:33:27Z</time>
      </trkpt>
      <trkpt lat="51.554298000410199" lon="8.468286981806159">
        <ele>285</ele>
        <time>2010-01-01T08:33:32Z</time>
      </trkpt>
      <trkpt lat="51.555102914571762" lon="8.46841698512435">
        <ele>282</ele>
        <time>2010-01-01T08:34:04Z</time>
      </trkpt>
      <trkpt lat="51.555470796301961" lon="8.468510024249554">
        <ele>280</ele>
        <time>2010-01-01T08:34:19Z</time>
      </trkpt>
      <trkpt lat="51.555657796561718" lon="8.468574983999133">
        <ele>279</ele>
        <time>2010-01-01T08:34:27Z</time>
      </trkpt>
      <trkpt lat="51.555753014981747" lon="8.468621000647545">
        <ele>279</ele>
        <time>2010-01-01T08:34:31Z</time>
      </trkpt>
      <trkpt lat="51.556131038814783" lon="8.468873966485262">
        <ele>278</ele>
        <time>2010-01-01T08:34:47Z</time>
      </trkpt>
      <trkpt lat="51.556429015472531" lon="8.469054009765387">
        <ele>277</ele>
        <time>2010-01-01T08:35:00Z</time>
      </trkpt>
      <trkpt lat="51.556531023234129" lon="8.469102960079908">
        <ele>277</ele>
        <time>2010-01-01T08:35:04Z</time>
      </trkpt>
      <trkpt lat="51.556737804785371" lon="8.469165991991758">
        <ele>276</ele>
        <time>2010-01-01T08:35:12Z</time>
      </trkpt>
      <trkpt lat="51.556946011260152" lon="8.469183007255197">
        <ele>275</ele>
        <time>2010-01-01T08:35:21Z</time>
      </trkpt>
      <trkpt lat="51.557253794744611" lon="8.469144031405449">
        <ele>273</ele>
        <time>2010-01-01T08:35:33Z</time>
      </trkpt>
      <trkpt lat="51.557448003441095" lon="8.469047974795103">
        <ele>272</ele>
        <time>2010-01-01T08:35:41Z</time>
      </trkpt>
      <trkpt lat="51.557539030909538" lon="8.468979997560382">
        <ele>272</ele>
        <time>2010-01-01T08:35:45Z</time>
      </trkpt>
      <trkpt lat="51.557704908773303" lon="8.468783022835851">
        <ele>272</ele>
        <time>2010-01-01T08:35:53Z</time>
      </trkpt>
      <trkpt lat="51.557772802188993" lon="8.468662993982434">
        <ele>271</ele>
        <time>2010-01-01T08:35:57Z</time>
      </trkpt>
      <trkpt lat="51.557869026437402" lon="8.468381026759744">
        <ele>272</ele>
        <time>2010-01-01T08:36:06Z</time>
      </trkpt>
      <trkpt lat="51.557931806892157" lon="8.468076009303331">
        <ele>272</ele>
        <time>2010-01-01T08:36:14Z</time>
      </trkpt>
      <trkpt lat="51.558248810470104" lon="8.465593038126826">
        <ele>274</ele>
        <time>2010-01-01T08:37:17Z</time>
      </trkpt>
      <trkpt lat="51.558274794369936" lon="8.465464962646365">
        <ele>275</ele>
        <time>2010-01-01T08:37:20Z</time>
      </trkpt>
      <trkpt lat="51.558342017233372" lon="8.465219959616661">
        <ele>275</ele>
        <time>2010-01-01T08:37:27Z</time>
      </trkpt>
      <trkpt lat="51.558432038873434" lon="8.464989038184285">
        <ele>275</ele>
        <time>2010-01-01T08:37:33Z</time>
      </trkpt>
      <trkpt lat="51.558535806834698" lon="8.464776976034045">
        <ele>274</ele>
        <time>2010-01-01T08:37:40Z</time>
      </trkpt>
      <trkpt lat="51.558835040777922" lon="8.464280012995005">
        <ele>274</ele>
        <time>2010-01-01T08:37:57Z</time>
      </trkpt>
      <trkpt lat="51.558882901445031" lon="8.464166019111872">
        <ele>274</ele>
        <time>2010-01-01T08:38:01Z</time>
      </trkpt>
      <trkpt lat="51.558947023004293" lon="8.463936019688845">
        <ele>273</ele>
        <time>2010-01-01T08:38:07Z</time>
      </trkpt>
      <trkpt lat="51.55900401994586" lon="8.463608035817742">
        <ele>272</ele>
        <time>2010-01-01T08:38:15Z</time>
      </trkpt>
      <trkpt lat="51.559035032987595" lon="8.463525976985693">
        <ele>272</ele>
        <time>2010-01-01T08:38:18Z</time>
      </trkpt>
      <trkpt lat="51.559079037979245" lon="8.463465040549636">
        <ele>272</ele>
        <time>2010-01-01T08:38:20Z</time>
      </trkpt>
      <trkpt lat="51.559135029092431" lon="8.463428998365998">
        <ele>271</ele>
        <time>2010-01-01T08:38:23Z</time>
      </trkpt>
      <trkpt lat="51.55935681425035" lon="8.463393040001392">
        <ele>271</ele>
        <time>2010-01-01T08:38:32Z</time>
      </trkpt>
      <trkpt lat="51.559956036508083" lon="8.463202016428113">
        <ele>270</ele>
        <time>2010-01-01T08:38:56Z</time>
      </trkpt>
      <trkpt lat="51.560335904359818" lon="8.463133033365011">
        <ele>268</ele>
        <time>2010-01-01T08:39:11Z</time>
      </trkpt>
      <trkpt lat="51.560538914054632" lon="8.463146025314927">
        <ele>266</ele>
        <time>2010-01-01T08:39:19Z</time>
      </trkpt>
      <trkpt lat="51.560643017292023" lon="8.463179972022772">
        <ele>266</ele>
        <time>2010-01-01T08:39:24Z</time>
      </trkpt>
      <trkpt lat="51.560743013396859" lon="8.463232023641467">
        <ele>265</ele>
        <time>2010-01-01T08:39:28Z</time>
      </trkpt>
      <trkpt lat="51.561230001971126" lon="8.463562019169331">
        <ele>262</ele>
        <time>2010-01-01T08:39:49Z</time>
      </trkpt>
      <trkpt lat="51.561424797400832" lon="8.463671989738941">
        <ele>260</ele>
        <time>2010-01-01T08:39:57Z</time>
      </trkpt>
      <trkpt lat="51.56152781099081" lon="8.463704008609057">
        <ele>260</ele>
        <time>2010-01-01T08:40:02Z</time>
      </trkpt>
      <trkpt lat="51.561748003587127" lon="8.463720018044114">
        <ele>258</ele>
        <time>2010-01-01T08:40:10Z</time>
      </trkpt>
      <trkpt lat="51.562083028256893" lon="8.463652040809393">
        <ele>257</ele>
        <time>2010-01-01T08:40:24Z</time>
      </trkpt>
      <trkpt lat="51.562547804787755" lon="8.463662015274167">
        <ele>255</ele>
        <time>2010-01-01T08:40:42Z</time>
      </trkpt>
      <trkpt lat="51.562660792842507" lon="8.463700991123915">
        <ele>254</ele>
        <time>2010-01-01T08:40:47Z</time>
      </trkpt>
      <trkpt lat="51.562994811683893" lon="8.463867958635092">
        <ele>253</ele>
        <time>2010-01-01T08:41:01Z</time>
      </trkpt>
      <trkpt lat="51.563227912411094" lon="8.463923027738929">
        <ele>253</ele>
        <time>2010-01-01T08:41:11Z</time>
      </trkpt>
      <trkpt lat="51.563348025083542" lon="8.463926967233419">
        <ele>252</ele>
        <time>2010-01-01T08:41:15Z</time>
      </trkpt>
      <trkpt lat="51.563596799969673" lon="8.46388204023242">
        <ele>251</ele>
        <time>2010-01-01T08:41:25Z</time>
      </trkpt>
      <trkpt lat="51.563984798267484" lon="8.463753964751959">
        <ele>248</ele>
        <time>2010-01-01T08:41:41Z</time>
      </trkpt>
      <trkpt lat="51.565349036827683" lon="8.463234035298228">
        <ele>240</ele>
        <time>2010-01-01T08:42:37Z</time>
      </trkpt>
      <trkpt lat="51.566544799134135" lon="8.462746040895581">
        <ele>232</ele>
        <time>2010-01-01T08:43:27Z</time>
      </trkpt>
      <trkpt lat="51.566916033625603" lon="8.462616037577391">
        <ele>229</ele>
        <time>2010-01-01T08:43:42Z</time>
      </trkpt>
      <trkpt lat="51.567173022776842" lon="8.462587036192417">
        <ele>228</ele>
        <time>2010-01-01T08:43:52Z</time>
      </trkpt>
      <trkpt lat="51.567431017756462" lon="8.462612014263868">
        <ele>226</ele>
        <time>2010-01-01T08:44:03Z</time>
      </trkpt>
      <trkpt lat="51.568582020699978" lon="8.462823992595077">
        <ele>225</ele>
        <time>2010-01-01T08:44:49Z</time>
      </trkpt>
      <trkpt lat="51.568965911865234" lon="8.462904039770365">
        <ele>225</ele>
        <time>2010-01-01T08:45:04Z</time>
      </trkpt>
      <trkpt lat="51.569347707554698" lon="8.463034629821777">
        <ele>226</ele>
        <time>2010-01-01T08:45:20Z</time>
      </trkpt>
      <trkpt lat="51.569641241803765" lon="8.463313579559326">
        <ele>227</ele>
        <time>2010-01-01T08:45:34Z</time>
      </trkpt>
      <trkpt lat="51.570134600624442" lon="8.464343547821045">
        <ele>228</ele>
        <time>2010-01-01T08:46:06Z</time>
      </trkpt>
      <trkpt lat="51.570703815668821" lon="8.465250972658396">
        <ele>224</ele>
        <time>2010-01-01T08:46:38Z</time>
      </trkpt>
      <trkpt lat="51.570825017988682" lon="8.465333031490445">
        <ele>222</ele>
        <time>2010-01-01T08:46:43Z</time>
      </trkpt>
      <trkpt lat="51.571074798703194" lon="8.465436967089772">
        <ele>222</ele>
        <time>2010-01-01T08:46:54Z</time>
      </trkpt>
      <trkpt lat="51.571337906643748" lon="8.465475020930171">
        <ele>222</ele>
        <time>2010-01-01T08:47:04Z</time>
      </trkpt>
      <trkpt lat="51.571601685136557" lon="8.465545177459717">
        <ele>222</ele>
        <time>2010-01-01T08:47:15Z</time>
      </trkpt>
      <trkpt lat="51.571908378973603" lon="8.465437889099121">
        <ele>223</ele>
        <time>2010-01-01T08:47:28Z</time>
      </trkpt>
      <trkpt lat="51.572761908173561" lon="8.464944362640381">
        <ele>225</ele>
        <time>2010-01-01T08:48:04Z</time>
      </trkpt>
      <trkpt lat="51.57312199473381" lon="8.464772701263428">
        <ele>227</ele>
        <time>2010-01-01T08:48:19Z</time>
      </trkpt>
      <trkpt lat="51.573775615543127" lon="8.464901447296143">
        <ele>226</ele>
        <time>2010-01-01T08:48:45Z</time>
      </trkpt>
      <trkpt lat="51.574375592172146" lon="8.465695381164551">
        <ele>222</ele>
        <time>2010-01-01T08:49:16Z</time>
      </trkpt>
      <trkpt lat="51.574943801388144" lon="8.46665401943028">
        <ele>218</ele>
        <time>2010-01-01T08:49:49Z</time>
      </trkpt>
      <trkpt lat="51.575677804648876" lon="8.46787802875042">
        <ele>216</ele>
        <time>2010-01-01T08:50:32Z</time>
      </trkpt>
      <trkpt lat="51.575752906501293" lon="8.467958997935057">
        <ele>215</ele>
        <time>2010-01-01T08:50:35Z</time>
      </trkpt>
      <trkpt lat="51.575904032215476" lon="8.468064023181796">
        <ele>215</ele>
        <time>2010-01-01T08:50:42Z</time>
      </trkpt>
      <trkpt lat="51.57617979682982" lon="8.468156978487968">
        <ele>216</ele>
        <time>2010-01-01T08:50:53Z</time>
      </trkpt>
      <trkpt lat="51.576423039659858" lon="8.468166030943394">
        <ele>218</ele>
        <time>2010-01-01T08:51:03Z</time>
      </trkpt>
      <trkpt lat="51.576618002727628" lon="8.468110961839557">
        <ele>221</ele>
        <time>2010-01-01T08:51:11Z</time>
      </trkpt>
      <trkpt lat="51.576843811199069" lon="8.467989005148411">
        <ele>223</ele>
        <time>2010-01-01T08:51:20Z</time>
      </trkpt>
      <trkpt lat="51.577007006853819" lon="8.46788096241653">
        <ele>225</ele>
        <time>2010-01-01T08:51:27Z</time>
      </trkpt>
      <trkpt lat="51.577309006825089" lon="8.4677719976753">
        <ele>227</ele>
        <time>2010-01-01T08:51:40Z</time>
      </trkpt>
      <trkpt lat="51.577607905492187" lon="8.467613998800516">
        <ele>231</ele>
        <time>2010-01-01T08:51:52Z</time>
      </trkpt>
      <trkpt lat="51.578331012278795" lon="8.467320967465639">
        <ele>236</ele>
        <time>2010-01-01T08:52:22Z</time>
      </trkpt>
      <trkpt lat="51.578628905117512" lon="8.467293977737427">
        <ele>236</ele>
        <time>2010-01-01T08:52:34Z</time>
      </trkpt>
      <trkpt lat="51.579159814864397" lon="8.467381987720728">
        <ele>235</ele>
        <time>2010-01-01T08:52:56Z</time>
      </trkpt>
      <trkpt lat="51.579595003277063" lon="8.467487012967467">
        <ele>231</ele>
        <time>2010-01-01T08:53:13Z</time>
      </trkpt>
      <trkpt lat="51.579928016290069" lon="8.467521965503693">
        <ele>228</ele>
        <time>2010-01-01T08:53:27Z</time>
      </trkpt>
      <trkpt lat="51.580378795042634" lon="8.467674013227224">
        <ele>225</ele>
        <time>2010-01-01T08:53:45Z</time>
      </trkpt>
      <trkpt lat="51.581503814086318" lon="8.467926979064941">
        <ele>220</ele>
        <time>2010-01-01T08:54:30Z</time>
      </trkpt>
      <trkpt lat="51.58191779628396" lon="8.46798699349165">
        <ele>219</ele>
        <time>2010-01-01T08:54:47Z</time>
      </trkpt>
      <trkpt lat="51.584331030026078" lon="8.468183968216181">
        <ele>211</ele>
        <time>2010-01-01T08:56:24Z</time>
      </trkpt>
      <trkpt lat="51.585104009136558" lon="8.468191009014845">
        <ele>208</ele>
        <time>2010-01-01T08:56:55Z</time>
      </trkpt>
      <trkpt lat="51.585694011300802" lon="8.468170976266265">
        <ele>207</ele>
        <time>2010-01-01T08:57:18Z</time>
      </trkpt>
      <trkpt lat="51.585986036807299" lon="8.468134012073278">
        <ele>207</ele>
        <time>2010-01-01T08:57:30Z</time>
      </trkpt>
      <trkpt lat="51.5860550198704" lon="8.468086989596486">
        <ele>208</ele>
        <time>2010-01-01T08:57:33Z</time>
      </trkpt>
      <trkpt lat="51.586196003481746" lon="8.467952962964773">
        <ele>208</ele>
        <time>2010-01-01T08:57:40Z</time>
      </trkpt>
      <trkpt lat="51.58641804009676" lon="8.467699997127056">
        <ele>208</ele>
        <time>2010-01-01T08:57:51Z</time>
      </trkpt>
      <trkpt lat="51.587256900966167" lon="8.467002036049962">
        <ele>205</ele>
        <time>2010-01-01T08:58:28Z</time>
      </trkpt>
      <trkpt lat="51.587770041078329" lon="8.466715039685369">
        <ele>205</ele>
        <time>2010-01-01T08:58:50Z</time>
      </trkpt>
      <trkpt lat="51.588172791525722" lon="8.466345984488726">
        <ele>205</ele>
        <time>2010-01-01T08:59:09Z</time>
      </trkpt>
      <trkpt lat="51.588345039635897" lon="8.466090001165867">
        <ele>205</ele>
        <time>2010-01-01T08:59:18Z</time>
      </trkpt>
      <trkpt lat="51.589010814204812" lon="8.464848976582289">
        <ele>213</ele>
        <time>2010-01-01T08:59:59Z</time>
      </trkpt>
      <trkpt lat="51.589077031239867" lon="8.464773958548904">
        <ele>213</ele>
        <time>2010-01-01T09:00:02Z</time>
      </trkpt>
      <trkpt lat="51.58914702013135" lon="8.464733976870775">
        <ele>214</ele>
        <time>2010-01-01T09:00:05Z</time>
      </trkpt>
      <trkpt lat="51.58922279253602" lon="8.464724002406001">
        <ele>214</ele>
        <time>2010-01-01T09:00:08Z</time>
      </trkpt>
      <trkpt lat="51.589382803067565" lon="8.464756021276116">
        <ele>214</ele>
        <time>2010-01-01T09:00:14Z</time>
      </trkpt>
      <trkpt lat="51.589739033952355" lon="8.464862974360585">
        <ele>215</ele>
        <time>2010-01-01T09:00:29Z</time>
      </trkpt>
      <trkpt lat="51.590589210391045" lon="8.464794158935547">
        <ele>209</ele>
        <time>2010-01-01T09:01:03Z</time>
      </trkpt>
      <trkpt lat="51.591269234195352" lon="8.464601039886475">
        <ele>203</ele>
        <time>2010-01-01T09:01:31Z</time>
      </trkpt>
      <trkpt lat="51.592309009283781" lon="8.464578995481134">
        <ele>200</ele>
        <time>2010-01-01T09:02:12Z</time>
      </trkpt>
      <trkpt lat="51.592602040618658" lon="8.464554017409682">
        <ele>199</ele>
        <time>2010-01-01T09:02:24Z</time>
      </trkpt>
      <trkpt lat="51.592700025066733" lon="8.464560974389315">
        <ele>199</ele>
        <time>2010-01-01T09:02:28Z</time>
      </trkpt>
      <trkpt lat="51.593786906450987" lon="8.464772030711174">
        <ele>197</ele>
        <time>2010-01-01T09:03:12Z</time>
      </trkpt>
      <trkpt lat="51.594503810629249" lon="8.464791979640722">
        <ele>197</ele>
        <time>2010-01-01T09:03:41Z</time>
      </trkpt>
      <trkpt lat="51.595536796376109" lon="8.464773036539555">
        <ele>194</ele>
        <time>2010-01-01T09:04:22Z</time>
      </trkpt>
      <trkpt lat="51.596275912597775" lon="8.464788040146232">
        <ele>192</ele>
        <time>2010-01-01T09:04:51Z</time>
      </trkpt>
      <trkpt lat="51.598477000370622" lon="8.464700030162931">
        <ele>188</ele>
        <time>2010-01-01T09:06:20Z</time>
      </trkpt>
      <trkpt lat="51.602069903165102" lon="8.464708998799324">
        <ele>184</ele>
        <time>2010-01-01T09:08:43Z</time>
      </trkpt>
      <trkpt lat="51.604851018637419" lon="8.464650996029377">
        <ele>173</ele>
        <time>2010-01-01T09:10:35Z</time>
      </trkpt>
      <trkpt lat="51.606175024062395" lon="8.464602967724204">
        <ele>168</ele>
        <time>2010-01-01T09:11:28Z</time>
      </trkpt>
      <trkpt lat="51.60750481300056" lon="8.464591987431049">
        <ele>166</ele>
        <time>2010-01-01T09:12:21Z</time>
      </trkpt>
      <trkpt lat="51.608526902273297" lon="8.46454999409616">
        <ele>162</ele>
        <time>2010-01-01T09:13:02Z</time>
      </trkpt>
      <trkpt lat="51.609888793900609" lon="8.464546976611018">
        <ele>159</ele>
        <time>2010-01-01T09:13:56Z</time>
      </trkpt>
      <trkpt lat="51.616096012294292" lon="8.464393001049757">
        <ele>140</ele>
        <time>2010-01-01T09:18:05Z</time>
      </trkpt>
      <trkpt lat="51.617745906114578" lon="8.464373974129558">
        <ele>137</ele>
        <time>2010-01-01T09:19:11Z</time>
      </trkpt>
      <trkpt lat="51.621921015903354" lon="8.464293004944921">
        <ele>124</ele>
        <time>2010-01-01T09:21:58Z</time>
      </trkpt>
      <trkpt lat="51.625376790761948" lon="8.464210024103522">
        <ele>114</ele>
        <time>2010-01-01T09:24:17Z</time>
      </trkpt>
      <trkpt lat="51.629657009616494" lon="8.464170964434743">
        <ele>107</ele>
        <time>2010-01-01T09:27:08Z</time>
      </trkpt>
      <trkpt lat="51.632011905312538" lon="8.464125031605363">
        <ele>106</ele>
        <time>2010-01-01T09:28:42Z</time>
      </trkpt>
      <trkpt lat="51.63248791359365" lon="8.464169036597014">
        <ele>105</ele>
        <time>2010-01-01T09:29:01Z</time>
      </trkpt>
      <trkpt lat="51.632970795035362" lon="8.463987987488508">
        <ele>104</ele>
        <time>2010-01-01T09:29:21Z</time>
      </trkpt>
      <trkpt lat="51.635146904736757" lon="8.463275022804737">
        <ele>106</ele>
        <time>2010-01-01T09:30:50Z</time>
      </trkpt>
      <trkpt lat="51.636202018707991" lon="8.463020967319608">
        <ele>105</ele>
        <time>2010-01-01T09:31:33Z</time>
      </trkpt>
      <trkpt lat="51.637362912297249" lon="8.462813012301922">
        <ele>104</ele>
        <time>2010-01-01T09:32:19Z</time>
      </trkpt>
      <trkpt lat="51.638117032125592" lon="8.462490979582071">
        <ele>105</ele>
        <time>2010-01-01T09:32:51Z</time>
      </trkpt>
      <trkpt lat="51.63818190805614" lon="8.462489973753691">
        <ele>105</ele>
        <time>2010-01-01T09:32:53Z</time>
      </trkpt>
      <trkpt lat="51.638244017958641" lon="8.462515035644174">
        <ele>105</ele>
        <time>2010-01-01T09:32:56Z</time>
      </trkpt>
      <trkpt lat="51.638295901939273" lon="8.462570020928979">
        <ele>105</ele>
        <time>2010-01-01T09:32:58Z</time>
      </trkpt>
      <trkpt lat="51.63833680562675" lon="8.462645038962364">
        <ele>105</ele>
        <time>2010-01-01T09:33:01Z</time>
      </trkpt>
      <trkpt lat="51.638450799509883" lon="8.462998000904918">
        <ele>104</ele>
        <time>2010-01-01T09:33:11Z</time>
      </trkpt>
      <trkpt lat="51.638662023469806" lon="8.463461017236114">
        <ele>103</ele>
        <time>2010-01-01T09:33:25Z</time>
      </trkpt>
      <trkpt lat="51.638849023729563" lon="8.464031992480159">
        <ele>103</ele>
        <time>2010-01-01T09:33:41Z</time>
      </trkpt>
      <trkpt lat="51.638923035934567" lon="8.464336004108191">
        <ele>103</ele>
        <time>2010-01-01T09:33:49Z</time>
      </trkpt>
      <trkpt lat="51.639042813330889" lon="8.465147959068418">
        <ele>103</ele>
        <time>2010-01-01T09:34:10Z</time>
      </trkpt>
      <trkpt lat="51.639461573213339" lon="8.466939926147461">
        <ele>102</ele>
        <time>2010-01-01T09:34:57Z</time>
      </trkpt>
      <trkpt lat="51.639088662341237" lon="8.471102714538574">
        <ele>105</ele>
        <time>2010-01-01T09:36:42Z</time>
      </trkpt>
      <trkpt lat="51.63935512304306" lon="8.472433090209961">
        <ele>106</ele>
        <time>2010-01-01T09:37:17Z</time>
      </trkpt>
      <trkpt lat="51.641033012419939" lon="8.471746444702148">
        <ele>103</ele>
        <time>2010-01-01T09:38:26Z</time>
      </trkpt>
      <trkpt lat="51.641325876116753" lon="8.469300270080566">
        <ele>102</ele>
        <time>2010-01-01T09:39:28Z</time>
      </trkpt>
      <trkpt lat="51.640953132882714" lon="8.466811180114746">
        <ele>101</ele>
        <time>2010-01-01T09:40:31Z</time>
      </trkpt>
      <trkpt lat="51.656637014821172" lon="8.452863693237305">
        <ele>100</ele>
        <time>2010-01-01T09:52:28Z</time>
      </trkpt>
      <trkpt lat="51.6580481082201" lon="8.451318740844727">
        <ele>96</ele>
        <time>2010-01-01T09:53:37Z</time>
      </trkpt>
      <trkpt lat="51.661136168986559" lon="8.449687957763672">
        <ele>98</ele>
        <time>2010-01-01T09:55:47Z</time>
      </trkpt>
      <trkpt lat="51.662014676257968" lon="8.449387550354004">
        <ele>95</ele>
        <time>2010-01-01T09:56:23Z</time>
      </trkpt>
      <trkpt lat="51.662626890465617" lon="8.44874382019043">
        <ele>94</ele>
        <time>2010-01-01T09:56:52Z</time>
      </trkpt>
      <trkpt lat="51.663585193455219" lon="8.448829650878906">
        <ele>91</ele>
        <time>2010-01-01T09:57:30Z</time>
      </trkpt>
      <trkpt lat="51.66486301459372" lon="8.450202941894531">
        <ele>89</ele>
        <time>2010-01-01T09:58:32Z</time>
      </trkpt>
      <trkpt lat="51.674151923507452" lon="8.451876640319824">
        <ele>86</ele>
        <time>2010-01-01T10:04:46Z</time>
      </trkpt>
      <trkpt lat="51.674950299784541" lon="8.453292846679688">
        <ele>85</ele>
        <time>2010-01-01T10:05:34Z</time>
      </trkpt>
      <trkpt lat="51.675535775721073" lon="8.453936576843262">
        <ele>85</ele>
        <time>2010-01-01T10:06:02Z</time>
      </trkpt>
      <trkpt lat="51.676360806450248" lon="8.453421592712402">
        <ele>84</ele>
        <time>2010-01-01T10:06:37Z</time>
      </trkpt>
      <trkpt lat="51.677159098908305" lon="8.452563285827637">
        <ele>83</ele>
        <time>2010-01-01T10:07:16Z</time>
      </trkpt>
      <trkpt lat="51.677930820733309" lon="8.453249931335449">
        <ele>82</ele>
        <time>2010-01-01T10:07:51Z</time>
      </trkpt>
      <trkpt lat="51.679101688787341" lon="8.45299243927002">
        <ele>82</ele>
        <time>2010-01-01T10:08:38Z</time>
      </trkpt>
      <trkpt lat="51.680033085867763" lon="8.452649116516113">
        <ele>82</ele>
        <time>2010-01-01T10:09:17Z</time>
      </trkpt>
      <trkpt lat="51.682880166918039" lon="8.453807830810547">
        <ele>82</ele>
        <time>2010-01-01T10:11:14Z</time>
      </trkpt>
      <trkpt lat="51.688041910529137" lon="8.457198143005371">
        <ele>81</ele>
        <time>2010-01-01T10:14:57Z</time>
      </trkpt>
      <trkpt lat="51.692138900980353" lon="8.457884788513184">
        <ele>84</ele>
        <time>2010-01-01T10:17:42Z</time>
      </trkpt>
      <trkpt lat="51.692937025800347" lon="8.456296920776367">
        <ele>80</ele>
        <time>2010-01-01T10:18:33Z</time>
      </trkpt>
      <trkpt lat="51.694213841110468" lon="8.455266952514648">
        <ele>82</ele>
        <time>2010-01-01T10:19:30Z</time>
      </trkpt>
      <trkpt lat="51.694958740845323" lon="8.457155227661133">
        <ele>83</ele>
        <time>2010-01-01T10:20:26Z</time>
      </trkpt>
      <trkpt lat="51.6958630643785" lon="8.455953598022461">
        <ele>82</ele>
        <time>2010-01-01T10:21:12Z</time>
      </trkpt>
      <trkpt lat="51.703204186633229" lon="8.455867767333984">
        <ele>79</ele>
        <time>2010-01-01T10:26:06Z</time>
      </trkpt>
      <trkpt lat="51.704374384135008" lon="8.457155227661133">
        <ele>82</ele>
        <time>2010-01-01T10:27:03Z</time>
      </trkpt>
      <trkpt lat="51.705704173073173" lon="8.458356857299805">
        <ele>80</ele>
        <time>2010-01-01T10:28:04Z</time>
      </trkpt>
      <trkpt lat="51.705970130860806" lon="8.459644317626953">
        <ele>82</ele>
        <time>2010-01-01T10:28:38Z</time>
      </trkpt>
      <trkpt lat="51.706182863563299" lon="8.462991714477539">
        <ele>82</ele>
        <time>2010-01-01T10:30:01Z</time>
      </trkpt>
      <trkpt lat="51.708895498886704" lon="8.464879989624023">
        <ele>84</ele>
        <time>2010-01-01T10:31:59Z</time>
      </trkpt>
      <trkpt lat="51.708044484257698" lon="8.468742370605469">
        <ele>87</ele>
        <time>2010-01-01T10:33:41Z</time>
      </trkpt>
      <trkpt lat="51.708416808396578" lon="8.474063873291016">
        <ele>82</ele>
        <time>2010-01-01T10:35:54Z</time>
      </trkpt>
      <trkpt lat="51.707725385203958" lon="8.476896286010742">
        <ele>82</ele>
        <time>2010-01-01T10:37:09Z</time>
      </trkpt>
      <trkpt lat="51.706980736926198" lon="8.482046127319336">
        <ele>84</ele>
        <time>2010-01-01T10:39:21Z</time>
      </trkpt>
      <trkpt lat="51.707592364400625" lon="8.48818302154541">
        <ele>85</ele>
        <time>2010-01-01T10:41:55Z</time>
      </trkpt>
      <trkpt lat="51.708203991875052" lon="8.49543571472168">
        <ele>89</ele>
        <time>2010-01-01T10:44:56Z</time>
      </trkpt>
      <trkpt lat="51.709081577137113" lon="8.503246307373047">
        <ele>88</ele>
        <time>2010-01-01T10:48:13Z</time>
      </trkpt>
      <trkpt lat="51.709507126361132" lon="8.503246307373047">
        <ele>91</ele>
        <time>2010-01-01T10:48:30Z</time>
      </trkpt>
      <trkpt lat="51.709906021133065" lon="8.503503799438477">
        <ele>93</ele>
        <time>2010-01-01T10:48:48Z</time>
      </trkpt>
      <trkpt lat="51.710424525663257" lon="8.504233360290527">
        <ele>88</ele>
        <time>2010-01-01T10:49:15Z</time>
      </trkpt>
      <trkpt lat="51.711093904450536" lon="8.50567102432251">
        <ele>85</ele>
        <time>2010-01-01T10:50:00Z</time>
      </trkpt>
      <trkpt lat="51.7116829007864" lon="8.507131990045309">
        <ele>85</ele>
        <time>2010-01-01T10:50:43Z</time>
      </trkpt>
      <trkpt lat="51.712153041735291" lon="8.508396148681641">
        <ele>84</ele>
        <time>2010-01-01T10:51:19Z</time>
      </trkpt>
      <trkpt lat="51.712950579822063" lon="8.509640693664551">
        <ele>85</ele>
        <time>2010-01-01T10:52:04Z</time>
      </trkpt>
      <trkpt lat="51.714638024568558" lon="8.511643968522549">
        <ele>86</ele>
        <time>2010-01-01T10:53:28Z</time>
      </trkpt>
      <trkpt lat="51.715512005612254" lon="8.51271903142333">
        <ele>87</ele>
        <time>2010-01-01T10:54:12Z</time>
      </trkpt>
      <trkpt lat="51.717467000707984" lon="8.515070993453264">
        <ele>85</ele>
        <time>2010-01-01T10:55:49Z</time>
      </trkpt>
      <trkpt lat="51.718253809958696" lon="8.516081012785435">
        <ele>87</ele>
        <time>2010-01-01T10:56:30Z</time>
      </trkpt>
      <trkpt lat="51.719225607812405" lon="8.51764440536499">
        <ele>86</ele>
        <time>2010-01-01T10:57:25Z</time>
      </trkpt>
      <trkpt lat="51.720501584932208" lon="8.519575595855713">
        <ele>88</ele>
        <time>2010-01-01T10:58:35Z</time>
      </trkpt>
      <trkpt lat="51.720713814720511" lon="8.519422961398959">
        <ele>87</ele>
        <time>2010-01-01T10:58:44Z</time>
      </trkpt>
      <trkpt lat="51.721083791926503" lon="8.519023982807994">
        <ele>86</ele>
        <time>2010-01-01T10:59:02Z</time>
      </trkpt>
      <trkpt lat="51.72236580401659" lon="8.517485987395048">
        <ele>86</ele>
        <time>2010-01-01T11:00:06Z</time>
      </trkpt>
      <trkpt lat="51.722832005470991" lon="8.516944013535976">
        <ele>86</ele>
        <time>2010-01-01T11:00:29Z</time>
      </trkpt>
      <trkpt lat="51.72310802154243" lon="8.516649976372719">
        <ele>87</ele>
        <time>2010-01-01T11:00:42Z</time>
      </trkpt>
      <trkpt lat="51.723145907744765" lon="8.516640001907945">
        <ele>87</ele>
        <time>2010-01-01T11:00:43Z</time>
      </trkpt>
      <trkpt lat="51.723179016262293" lon="8.516655005514622">
        <ele>87</ele>
        <time>2010-01-01T11:00:45Z</time>
      </trkpt>
      <trkpt lat="51.723208017647266" lon="8.516690041869879">
        <ele>87</ele>
        <time>2010-01-01T11:00:46Z</time>
      </trkpt>
      <trkpt lat="51.723287813365459" lon="8.516848040744662">
        <ele>87</ele>
        <time>2010-01-01T11:00:51Z</time>
      </trkpt>
      <trkpt lat="51.724642915651202" lon="8.52008999325335">
        <ele>86</ele>
        <time>2010-01-01T11:02:28Z</time>
      </trkpt>
      <trkpt lat="51.726925810799003" lon="8.525364976376295">
        <ele>86</ele>
        <time>2010-01-01T11:05:08Z</time>
      </trkpt>
      <trkpt lat="51.72746803611517" lon="8.5265769995749">
        <ele>86</ele>
        <time>2010-01-01T11:05:45Z</time>
      </trkpt>
      <trkpt lat="51.728515019640326" lon="8.529061982408166">
        <ele>85</ele>
        <time>2010-01-01T11:06:59Z</time>
      </trkpt>
      <trkpt lat="51.729357903823256" lon="8.531019994989038">
        <ele>86</ele>
        <time>2010-01-01T11:07:58Z</time>
      </trkpt>
      <trkpt lat="51.729527805000544" lon="8.531384021043778">
        <ele>87</ele>
        <time>2010-01-01T11:08:10Z</time>
      </trkpt>
      <trkpt lat="51.731049036607146" lon="8.534995028749108">
        <ele>87</ele>
        <time>2010-01-01T11:09:58Z</time>
      </trkpt>
      <trkpt lat="51.731518004089594" lon="8.536190958693624">
        <ele>86</ele>
        <time>2010-01-01T11:10:33Z</time>
      </trkpt>
      <trkpt lat="51.732877800241113" lon="8.539439029991627">
        <ele>89</ele>
        <time>2010-01-01T11:12:10Z</time>
      </trkpt>
      <trkpt lat="51.734180012717843" lon="8.542508985847235">
        <ele>89</ele>
        <time>2010-01-01T11:13:43Z</time>
      </trkpt>
      <trkpt lat="51.73450481146574" lon="8.543309038504958">
        <ele>88</ele>
        <time>2010-01-01T11:14:06Z</time>
      </trkpt>
      <trkpt lat="51.735263038426638" lon="8.545061023905873">
        <ele>89</ele>
        <time>2010-01-01T11:14:59Z</time>
      </trkpt>
      <trkpt lat="51.736019002273679" lon="8.546879980713129">
        <ele>88</ele>
        <time>2010-01-01T11:15:54Z</time>
      </trkpt>
      <trkpt lat="51.736198039725423" lon="8.547287005931139">
        <ele>88</ele>
        <time>2010-01-01T11:16:06Z</time>
      </trkpt>
      <trkpt lat="51.737693035975099" lon="8.550082035362721">
        <ele>89</ele>
        <time>2010-01-01T11:17:38Z</time>
      </trkpt>
      <trkpt lat="51.737774005159736" lon="8.550180019810796">
        <ele>89</ele>
        <time>2010-01-01T11:17:42Z</time>
      </trkpt>
      <trkpt lat="51.737822033464909" lon="8.550183959305286">
        <ele>89</ele>
        <time>2010-01-01T11:17:44Z</time>
      </trkpt>
      <trkpt lat="51.737867798656225" lon="8.550151018425822">
        <ele>89</ele>
        <time>2010-01-01T11:17:46Z</time>
      </trkpt>
      <trkpt lat="51.741348803043365" lon="8.547167982906103">
        <ele>89</ele>
        <time>2010-01-01T11:20:23Z</time>
      </trkpt>
      <trkpt lat="51.742438031360507" lon="8.546217978000641">
        <ele>87</ele>
        <time>2010-01-01T11:21:13Z</time>
      </trkpt>
      <trkpt lat="51.743631027638912" lon="8.545213993638754">
        <ele>88</ele>
        <time>2010-01-01T11:22:07Z</time>
      </trkpt>
      <trkpt lat="51.747750900685787" lon="8.541671968996525">
        <ele>91</ele>
        <time>2010-01-01T11:25:13Z</time>
      </trkpt>
      <trkpt lat="51.748163038864732" lon="8.541339039802551">
        <ele>90</ele>
        <time>2010-01-01T11:25:32Z</time>
      </trkpt>
      <trkpt lat="51.748214000836015" lon="8.541338033974171">
        <ele>90</ele>
        <time>2010-01-01T11:25:34Z</time>
      </trkpt>
      <trkpt lat="51.748256916180253" lon="8.541376003995538">
        <ele>90</ele>
        <time>2010-01-01T11:25:36Z</time>
      </trkpt>
      <trkpt lat="51.748282900080085" lon="8.541441969573498">
        <ele>90</ele>
        <time>2010-01-01T11:25:38Z</time>
      </trkpt>
      <trkpt lat="51.748290024697781" lon="8.541526040062308">
        <ele>90</ele>
        <time>2010-01-01T11:25:40Z</time>
      </trkpt>
      <trkpt lat="51.748276026919484" lon="8.541813036426902">
        <ele>90</ele>
        <time>2010-01-01T11:25:47Z</time>
      </trkpt>
      <trkpt lat="51.748280804604292" lon="8.542232969775796">
        <ele>90</ele>
        <time>2010-01-01T11:25:58Z</time>
      </trkpt>
      <trkpt lat="51.748311901465058" lon="8.543067974969745">
        <ele>91</ele>
        <time>2010-01-01T11:26:18Z</time>
      </trkpt>
      <trkpt lat="51.748706018552184" lon="8.551100017502904">
        <ele>89</ele>
        <time>2010-01-01T11:29:38Z</time>
      </trkpt>
      <trkpt lat="51.748800901696086" lon="8.553405962884426">
        <ele>90</ele>
        <time>2010-01-01T11:30:35Z</time>
      </trkpt>
      <trkpt lat="51.74885680899024" lon="8.554040975868702">
        <ele>91</ele>
        <time>2010-01-01T11:30:51Z</time>
      </trkpt>
      <trkpt lat="51.748892012983561" lon="8.554184976965189">
        <ele>91</ele>
        <time>2010-01-01T11:30:55Z</time>
      </trkpt>
      <trkpt lat="51.748926797881722" lon="8.554227976128459">
        <ele>91</ele>
        <time>2010-01-01T11:30:57Z</time>
      </trkpt>
      <trkpt lat="51.748968791216612" lon="8.554237028583884">
        <ele>91</ele>
        <time>2010-01-01T11:30:58Z</time>
      </trkpt>
      <trkpt lat="51.749012796208262" lon="8.554211966693401">
        <ele>91</ele>
        <time>2010-01-01T11:31:00Z</time>
      </trkpt>
      <trkpt lat="51.749109020456672" lon="8.554119011387229">
        <ele>91</ele>
        <time>2010-01-01T11:31:05Z</time>
      </trkpt>
      <trkpt lat="51.749226031824946" lon="8.554072994738817">
        <ele>91</ele>
        <time>2010-01-01T11:31:10Z</time>
      </trkpt>
      <trkpt lat="51.750091798603535" lon="8.55392798781395">
        <ele>90</ele>
        <time>2010-01-01T11:31:44Z</time>
      </trkpt>
      <trkpt lat="51.750668808817863" lon="8.553857998922467">
        <ele>90</ele>
        <time>2010-01-01T11:32:08Z</time>
      </trkpt>
      <trkpt lat="51.751446900889277" lon="8.553731013089418">
        <ele>90</ele>
        <time>2010-01-01T11:32:39Z</time>
      </trkpt>
      <trkpt lat="51.75207101739943" lon="8.553754985332489">
        <ele>90</ele>
        <time>2010-01-01T11:33:04Z</time>
      </trkpt>
      <trkpt lat="51.752899903804064" lon="8.553764037787914">
        <ele>90</ele>
        <time>2010-01-01T11:33:37Z</time>
      </trkpt>
      <trkpt lat="51.753024039790034" lon="8.55373403057456">
        <ele>90</ele>
        <time>2010-01-01T11:33:42Z</time>
      </trkpt>
      <trkpt lat="51.75324079580605" lon="8.55373403057456">
        <ele>90</ele>
        <time>2010-01-01T11:33:51Z</time>
      </trkpt>
      <trkpt lat="51.753340037539601" lon="8.553715003654361">
        <ele>90</ele>
        <time>2010-01-01T11:33:55Z</time>
      </trkpt>
      <trkpt lat="51.756982728838921" lon="8.553697234019637">
        <ele>92</ele>
        <time>2010-01-01T11:36:21Z</time>
      </trkpt>
      <trkpt lat="51.757979840040207" lon="8.553740233182907">
        <ele>91</ele>
        <time>2010-01-01T11:37:01Z</time>
      </trkpt>
      <trkpt lat="51.761025069281459" lon="8.552966164425015">
        <ele>93</ele>
        <time>2010-01-01T11:39:04Z</time>
      </trkpt>
      <trkpt lat="51.761011490598321" lon="8.553582569584251">
        <ele>92</ele>
        <time>2010-01-01T11:39:19Z</time>
      </trkpt>
      <trkpt lat="51.7611731775105" lon="8.554385304450989">
        <ele>93</ele>
        <time>2010-01-01T11:39:40Z</time>
      </trkpt>
      <trkpt lat="51.761155324056745" lon="8.554672049358487">
        <ele>93</ele>
        <time>2010-01-01T11:39:47Z</time>
      </trkpt>
      <trkpt lat="51.761164208874106" lon="8.554772380739451">
        <ele>94</ele>
        <time>2010-01-01T11:39:50Z</time>
      </trkpt>
      <trkpt lat="51.7611731775105" lon="8.554815379902721">
        <ele>94</ele>
        <time>2010-01-01T11:39:51Z</time>
      </trkpt>
      <trkpt lat="51.761272000148892" lon="8.554629050195217">
        <ele>94</ele>
        <time>2010-01-01T11:39:57Z</time>
      </trkpt>
      <trkpt lat="51.761307958513498" lon="8.554428303614259">
        <ele>93</ele>
        <time>2010-01-01T11:40:02Z</time>
      </trkpt>
      <trkpt lat="51.761433687061071" lon="8.554213307797909">
        <ele>93</ele>
        <time>2010-01-01T11:40:09Z</time>
      </trkpt>
      <trkpt lat="51.76164030097425" lon="8.553539570420981">
        <ele>94</ele>
        <time>2010-01-01T11:40:28Z</time>
      </trkpt>
      <trkpt lat="51.761855967342854" lon="8.553052162751555">
        <ele>95</ele>
        <time>2010-01-01T11:40:43Z</time>
      </trkpt>
      <trkpt lat="51.762179424986243" lon="8.552751168608666">
        <ele>97</ele>
        <time>2010-01-01T11:40:58Z</time>
      </trkpt>
      <trkpt lat="51.762179508805275" lon="8.551174700260162">
        <ele>98</ele>
        <time>2010-01-01T11:41:37Z</time>
      </trkpt>
      <trkpt lat="51.76226919516921" lon="8.550830706954002">
        <ele>97</ele>
        <time>2010-01-01T11:41:46Z</time>
      </trkpt>
      <trkpt lat="51.762475809082389" lon="8.550414964556694">
        <ele>97</ele>
        <time>2010-01-01T11:41:59Z</time>
      </trkpt>
      <trkpt lat="51.763167567551136" lon="8.550027888268232">
        <ele>99</ele>
        <time>2010-01-01T11:42:29Z</time>
      </trkpt>
      <trkpt lat="51.763553805649281" lon="8.550070887431502">
        <ele>99</ele>
        <time>2010-01-01T11:42:44Z</time>
      </trkpt>
      <trkpt lat="51.763580795377493" lon="8.550070887431502">
        <ele>99</ele>
        <time>2010-01-01T11:42:45Z</time>
      </trkpt>
      <trkpt lat="51.763688586652279" lon="8.550185635685921">
        <ele>99</ele>
        <time>2010-01-01T11:42:50Z</time>
      </trkpt>
      <trkpt lat="51.763742482289672" lon="8.550185635685921">
        <ele>99</ele>
        <time>2010-01-01T11:42:53Z</time>
      </trkpt>
      <trkpt lat="51.763796377927065" lon="8.550142636522651">
        <ele>99</ele>
        <time>2010-01-01T11:42:55Z</time>
      </trkpt>
      <trkpt lat="51.763814315199852" lon="8.550113970413804">
        <ele>99</ele>
        <time>2010-01-01T11:42:56Z</time>
      </trkpt>
      <trkpt lat="51.764119835570455" lon="8.549999222159386">
        <ele>100</ele>
        <time>2010-01-01T11:43:09Z</time>
      </trkpt>
      <trkpt lat="51.764991218224168" lon="8.550013555213809">
        <ele>103</ele>
        <time>2010-01-01T11:43:43Z</time>
      </trkpt>
      <trkpt lat="51.765009071677923" lon="8.550027888268232">
        <ele>103</ele>
        <time>2010-01-01T11:43:44Z</time>
      </trkpt>
      <trkpt lat="51.765808705240488" lon="8.550816373899579">
        <ele>105</ele>
        <time>2010-01-01T11:44:22Z</time>
      </trkpt>
      <trkpt lat="51.767147127538919" lon="8.550973786041141">
        <ele>111</ele>
        <time>2010-01-01T11:45:15Z</time>
      </trkpt>
      <trkpt lat="51.768198134377599" lon="8.551260530948639">
        <ele>112</ele>
        <time>2010-01-01T11:45:58Z</time>
      </trkpt>
      <trkpt lat="51.768692079931498" lon="8.551790937781334">
        <ele>112</ele>
        <time>2010-01-01T11:46:22Z</time>
      </trkpt>
      <trkpt lat="51.769051412120461" lon="8.552565006539226">
        <ele>114</ele>
        <time>2010-01-01T11:46:46Z</time>
      </trkpt>
      <trkpt lat="51.769240088760853" lon="8.553396407514811">
        <ele>114</ele>
        <time>2010-01-01T11:47:08Z</time>
      </trkpt>
      <trkpt lat="51.769320890307426" lon="8.553998479619622">
        <ele>113</ele>
        <time>2010-01-01T11:47:23Z</time>
      </trkpt>
      <trkpt lat="51.769419712945819" lon="8.555862111970782">
        <ele>112</ele>
        <time>2010-01-01T11:48:09Z</time>
      </trkpt>
      <trkpt lat="51.769078401848674" lon="8.555890778079629">
        <ele>112</ele>
        <time>2010-01-01T11:48:23Z</time>
      </trkpt>
    </trkseg>
  </trk>

</gpx>
